[[{"header":{"parameterUnit":"m.s-1","parameterCategory":1,"la1":31.0,"la2":29.5877,"lo1":-88.7671,"lo2":-86.6584,"dy":0.0162,"dx":0.0185,"nx":115,"ny":88,"refTime":"2024-10-09T12:00:00:Z","depth":0,"parameterNumber":2,"parameterNumberName":"U-component_of_WINDS"},"data":[0.0,0.0,0.0,0.0,0.0,0.0,0.0,0.0,0.0,0.0,0.0,0.0,0.0,0.0,0.0,0.0,0.0,0.0,0.0,0.0,0.0,0.0,0.0,0.0,0.0,0.0,0.0,0.0,0.0,0.0,0.0,0.0,0.0,0.0,0.0,0.0,0.0,0.0,0.0,0.0,0.0,0.0,0.0,0.0,0.0,0.0,0.0,0.0,0.0,0.0,0.0,0.0,0.0,0.0,0.0,0.0,0.0,0.0,0.0,0.0,0.0,0.0,0.0,0.0,0.0,0.0,0.0,0.0,0.0,0.0,0.0,0.0,0.0,0.0,0.0,0.0,0.0,0.0,0.0,0.0,0.0,0.0,0.0,0.0,0.0,0.0,0.0,0.0,0.0,0.0,0.0,0.0,0.0,0.0,0.0,0.0,0.0,0.0,0.0,0.0,0.0,0.0,0.0,0.0,0.0,0.0,0.0,0.0,0.0,0.0,0.0,0.0,0.0,0.0,0.0,0.0,0.0,0.0,0.0,0.0,0.0,0.0,0.0,0.0,0.0,0.0,0.0,0.0,0.0,0.0,0.0,0.0,0.0,0.0,0.0,0.0,0.0,0.0,0.0,0.0,0.0,0.0,0.0,0.0,0.0,0.0,0.0,0.0,0.0,0.0,0.0,0.0,0.0,0.0,0.0,0.0,0.0,0.0,0.0,0.0,0.0,0.0,0.0,0.0,0.0,0.0,0.0,0.0,0.0,0.0,0.0,0.0,0.0,0.0,0.0,0.0,0.0,0.0,0.0,0.0,0.0,0.0,0.0,0.0,0.0,0.0,0.0,0.0,0.0,0.0,0.0,0.0,0.0,0.0,0.0,0.0,0.0,0.0,0.0,0.0,0.0,0.0,0.0,0.0,0.0,0.0,0.0,0.0,0.0,0.0,0.0,0.0,0.0,0.0,0.0,0.0,0.0,0.0,0.0,0.0,0.0,0.0,0.0,0.0,0.0,0.0,0.0,0.0,0.0,0.0,0.0,0.0,0.0,0.0,0.0,0.0,0.0,0.0,0.0,0.0,0.0,0.0,0.0,0.0,0.0,0.0,0.0,0.0,0.0,0.0,0.0,0.0,0.0,0.0,0.0,0.0,0.0,0.0,0.0,0.0,0.0,0.0,0.0,0.0,0.0,0.0,0.0,0.0,0.0,0.0,0.0,0.0,0.0,0.0,0.0,0.0,0.0,0.0,0.0,0.0,0.0,0.0,0.0,0.0,0.0,0.0,0.0,0.0,0.0,0.0,0.0,0.0,0.0,0.0,0.0,0.0,0.0,0.0,0.0,0.0,0.0,0.0,0.0,0.0,0.0,0.0,0.0,0.0,0.0,0.0,0.0,0.0,0.0,0.0,0.0,0.0,0.0,0.0,0.0,0.0,0.0,0.0,0.0,0.0,0.0,0.0,0.0,0.0,0.0,0.0,0.0,0.0,0.0,0.0,0.0,0.0,0.0,0.0,0.0,0.0,0.0,0.0,0.0,0.0,0.0,0.0,0.0,0.0,0.0,0.0,0.0,0.0,0.0,0.0,0.0,0.0,0.0,0.0,0.0,0.0,0.0,0.0,0.0,0.0,0.0,0.0,0.0,0.0,0.0,0.0,0.0,0.0,0.0,0.0,0.0,0.0,0.0,0.0,0.0,0.0,0.0,0.0,0.0,0.0,0.0,0.0,0.0,0.0,0.0,0.0,0.0,0.0,0.0,0.0,0.0,0.0,0.0,0.0,0.0,0.0,0.0,0.0,0.0,0.0,0.0,0.0,0.0,0.0,0.0,0.0,0.0,0.0,0.0,0.0,0.0,0.0,0.0,0.0,0.0,0.0,0.0,0.0,0.0,0.0,0.0,0.0,0.0,0.0,0.0,0.0,0.0,0.0,0.0,0.0,0.0,0.0,0.0,0.0,0.0,0.0,0.0,0.0,0.0,0.0,0.0,0.0,0.0,0.0,0.0,0.0,0.0,0.0,0.0,0.0,0.0,0.0,0.0,0.0,0.0,0.0,0.0,0.0,0.0,0.0,0.0,0.0,0.0,0.0,0.0,0.0,0.0,0.0,0.0,0.0,0.0,0.0,0.0,0.0,0.0,0.0,0.0,0.0,0.0,0.0,0.0,0.0,0.0,0.0,0.0,0.0,0.0,0.0,0.0,0.0,0.0,0.0,0.0,0.0,0.0,0.0,0.0,0.0,0.0,0.0,0.0,0.0,0.0,0.0,0.0,0.0,0.0,0.0,0.0,0.0,0.0,0.0,0.0,0.0,0.0,0.0,0.0,0.0,0.0,0.0,0.0,0.0,0.0,0.0,0.0,0.0,0.0,0.0,0.0,0.0,0.0,0.0,0.0,0.0,0.0,0.0,0.0,0.0,0.0,0.0,0.0,0.0,0.0,0.0,0.0,0.0,0.0,0.0,0.0,0.0,0.0,0.0,0.0,0.0,0.0,0.0,0.0,0.0,0.0,0.0,0.0,0.0,0.0,0.0,0.0,0.0,0.0,0.0,0.0,0.0,0.0,0.0,0.0,0.0,0.0,0.0,0.0,0.0,0.0,0.0,0.0,0.0,0.0,0.0,0.0,0.0,0.0,0.0,0.0,0.0,0.0,0.0,0.0,0.0,0.0,0.0,0.0,0.0,0.0,0.0,0.0,0.0,0.0,0.0,0.0,0.0,0.0,0.0,0.0,0.0,0.0,0.0,0.0,0.0,0.0,0.0,0.0,0.0,0.0,0.0,0.0,0.0,0.0,0.0,0.0,0.0,0.0,0.0,0.0,0.0,0.0,0.0,0.0,0.0,0.0,0.0,0.0,0.0,0.0,0.0,0.0,0.0,0.0,0.0,0.0,0.0,0.0,0.0,0.0,0.0,0.0,0.0,0.0,0.0,0.0,0.0,0.0,0.0,0.0,0.0,0.0,0.0,0.0,0.0,0.0,0.0,0.0,0.0,0.0,0.0,0.0,0.0,0.0,0.0,0.0,0.0,0.0,0.0,0.0,0.0,0.0,0.0,0.0,0.0,0.0,0.0,0.0,0.0,0.0,0.0,0.0,0.0,0.0,0.0,0.0,0.0,0.0,0.0,0.0,0.0,0.0,0.0,0.0,0.0,0.0,0.0,0.0,0.0,0.0,0.0,0.0,0.0,0.0,0.0,0.0,0.0,0.0,0.0,0.0,0.0,0.0,0.0,0.0,0.0,0.0,0.0,0.0,0.0,0.0,0.0,0.0,0.0,0.0,0.0,0.0,0.0,0.0,0.0,0.0,0.0,0.0,0.0,0.0,0.0,0.0,0.0,0.0,0.0,0.0,0.0,0.0,0.0,0.0,0.0,0.0,0.0,0.0,0.0,0.0,0.0,0.0,0.0,0.0,0.0,0.0,0.0,0.0,0.0,0.0,0.0,0.0,0.0,0.0,0.0,0.0,0.0,0.0,0.0,0.0,0.0,0.0,0.0,0.0,0.0,0.0,0.0,0.0,0.0,0.0,0.0,0.0,0.0,0.0,0.0,0.0,0.0,0.0,0.0,0.0,0.0,0.0,0.0,0.0,0.0,0.0,0.0,0.0,0.0,0.0,0.0,0.0,0.0,0.0,0.0,0.0,0.0,0.0,0.0,0.0,0.0,0.0,0.0,0.0,0.0,0.0,0.0,0.0,0.0,0.0,0.0,0.0,0.0,0.0,0.0,0.0,0.0,0.0,0.0,0.0,0.0,0.0,0.0,0.0,0.0,0.0,0.0,0.0,0.0,0.0,0.0,0.0,0.0,0.0,0.0,0.0,0.0,0.0,0.0,0.0,0.0,0.0,0.0,0.0,0.0,0.0,0.0,0.0,0.0,0.0,0.0,0.0,0.0,0.0,0.0,0.0,0.0,0.0,0.0,0.0,0.0,0.0,0.0,0.0,0.0,0.0,0.0,0.0,0.0,0.0,0.0,0.0,0.0,0.0,0.0,0.0,0.0,0.0,0.0,0.0,0.0,0.0,0.0,0.0,0.0,0.0,0.0,0.0,0.0,0.0,0.0,0.0,0.0,0.0,0.0,0.0,0.0,0.0,0.0,0.0,0.0,0.0,0.0,0.0,0.0,0.0,0.0,0.0,0.0,0.0,0.0,0.0,0.0,0.0,0.0,0.0,0.0,0.0,0.0,0.0,0.0,0.0,0.0,0.0,0.0,0.0,0.0,0.0,0.0,0.0,0.0,0.0,0.0,0.0,0.0,0.0,0.0,0.0,0.0,0.0,0.0,0.0,0.0,0.7583,0.0,0.0,0.0,0.0,0.0,0.0,0.0,0.0,0.0,0.0,0.0,0.0,0.0,0.0,0.0,0.0,0.0,0.0,0.0,0.0,0.0,0.0,0.0,0.0,0.0,0.0,0.0,0.0,0.0,0.0,0.0,0.0,0.0,0.0,0.0,0.0,0.0,0.0,0.0,0.0,0.0,0.0,0.0,0.0,0.0,0.0,0.0,0.0,0.0,0.0,0.0,0.0,0.0,0.0,0.0,0.0,0.0,0.0,0.0,0.0,0.0,0.0,0.0,0.0,0.0,0.0,0.0,0.0,0.0,0.0,0.0,0.0,0.0,0.0,0.0,0.0,0.0,0.0,0.0,0.0,0.0,0.0,0.0,0.0,0.0,0.0,0.0,0.0,0.0,0.0,0.0,0.0,0.0,0.0,0.0,0.0,0.0,0.0,0.0,0.0,0.0,0.0,0.0,0.0,0.0,0.0,0.0,0.0,0.0,0.0,0.9311,0.9282,0.8517,0.8098,0.7955,0.0,0.0,0.0,0.0,0.0,0.0,0.0,0.0,0.0,0.0,0.0,0.0,0.0,0.0,0.0,0.0,0.0,0.0,0.0,0.0,0.0,0.0,0.0,0.0,0.0,0.0,0.0,0.0,0.0,0.0,0.0,0.0,0.0,0.0,0.0,0.0,0.0,0.0,0.0,0.0,0.0,0.0,0.0,0.0,0.0,0.0,0.0,0.0,0.0,0.0,0.0,0.0,0.0,0.0,0.0,0.0,0.0,0.0,0.0,0.0,0.0,0.0,0.0,0.0,0.0,0.0,0.0,0.0,0.0,0.0,0.0,0.0,0.0,0.0,0.0,0.0,0.0,0.0,0.0,0.0,0.0,0.0,0.0,0.0,0.0,0.0,0.0,0.0,0.0,0.0,0.0,0.0,0.0,0.0,0.0,0.0,0.0,0.0,0.0,0.0,0.0,0.0,0.0,0.0,0.0,0.0,0.0,0.0,0.0,0.0,0.0,0.0,0.8925,0.8566,0.8233,0.0,0.0,0.0,0.0,0.0,0.0,0.0,0.0,0.0,0.0,0.0,0.0,0.0,0.0,0.0,0.0,0.0,0.0,0.0,0.0,0.0,0.0,0.0,0.0,0.0,0.0,0.0,0.0,0.0,0.0,0.0,0.0,0.0,0.0,0.0,0.0,0.0,0.0,0.0,0.0,0.0,0.0,0.0,0.0,0.0,0.0,0.0,0.0,0.0,0.0,0.0,0.0,0.0,0.0,0.0,0.0,0.0,0.0,0.0,0.0,0.0,0.0,0.0,0.0,0.0,0.0,0.0,0.0,0.0,0.0,0.0,0.0,0.0,0.0,0.0,0.0,0.0,0.0,0.0,0.0,0.0,0.0,0.0,0.0,0.0,0.0,0.0,0.0,0.0,0.0,0.0,0.0,0.0,0.0,0.0,0.0,0.0,0.0,0.0,0.0,0.0,0.0,0.0,0.0,0.0,0.0,0.0,0.0,0.0,0.0,0.9311,0.9296,0.9523,0.0,0.8013,0.0,0.0,0.0,0.0,0.0,0.0,0.0,0.0,0.0,0.0,0.0,0.0,0.0,0.0,0.0,0.0,0.0,0.0,0.0,0.0,0.0,0.0,0.0,0.0,0.0,0.0,0.0,0.0,0.0,0.0,0.0,0.0,0.0,0.0,0.0,0.0,0.0,0.0,0.0,0.0,0.0,0.0,0.0,0.0,0.0,0.0,0.0,0.0,0.0,0.0,0.0,0.0,0.0,0.0,0.0,0.0,0.0,0.0,0.0,0.0,0.0,0.0,0.0,0.0,0.0,0.0,0.0,0.0,0.0,0.0,0.0,0.0,0.0,0.0,0.0,0.0,0.0,0.0,0.0,0.0,0.0,0.0,0.0,0.0,0.0,0.0,0.0,0.0,0.0,0.0,0.0,0.0,0.0,0.0,0.0,0.0,0.0,0.0,0.0,0.0,0.0,0.0,0.0,0.0,0.0,0.0,0.0,0.0,0.0,0.0,0.0,0.9653,0.9414,0.8984,0.0,0.0,0.0,0.0,0.0,0.0,0.0,0.0,0.0,0.0,0.0,0.0,0.0,0.0,0.0,0.0,0.0,0.0,0.0,0.0,0.0,0.0,0.0,0.0,0.0,0.0,0.0,0.0,0.0,0.0,0.0,0.0,0.0,0.0,0.0,0.0,0.0,0.0,0.0,0.0,0.0,0.0,0.0,0.0,0.0,0.0,0.0,0.0,0.0,0.0,0.0,0.0,0.0,0.0,0.0,0.0,0.0,0.0,0.0,0.0,0.0,0.0,0.0,0.0,0.0,0.0,0.0,0.0,0.0,0.0,0.0,0.0,0.0,0.0,0.0,0.0,0.0,0.0,0.0,0.0,0.0,0.0,0.0,0.0,0.0,0.0,0.0,0.0,0.0,0.0,0.0,0.0,0.0,0.0,0.0,0.0,0.0,0.0,0.0,0.0,0.0,0.0,0.0,0.0,0.0,0.0,0.0,0.0,0.0,0.0,0.9346,0.0,0.9998,0.9408,0.8818,0.8271,0.0,0.0,0.0,0.0,0.0,0.0,0.0,0.0,0.0,0.0,0.0,0.0,0.0,0.0,0.0,0.0,0.0,0.0,0.0,0.0,0.0,0.0,0.0,0.0,0.0,0.0,0.0,0.0,0.0,0.0,0.0,0.0,0.0,0.0,0.0,0.0,0.0,0.0,0.0,0.0,0.0,0.0,0.0,0.0,0.0,0.0,0.0,0.0,0.0,0.0,0.0,0.0,0.0,0.0,0.0,0.0,0.0,0.0,0.0,0.0,0.0,0.0,0.0,0.0,0.0,0.0,0.0,0.0,0.0,0.0,0.0,0.0,0.0,0.0,0.0,0.0,0.0,0.0,0.0,0.0,0.0,0.0,0.0,0.0,0.0,0.0,0.0,0.0,0.0,0.0,0.0,0.0,0.0,0.0,0.0,0.0,0.0,0.0,0.0,0.0,0.0,0.0,0.0,0.0,0.0,0.0,0.0,0.0,0.0,0.9459,1.0041,1.034,0.9787,0.8815,0.0,0.0,0.0,0.0,0.0,0.0,0.0,0.0,0.0,0.0,0.0,0.0,0.0,0.0,0.0,0.0,0.0,0.0,0.0,0.0,0.0,0.0,0.0,0.0,0.0,0.0,0.0,0.0,0.0,0.0,0.0,0.0,0.0,0.0,0.0,0.0,0.0,0.0,0.0,0.0,0.0,0.0,0.0,0.0,0.0,0.0,0.0,0.0,0.0,0.0,0.0,0.0,0.0,0.0,0.0,0.0,0.0,0.0,0.0,0.0,0.0,0.0,0.0,0.0,0.0,0.0,0.0,0.0,0.0,0.0,0.0,0.0,0.0,0.0,0.0,0.0,0.0,0.0,0.0,0.0,0.0,0.0,0.0,0.0,0.0,0.0,0.0,0.0,0.0,0.0,0.0,0.0,0.0,0.0,0.0,0.0,0.0,0.0,0.0,0.0,0.0,0.0,0.0,0.0,0.0,0.0,0.0,0.0,0.0,0.9437,1.0242,1.0596,1.0407,0.9779,0.8915,0.0,0.0,0.0,0.0,0.0,0.0,0.0,0.0,0.0,0.0,0.0,0.0,0.0,0.0,0.0,0.0,0.0,0.0,0.0,0.0,0.0,0.0,0.0,0.0,0.0,0.0,0.0,0.0,0.0,0.0,0.0,0.0,0.0,0.0,0.0,0.0,0.0,0.0,0.0,0.0,0.0,0.0,0.0,0.0,0.0,0.0,0.0,0.0,0.0,0.0,0.0,0.0,0.0,0.0,0.0,0.0,0.0,0.0,0.0,0.0,0.0,0.0,0.0,0.0,0.0,0.0,0.0,0.0,0.0,0.0,0.0,0.0,0.0,0.0,0.0,0.0,0.0,0.0,0.0,0.0,0.0,0.0,0.0,0.0,0.0,0.0,0.0,0.0,0.0,0.0,0.0,0.0,0.0,0.0,0.0,0.0,0.0,0.0,0.0,0.0,0.0,0.0,0.0,0.0,0.0,0.0,0.0,0.0,0.0,0.9828,0.0,1.0686,0.0,0.9728,0.8915,0.0,0.0,0.0,0.0,0.0,0.0,0.0,0.0,0.0,0.0,0.0,0.0,0.0,0.0,0.0,0.0,0.0,0.0,0.0,0.0,0.0,0.0,0.0,0.0,0.0,0.0,0.0,0.0,0.0,0.0,0.0,0.0,0.0,0.0,0.0,0.0,0.0,0.0,0.0,0.0,0.0,0.0,0.0,0.0,0.0,0.0,0.0,0.0,0.0,0.0,0.0,0.0,0.0,0.0,0.0,0.0,0.0,0.0,0.0,0.0,0.0,0.0,0.0,0.0,0.0,0.0,0.0,0.0,0.0,0.0,0.0,0.0,0.0,0.0,0.0,0.0,0.0,0.0,0.0,0.0,0.0,0.0,0.0,0.0,0.0,0.0,0.0,0.0,0.0,0.0,0.0,0.0,0.0,0.0,0.0,0.0,0.0,0.0,0.0,0.0,0.0,0.0,0.0,0.0,0.0,0.0,0.0,0.0,0.0,0.9692,1.0136,1.0362,1.022,0.9735,0.88,0.0,0.0,0.0,0.0,0.0,0.0,0.0,0.0,0.0,0.0,0.0,0.0,0.0,0.0,0.0,0.0,0.0,0.0,0.0,0.0,0.0,0.0,0.0,0.0,0.0,0.0,0.0,0.0,0.0,0.0,0.0,0.0,0.0,0.0,0.0,0.0,0.0,0.0,0.0,0.0,0.0,0.0,0.0,0.0,0.0,0.0,0.0,0.0,0.0,0.0,0.0,0.0,0.0,0.0,0.0,0.0,0.0,0.0,0.0,0.0,0.0,0.0,0.0,0.0,0.0,0.0,0.0,0.0,0.0,0.0,0.0,0.0,0.0,0.0,0.0,0.0,0.0,0.0,0.0,0.0,0.0,0.0,0.0,0.0,0.0,0.0,0.0,0.0,0.0,0.0,0.0,0.0,0.0,0.0,0.0,0.0,0.0,0.0,0.0,0.0,0.0,0.0,0.0,0.0,0.0,0.0,0.0,0.0,0.0,1.0115,1.0839,1.1041,1.0704,1.0222,0.9315,0.0,0.0,0.0,0.0,0.0,0.0,0.0,0.0,0.0,0.0,0.0,0.0,0.0,0.0,0.0,0.0,0.0,0.0,0.0,0.0,0.0,0.0,0.0,0.0,0.0,0.0,0.0,0.0,0.0,0.0,0.0,0.0,0.0,0.0,0.0,0.0,0.0,0.0,0.0,0.0,0.0,0.0,0.0,0.0,0.0,0.0,0.0,0.0,0.0,0.0,0.0,0.0,0.0,0.0,0.0,0.0,0.0,0.0,0.0,0.0,0.0,0.0,0.0,0.0,0.0,0.0,0.0,0.0,0.0,0.0,0.0,0.0,0.0,0.0,0.0,0.0,0.0,0.0,0.0,0.0,0.0,0.0,0.0,0.0,0.0,0.0,0.0,0.0,0.0,0.0,0.0,0.0,0.0,0.0,0.0,0.0,0.0,0.0,0.0,0.0,0.0,0.0,0.0,0.0,0.0,0.0,0.0,0.0,0.0,1.1279,1.1789,1.1944,1.1654,1.1065,1.0102,0.8756,0.0,0.0,0.0,0.0,0.0,0.0,0.0,0.0,0.0,0.0,0.0,0.0,0.0,0.0,0.0,0.0,0.0,0.0,0.0,0.0,0.0,0.0,0.0,0.0,0.0,0.0,0.0,0.0,0.0,0.0,0.0,0.0,0.0,0.0,0.0,0.0,0.0,0.0,0.0,0.0,0.0,0.0,0.0,0.0,0.0,0.0,0.0,0.0,0.0,0.0,0.0,0.0,0.0,0.0,0.0,0.0,0.0,0.0,0.0,0.0,0.0,0.0,0.0,0.0,0.0,0.0,0.0,0.0,0.0,0.0,0.0,0.0,0.0,0.0,0.0,0.0,0.0,0.0,0.0,0.0,0.0,0.0,0.0,0.0,0.0,0.0,0.0,0.0,0.0,0.0,0.0,0.0,0.0,0.0,0.0,0.0,0.0,0.0,0.0,0.0,0.0,0.0,0.0,0.0,0.0,0.0,0.0,0.0,1.2986,1.3071,1.306,1.2904,1.212,1.1022,0.0,0.0,0.0,0.0,0.0,0.0,0.0,0.0,0.0,0.0,0.0,0.0,0.0,0.0,0.0,0.0,0.0,0.0,0.0,0.0,0.0,0.0,0.0,0.0,0.0,0.0,0.0,0.0,0.0,0.0,0.0,0.0,0.0,0.0,0.0,0.0,0.0,0.0,0.0,0.0,0.0,0.0,0.0,0.0,0.0,0.0,0.0,0.0,0.0,0.0,0.0,0.0,0.0,0.0,0.0,0.0,0.0,0.0,0.0,0.0,0.0,0.0,0.0,0.0,0.0,0.0,0.0,0.0,0.0,0.0,0.0,0.0,0.0,0.0,0.0,0.0,0.0,0.0,0.0,0.0,0.0,0.0,0.0,0.0,0.0,0.0,0.0,0.0,0.0,0.0,0.0,0.0,0.0,0.0,0.0,0.0,0.0,0.0,0.0,0.0,0.0,0.0,0.0,0.0,0.0,0.0,0.0,0.0,0.0,1.4407,1.5132,1.4821,1.3452,1.2864,1.1923,0.0,0.0,0.0,0.0,0.0,0.0,0.0,0.0,0.0,0.0,0.0,0.0,0.0,0.0,0.0,0.0,0.0,0.0,0.0,0.0,0.0,0.0,0.0,0.0,0.0,0.0,0.0,0.0,0.0,0.0,0.0,0.0,0.0,0.0,0.0,0.0,0.0,0.0,0.0,0.0,0.0,0.0,0.0,0.0,0.0,0.0,0.0,0.0,0.0,0.0,0.0,0.0,0.0,0.0,0.0,0.0,0.0,0.0,0.0,0.0,0.0,0.0,0.0,0.0,0.0,0.0,0.0,0.0,0.0,0.0,0.0,0.0,0.0,0.0,0.0,0.0,0.0,0.0,0.0,0.0,0.0,0.0,0.0,0.0,0.0,0.0,0.0,0.0,0.0,0.0,0.0,0.0,0.0,0.0,0.0,0.0,0.0,0.0,0.0,0.0,0.0,0.0,0.0,0.0,0.0,0.0,0.0,0.0,1.413,1.5559,1.6477,1.6318,1.5077,1.4217,1.3062,0.0,0.0,0.0,0.0,0.0,0.0,0.0,0.0,0.0,0.0,0.0,0.0,0.0,0.0,0.0,0.0,0.0,0.0,0.0,0.0,0.0,0.0,0.0,0.0,0.0,0.0,0.0,0.0,0.0,0.0,0.0,0.0,0.0,0.0,0.0,0.0,0.0,0.0,0.0,0.0,0.0,0.0,0.0,0.0,0.0,0.0,0.0,0.0,0.0,0.0,0.0,0.0,0.0,0.0,0.0,0.0,0.0,0.0,0.0,0.0,0.0,0.0,0.0,0.0,0.0,0.0,0.0,0.0,0.0,0.0,0.0,0.0,0.0,0.0,0.0,0.0,0.0,0.0,0.0,0.0,0.0,0.0,0.0,0.0,0.0,0.0,0.0,0.0,0.0,0.0,0.0,0.0,0.0,0.0,0.0,0.0,0.0,0.0,0.0,0.0,0.0,0.0,0.0,0.0,0.0,0.0,0.0,0.0,1.5497,1.645,1.7311,1.7585,1.713,1.5842,1.4295,0.0,0.0,0.0,0.0,0.0,0.0,0.0,0.0,0.0,0.0,0.0,0.0,0.0,0.0,0.0,0.0,0.0,0.0,0.0,0.0,0.0,0.0,0.0,0.0,0.0,0.0,0.0,0.0,0.0,0.0,0.0,0.0,0.0,0.0,0.0,0.0,0.0,0.0,0.0,0.0,0.0,0.0,0.0,0.0,0.0,0.0,0.0,0.0,0.0,0.0,0.0,0.0,0.0,0.0,0.0,0.0,0.0,0.0,0.0,0.0,0.0,0.0,0.0,0.0,0.0,0.0,0.0,0.0,0.0,0.0,0.0,0.0,0.0,0.0,0.0,0.0,0.0,0.0,0.0,0.0,0.0,0.0,0.0,0.0,0.0,0.0,0.0,0.0,0.0,0.0,0.0,0.0,0.0,0.0,0.0,0.0,0.0,0.0,0.0,0.0,0.0,0.0,0.0,0.0,0.0,0.0,0.0,0.0,1.5594,1.6841,1.7781,1.8211,1.8092,1.6788,1.5222,0.0,0.0,0.0,0.0,0.0,0.0,0.0,0.0,0.0,0.0,0.0,0.0,0.0,0.0,0.0,0.0,0.0,0.0,0.0,0.0,0.0,0.0,0.0,0.0,0.0,0.0,0.0,0.0,0.0,0.0,0.0,0.0,0.0,0.0,0.0,0.0,0.0,0.0,0.0,0.0,0.0,0.0,0.0,0.0,0.0,0.0,0.0,0.0,1.3129,0.0,0.0,0.0,0.0,0.0,0.0,0.0,0.0,0.0,0.0,0.0,0.0,0.0,0.0,0.0,0.0,0.0,0.0,0.0,0.0,0.0,0.0,0.0,0.0,0.0,0.0,0.0,0.0,0.0,0.0,0.0,0.0,0.0,0.0,0.0,0.0,0.0,0.0,0.0,0.0,0.0,0.0,0.0,0.0,0.0,0.0,0.0,0.0,0.0,0.0,0.0,0.0,0.0,0.0,0.0,0.0,0.0,0.0,0.0,1.6312,1.7621,1.8356,1.8676,1.8557,1.7487,1.593,0.0,0.0,0.0,0.0,0.0,0.0,0.0,0.0,0.0,0.0,0.0,0.0,0.0,0.0,0.0,0.0,0.0,0.0,0.0,0.0,0.0,0.0,0.0,0.0,0.0,0.0,0.0,0.0,0.0,0.0,0.0,0.0,0.0,0.0,0.0,0.0,0.0,0.0,0.0,0.0,0.0,0.0,0.0,0.0,0.0,0.0,0.0,0.0,0.0,0.0,0.0,0.0,0.0,0.0,0.0,0.0,0.0,0.0,0.0,0.0,0.0,0.0,0.0,0.0,0.0,0.0,0.0,0.0,0.0,0.0,0.0,0.0,0.0,0.0,0.0,0.0,0.0,0.0,0.0,0.0,0.0,0.0,0.0,0.0,0.0,0.0,0.0,0.0,0.0,0.0,0.0,0.0,0.0,0.0,0.0,0.0,0.0,0.0,0.0,0.0,0.0,0.0,0.0,0.0,0.0,0.0,0.0,1.5684,1.7051,1.8356,1.887,1.8981,1.8798,1.7879,1.6369,0.0,0.0,0.0,0.0,0.0,0.0,0.0,0.0,0.0,0.0,0.0,0.0,0.0,0.0,0.0,0.0,0.0,0.0,0.0,0.0,0.0,0.0,0.0,0.0,0.0,0.0,0.0,0.0,0.0,0.0,0.0,0.0,0.0,0.0,0.0,0.0,0.0,0.0,0.0,1.1468,1.3094,0.0,0.0,0.0,0.0,0.0,0.0,0.0,0.0,1.4046,0.0,0.0,0.0,0.0,0.0,0.0,0.0,0.0,0.0,0.0,0.0,0.0,0.0,0.0,0.0,0.0,0.0,0.0,0.0,0.0,0.0,0.0,0.0,0.0,0.0,0.0,0.0,0.0,0.0,0.0,0.0,0.0,0.0,0.0,0.0,0.0,0.0,0.0,0.0,0.0,0.0,0.0,0.0,0.0,0.0,0.0,0.0,0.0,0.0,0.0,0.0,0.0,0.0,0.0,0.0,0.0,1.427,1.567,1.7051,1.8356,1.887,1.8981,1.8777,1.7479,1.5997,1.4406,0.0,0.0,0.0,0.0,0.0,0.0,0.0,0.0,0.0,0.0,0.0,0.0,0.0,0.0,0.0,0.0,0.0,0.0,0.0,0.0,0.0,0.0,0.0,0.0,0.0,0.0,0.0,0.0,0.0,0.0,0.0,0.0,0.0,0.0,0.0,0.0,0.0,0.0,0.0,1.4513,1.5309,0.0,0.0,0.0,0.0,0.0,0.0,0.0,0.0,1.5406,0.0,0.0,0.0,0.0,0.0,0.0,0.0,0.0,0.0,0.0,0.0,0.0,0.0,0.0,0.0,0.0,0.0,0.0,0.0,0.0,0.0,0.0,0.0,0.0,0.0,0.0,0.0,0.0,0.0,0.0,0.0,0.0,0.0,0.0,0.0,0.0,0.0,0.0,0.0,0.0,0.0,0.0,0.0,0.0,0.0,0.0,0.0,0.0,0.0,0.0,0.0,0.0,0.0,0.0,0.0,1.4593,1.6008,1.7367,1.8725,1.8978,1.8874,1.8451,1.7245,1.5785,0.0,0.0,0.0,0.0,0.0,0.0,0.0,0.0,0.0,0.0,0.0,0.0,0.0,0.0,0.0,0.0,0.0,0.0,0.0,0.0,0.0,0.0,0.0,0.0,0.0,0.0,0.0,0.0,0.0,0.0,0.0,0.0,0.0,0.0,0.0,0.0,0.0,0.0,0.0,0.0,1.6242,1.6991,1.6539,0.0,0.0,0.0,0.0,0.0,0.0,1.6779,1.6604,0.0,0.0,0.0,0.0,0.0,0.0,0.0,0.0,0.0,0.0,0.0,0.0,0.0,0.0,0.0,0.0,0.0,0.0,0.0,0.0,0.0,0.0,0.0,0.0,0.0,0.0,0.0,0.0,0.0,0.0,0.0,0.0,0.0,0.0,0.0,0.0,0.0,0.0,0.0,0.0,0.0,0.0,0.0,0.0,0.0,0.0,0.0,0.0,0.0,0.0,0.0,0.0,0.0,0.0,0.0,1.4945,1.6324,1.7683,1.9036,1.9098,1.8775,1.8076,1.7027,1.5564,0.0,0.0,0.0,0.0,0.0,0.0,0.0,0.0,0.0,0.0,0.0,0.0,0.0,0.0,0.0,0.0,0.0,0.0,0.0,0.0,0.0,0.0,0.0,0.0,0.0,0.0,0.0,0.0,0.0,0.0,0.0,0.0,0.0,0.0,0.0,0.0,0.0,0.0,0.0,0.0,0.0,1.8577,1.8108,1.8344,0.0,0.0,0.0,0.0,1.7959,1.8386,0.0,0.0,0.0,0.0,0.0,0.0,0.0,0.0,0.0,0.0,0.0,0.0,0.0,0.0,0.0,0.0,0.0,0.0,0.0,0.0,0.0,0.0,0.0,0.0,0.0,0.0,0.0,0.0,0.0,0.0,0.0,0.0,0.0,0.0,0.0,0.0,0.0,0.0,0.0,0.0,0.0,0.0,0.0,0.0,0.0,0.0,0.0,0.0,0.0,0.0,0.0,0.0,0.0,0.0,0.0,0.0,1.4958,1.6324,1.7668,1.9015,1.9098,1.8722,1.7946,1.6714,1.5094,0.0,0.0,0.0,0.0,0.0,0.0,0.0,0.0,0.0,0.0,0.0,0.0,0.0,0.0,0.0,0.0,0.0,0.0,0.0,0.0,0.0,0.0,0.0,0.0,0.0,0.0,0.0,0.0,0.0,0.0,0.0,0.0,0.0,0.0,0.0,0.0,0.0,0.0,0.0,0.0,0.0,1.9343,1.9757,1.9493,1.9343,0.0,0.0,0.0,2.0935,2.1628,0.0,0.0,0.0,0.0,0.0,0.0,0.0,0.0,0.0,0.0,0.0,0.0,0.0,0.0,0.0,0.0,0.0,0.0,0.0,0.0,0.0,0.0,0.0,0.0,0.0,0.0,0.0,0.0,0.0,0.0,0.0,0.0,0.0,0.0,0.0,0.0,0.0,0.0,0.0,0.0,0.0,0.0,0.0,0.0,0.0,0.0,0.0,0.0,0.0,0.0,0.0,0.0,0.0,0.0,0.0,1.2969,1.4979,1.6572,1.7952,1.9056,1.9098,1.8652,1.7714,1.6576,1.5069,0.0,0.0,0.0,0.0,0.0,0.0,0.0,0.0,0.0,0.0,0.0,0.0,0.0,0.0,0.0,0.0,0.0,0.0,0.0,0.0,0.0,0.0,0.0,0.0,0.0,0.0,0.0,0.0,0.0,0.0,0.0,0.0,0.0,0.0,0.0,0.0,0.0,0.0,0.0,0.0,0.0,0.0,2.0944,2.1521,0.0,0.0,0.0,2.1247,2.1857,0.0,0.0,0.0,0.0,0.0,0.0,0.0,0.0,0.0,0.0,0.0,0.0,0.0,0.0,0.0,0.0,0.0,0.0,0.0,0.0,0.0,0.0,0.0,0.0,0.0,0.0,0.0,0.0,0.0,0.0,0.0,0.0,0.0,0.0,0.0,0.0,0.0,0.0,0.0,0.0,0.0,0.0,0.0,0.0,0.0,0.0,0.0,0.0,0.0,0.0,0.0,0.0,0.0,0.0,0.0,0.0,0.0,1.4987,1.6794,1.8159,1.9056,1.9098,1.8602,1.7523,1.6564,0.0,0.0,0.0,0.0,0.0,0.0,0.0,0.0,0.0,0.0,0.0,0.0,0.0,0.0,0.0,0.0,0.0,0.0,0.0,0.0,0.0,0.0,0.0,0.0,0.0,0.0,0.0,0.0,0.0,0.0,0.0,0.0,0.0,0.0,0.0,0.0,0.0,0.0,0.0,0.0,0.0,0.0,2.2366,2.2399,2.3508,2.4184,0.0,0.0,2.2983,2.3087,2.4052,2.4123,0.0,0.0,0.0,0.0,0.0,0.0,0.0,0.0,0.0,0.0,0.0,0.0,0.0,0.0,0.0,0.0,0.0,0.0,0.0,0.0,0.0,0.0,0.0,0.0,0.0,0.0,0.0,0.0,0.0,0.0,0.0,0.0,0.0,0.0,0.0,0.0,0.0,0.0,0.0,0.0,0.0,0.0,0.0,0.0,0.0,0.0,0.0,0.0,0.0,0.0,0.0,0.0,0.0,0.0,0.0,1.4987,1.6794,1.8159,1.9056,1.9098,1.8581,1.7538,1.6658,1.5023,0.0,0.0,0.0,0.0,0.0,0.0,0.0,0.0,0.0,0.0,0.0,0.0,0.0,0.0,0.0,0.0,0.0,0.0,0.0,0.0,0.0,0.0,0.0,0.0,0.0,0.0,0.0,0.0,0.0,0.0,0.0,0.0,0.0,0.0,0.0,0.0,0.0,0.0,0.0,0.0,0.0,2.3268,2.4425,2.5091,2.554,0.0,0.0,2.6,2.5677,2.7704,2.8225,2.4888,0.0,0.0,0.0,0.0,0.0,0.0,0.0,0.0,0.0,0.0,0.0,0.0,0.0,0.0,0.0,0.0,0.0,0.0,0.0,0.0,0.0,0.0,0.0,0.0,0.0,0.0,0.0,0.0,0.0,0.0,0.0,0.0,0.0,0.0,0.0,0.0,0.0,0.0,0.0,0.0,0.0,0.0,0.0,0.0,0.0,0.0,0.0,0.0,0.0,0.0,0.0,0.0,0.0,1.3333,1.5414,1.6924,1.8159,1.9056,1.9098,1.866,1.7752,1.6971,1.5624,0.0,0.0,0.0,0.0,0.0,0.0,0.0,0.0,0.0,0.0,0.0,0.0,0.0,0.0,0.0,0.0,0.0,0.0,0.0,0.0,0.0,0.0,0.0,0.0,0.0,0.0,0.0,0.0,1.4017,1.4409,1.476,0.0,0.0,0.0,0.0,0.0,0.0,0.0,0.0,0.0,0.0,2.3868,2.5011,2.5596,0.0,0.0,2.5678,2.5271,2.582,2.6599,2.6714,2.5473,2.5019,0.0,0.0,0.0,0.0,0.0,0.0,0.0,0.0,0.0,0.0,0.0,0.0,0.0,0.0,0.0,0.0,0.0,0.0,0.0,0.0,0.0,0.0,0.0,0.0,0.0,0.0,0.0,0.0,0.0,0.0,0.0,0.0,0.0,0.0,0.0,0.0,0.0,0.0,0.0,0.0,0.0,0.0,0.0,0.0,0.0,0.0,0.0,0.0,0.0,0.0,0.0,0.0,1.3686,1.5684,1.716,1.8315,1.9081,1.9098,1.8722,1.7979,1.7374,1.6281,0.0,0.0,0.0,0.0,0.0,0.0,0.0,0.0,0.0,0.0,0.0,0.0,0.0,0.0,0.0,0.0,0.0,0.0,0.0,0.0,0.0,0.0,0.0,0.0,0.0,0.0,0.0,0.0,1.5015,1.5033,1.5292,0.0,0.0,0.0,0.0,0.0,0.0,0.0,0.0,0.0,0.0,2.4757,2.5673,2.6223,2.6577,2.6754,2.5848,2.5333,2.5965,2.6305,2.6417,2.6288,0.0,0.0,0.0,0.0,0.0,0.0,0.0,0.0,0.0,0.0,0.0,0.0,0.0,0.0,0.0,0.0,0.0,0.0,0.0,0.0,0.0,0.0,0.0,0.0,0.0,0.0,0.0,0.0,0.0,0.0,0.8191,0.0,0.0,0.0,0.0,0.0,0.0,0.0,0.0,0.0,0.0,0.0,0.0,0.0,0.0,0.0,0.0,0.0,0.0,0.0,0.0,0.0,0.0,0.0,1.5691,1.7486,1.8625,1.9098,1.9098,1.8792,1.8128,1.7821,1.6943,1.5299,0.0,0.0,0.0,0.0,0.0,0.0,0.0,0.0,0.0,0.0,0.0,0.0,0.0,0.0,0.0,0.0,0.0,0.0,0.0,0.0,0.0,0.0,0.0,0.0,0.0,0.0,1.596,1.593,1.5603,0.0,0.0,0.0,0.0,0.0,0.0,0.0,0.0,0.0,0.0,2.3915,2.6014,2.6645,2.715,2.7217,2.6627,2.684,2.6982,2.6578,2.773,2.8441,0.0,0.0,0.0,0.0,0.0,0.0,0.0,0.0,0.0,0.0,0.0,0.0,0.0,0.0,0.0,0.0,0.0,0.0,0.0,0.0,0.0,0.0,0.0,0.0,0.0,0.0,0.0,1.2147,1.1713,0.0,0.0,0.0,0.0,0.0,0.0,0.0,0.0,0.0,0.0,0.0,1.7672,1.6901,0.0,0.0,0.0,0.0,0.0,0.0,0.0,0.0,0.0,0.0,0.0,0.0,1.4581,1.6531,1.8087,1.9098,1.9554,1.9554,1.9178,1.8395,1.8225,1.7246,1.5353,0.0,0.0,0.0,0.0,0.0,0.0,0.0,0.0,0.0,0.0,0.0,0.0,0.0,0.0,0.0,0.0,0.0,0.0,0.0,0.0,0.0,0.0,0.0,0.0,0.0,1.5305,0.0,0.0,0.0,0.0,0.0,0.0,0.0,0.0,0.0,0.0,0.0,2.2102,2.3306,2.502,2.6318,2.6854,2.7181,2.7247,0.0,0.0,0.0,0.0,0.0,0.0,0.0,0.0,0.0,0.0,0.0,0.0,0.0,0.0,2.9061,2.6991,2.6784,2.6863,2.6687,0.0,0.0,0.0,0.0,0.0,0.0,0.0,0.0,0.0,0.0,0.0,0.0,0.0,0.0,0.0,0.0,1.3573,0.0,0.0,0.0,0.0,0.0,0.0,0.0,0.0,1.8016,1.8932,1.9623,1.885,1.8605,0.0,1.7275,1.5669,0.0,0.0,0.0,0.0,0.0,0.0,0.0,0.0,1.5305,1.7213,1.8609,1.9554,1.9972,2.0014,1.9648,1.8893,1.8484,1.759,1.6061,1.4975,1.3837,0.0,0.0,0.0,0.0,0.0,0.0,0.0,0.0,0.0,0.0,0.0,0.0,0.0,0.0,0.0,0.0,0.0,0.0,0.0,0.0,0.0,0.0,0.0,1.6644,0.0,0.0,0.0,0.0,0.0,0.0,0.0,0.0,0.0,2.1185,2.2654,2.4074,2.5109,2.6156,2.7026,2.7437,0.0,0.0,0.0,0.0,0.0,0.0,0.0,3.0217,3.1351,3.1978,3.2638,3.3651,3.4127,3.4565,3.5123,0.0,0.0,3.1338,3.0939,3.0999,3.0835,3.1724,3.2542,3.2744,3.3352,3.4058,0.0,0.0,0.0,0.0,0.0,0.0,0.0,0.0,1.5935,1.5814,0.0,1.6077,0.0,0.0,0.0,0.0,0.0,0.0,0.0,0.0,2.124,2.1546,2.0272,2.0516,2.0094,1.8962,1.8612,1.7972,1.698,1.4226,0.0,0.0,0.0,0.0,0.0,0.0,1.6415,1.773,1.9143,2.0034,2.0413,2.0434,2.0118,1.9506,1.8618,1.7897,1.7331,1.6599,1.5531,1.3979,1.3204,0.0,0.0,0.0,0.0,0.0,0.0,0.0,0.0,0.0,0.0,0.0,0.0,0.0,0.0,0.0,0.0,0.0,0.0,0.0,0.0,1.7753,0.0,0.0,0.0,0.0,0.0,0.0,0.0,0.0,0.0,0.0,2.3365,2.4806,2.6125,2.6625,0.0,0.0,0.0,0.0,2.857,2.883,2.9243,2.9569,2.9687,3.1065,3.2354,3.2948,0.0,0.0,3.6734,3.6883,3.7202,3.826,3.7969,3.6952,3.4847,3.4502,3.4659,3.5182,3.5365,3.5652,3.6096,3.6305,3.6541,1.8067,0.0,0.0,0.0,0.0,1.6745,1.7445,1.8505,1.8623,1.8721,1.8818,1.856,0.0,0.0,0.0,0.0,0.0,0.0,2.0413,2.084,2.2232,2.2471,2.172,2.1217,2.0696,2.008,1.8958,1.8362,1.8177,1.6573,1.5229,1.4206,0.0,0.0,0.0,0.0,1.7311,1.8688,2.0038,2.0783,2.0889,2.0928,2.0498,1.9737,1.9315,1.8736,1.7981,1.7518,1.6867,1.5971,1.4617,0.0,0.0,0.0,0.0,0.0,0.0,0.0,0.0,0.0,0.0,0.0,0.0,0.0,0.0,0.0,0.0,0.0,0.0,0.0,1.7342,1.8226,1.8954,0.0,0.0,0.0,0.0,0.0,0.0,0.0,0.0,0.0,2.7354,2.7377,2.751,0.0,0.0,2.9141,2.9554,2.9796,2.9978,3.0214,0.0,0.0,0.0,3.2709,3.391,3.5495,3.6968,3.8088,3.8511,3.889,3.9369,4.0045,4.0041,3.9753,3.9348,3.8246,3.7586,3.7743,3.837,3.8972,3.9131,3.947,3.9965,2.0609,1.9665,1.8699,1.826,1.8243,1.8426,1.9075,2.0017,2.0101,2.0273,2.0524,2.0415,2.0147,1.9685,1.956,0.0,0.0,0.0,2.2311,2.2809,2.313,2.2969,2.2265,2.1454,2.0823,2.0325,1.9441,1.9139,1.936,1.8533,1.775,1.6967,0.0,0.0,1.607,1.7063,1.8237,1.9599,2.0596,2.1178,2.1383,2.1199,2.0762,2.0076,1.9765,1.9247,1.8463,1.8322,1.7956,1.7328,1.6253,1.4994,0.0,0.0,0.0,0.0,0.0,0.0,0.0,0.0,0.0,0.0,0.0,1.4531,0.0,0.0,0.0,0.0,1.6319,1.7278,1.9105,2.0233,0.0,0.0,0.0,0.0,0.0,0.0,0.0,2.6496,2.7429,2.8575,2.9968,2.9664,2.9332,2.9415,3.0105,3.0567,3.0507,0.0,3.1399,3.1369,3.1565,3.2145,3.3339,3.4287,3.5579,3.7668,3.8667,3.9348,3.9728,4.0058,4.044,4.0947,4.1254,4.1461,4.1638,4.0958,4.0331,4.0148,4.0618,4.1141,4.1377,4.1742,4.2083,2.2667,2.2071,2.0478,1.9719,1.96,1.9965,2.0396,2.086,2.086,2.101,2.1295,2.1829,2.1698,2.1069,2.1557,0.0,2.3271,2.3801,2.426,2.4662,2.3943,2.3084,2.2115,2.138,2.0696,2.0055,2.0038,2.0177,2.0351,2.0014,1.9827,1.9782,1.7771,1.7113,1.7848,1.834,1.9189,2.0454,2.0909,2.1364,2.1776,2.1364,2.0909,2.0395,2.0034,1.9531,1.8872,1.8998,1.8829,1.8222,1.7862,1.6717,1.4614,0.0,0.0,0.0,0.0,0.0,0.0,0.0,0.0,0.0,0.0,0.0,0.0,0.0,0.0,0.0,1.9243,0.0,2.1441,2.3295,0.0,0.0,0.0,2.7091,2.5737,2.8091,2.9649,2.9273,0.0,0.0,0.0,0.0,3.1298,3.0905,3.1726,3.211,3.1455,3.2127,3.2696,3.2636,3.269,3.3287,3.4801,3.591,3.7276,3.9164,3.9697,3.9878,4.0441,4.0568,4.0797,4.1381,4.1899,4.2264,4.2264,4.2552,4.2866,4.2343,4.2238,4.2395,4.2762,4.2892,4.2944,2.2092,2.1555,2.1576,2.1706,2.1887,2.1986,2.2416,2.3015,2.3031,2.3143,2.3319,2.3609,2.3765,2.3853,2.3979,2.4164,2.4408,2.4394,2.4177,2.3869,2.3545,2.2782,2.1678,2.1471,2.1003,2.0318,2.0301,2.0345,2.0374,2.031,2.0265,2.0206,1.971,1.9396,1.9309,1.9727,2.0248,2.093,2.1404,2.1694,2.1797,2.1675,2.122,2.0395,2.031,1.9875,1.9093,1.9065,1.9023,1.885,1.8122,1.7166,1.5953,1.437,0.0,0.0,0.0,0.0,0.0,0.0,0.0,0.0,0.0,1.8027,1.8819,0.0,2.1291,0.0,2.1659,2.284,2.4481,2.5807,0.0,0.0,2.9114,2.9584,2.9736,3.0216,3.0722,3.1238,3.1278,3.1582,3.2466,3.2155,3.1953,3.2188,3.2049,3.2303,3.3252,3.2829,3.3247,3.4922,3.4597,3.4828,3.67,3.8131,3.9032,3.9595,3.9697,4.0029,4.1003,4.1209,4.1492,4.2371,4.2683,4.2814,4.2814,4.2944,4.318,4.3389,4.3154,4.284,4.2997,4.3023,4.318,2.2229,2.2089,2.2412,2.2857,2.3345,2.3057,2.326,2.3794,2.3794,2.391,2.4157,2.4402,2.4779,2.5126,2.4814,2.4788,2.4992,2.4532,2.4137,2.3809,2.3367,2.2702,2.1852,2.1496,2.112,2.0703,2.0703,2.0827,2.1013,2.1033,2.1013,2.1013,2.1013,2.0907,2.0697,2.0703,2.0951,2.1385,2.1673,2.1799,2.1799,2.1799,2.1362,2.0434,2.0374,1.9996,1.9139,1.9098,1.9098,1.9077,1.8589,1.7926,1.7015,1.5939,1.4995,0.0,0.0,0.0,0.0,0.0,0.0,0.0,0.0,0.0,0.0,0.0,2.4002,0.0,2.4674,0.0,2.7108,2.7984,2.8939,3.0145,3.1536,3.2224,3.1801,3.2837,3.3386,3.2862,3.3059,3.3236,3.3223,3.3154,3.298,3.2771,3.2861,3.3106,3.343,3.3356,3.3914,3.5371,3.5024,3.53,3.7554,3.8921,3.9749,3.9877,4.0079,4.0539,4.1415,4.1776,4.219,4.284,4.3232,4.3389,4.3415,4.3859,4.4277,4.4513,4.4617,4.446,4.4198,4.4146,4.4356,2.2647,2.2964,2.3094,2.3538,2.4168,2.3687,2.3685,2.4011,2.4011,2.417,2.4526,2.4698,2.5136,2.5653,2.4952,2.485,2.5247,2.4451,2.4036,2.3932,2.3183,2.2635,2.2205,2.151,2.1199,2.1178,2.1178,2.1424,2.1778,2.1799,2.1799,2.1799,2.1799,2.1799,2.1778,2.1404,2.1404,2.1778,2.1799,2.1799,2.1799,2.1799,2.1383,2.0558,2.0434,2.0017,1.9243,1.9123,1.9098,1.9098,1.9098,1.8708,1.7848,1.7708,1.731,0.0,1.6647,0.0,0.0,0.0,0.0,0.0,0.0,0.0,0.0,2.5965,2.6523,2.7472,2.7698,2.8322,2.9643,3.0159,3.0645,3.1297,3.3576,3.4557,3.3298,3.5277,3.6071,3.4316,3.4747,3.4769,3.3987,3.4239,3.4071,3.3275,3.3972,3.4264,3.3339,3.4,3.4864,3.5052,3.519,3.6286,3.8043,3.9226,4.0003,4.0285,4.0769,4.1309,4.1957,4.2397,4.2839,4.3206,4.3676,4.4017,4.4095,4.4931,4.5557,4.5635,4.6003,4.6161,4.574,4.5609,4.5898,2.2684,2.2833,2.3629,2.4073,2.4232,2.4702,2.4959,2.5011,2.5035,2.5244,2.5539,2.4976,2.5303,2.6238,2.553,2.521,2.5247,2.4474,2.3768,2.3165,2.2384,2.1983,2.1881,2.1748,2.1673,2.1673,2.1673,2.1735,2.1799,2.1799,2.1799,2.1799,2.1799,2.1799,2.1778,0.0,0.0,0.0,2.1799,2.1799,2.1799,2.1799,2.1549,2.099,2.0599,0.0,1.9679,1.9305,1.9098,1.9098,1.9098,0.0,0.0,0.0,0.0,0.0,0.0,0.0,0.0,0.0,0.0,0.0,2.6404,2.7123,2.7421,2.8349,2.8969,2.9079,2.943,3.0513,3.2642,3.2979,3.3972,3.6181,3.579,3.5567,3.6064,3.5538,3.5134,3.5686,3.4725,3.4239,3.4891,3.4747,3.4463,3.4233,3.514,3.5361,3.4317,3.5129,3.6534,3.824,3.8496,3.8934,3.9854,4.0376,4.0843,4.1352,4.1715,4.2235,4.294,4.32,4.3591,4.4171,4.446,4.4695,4.5166,4.5478,4.5818,4.6238,4.6449,4.6475,4.637,4.6344,4.637,2.2759,0.0,2.339,2.3831,0.0,2.4593,2.4945,2.5306,2.5306,2.5518,2.5875,2.5588,2.5623,2.5868,2.5046,2.451,2.4118,2.3327,2.2774,2.2384,2.1987,2.1799,2.1799,2.1799,2.1799,2.1799,2.1799,2.1799,2.1799,2.1799,2.1799,2.1799,2.1799,2.1799,2.1799,2.1799,2.1799,2.1799,2.1799,2.1799,2.1799,2.1799,2.1571,2.1116,0.0,0.0,0.0,0.0,0.0,0.0,0.0,0.0,0.0,0.0,0.0,2.081,2.149,2.2497,2.3837,2.4457,2.5553,2.7387,2.8698,2.9444,2.946,3.0159,3.066,3.0818,3.1317,3.2137,3.3267,3.3929,3.4931,3.6479,3.647,3.6441,3.6514,3.5881,3.5571,3.6041,3.5822,3.574,3.6131,3.6656,3.6168,3.5156,3.6589,3.7197,3.5628,3.5988,3.7356,3.934,4.0342,4.0759,4.0905,4.1273,4.1588,4.1972,4.2466,4.3042,4.3594,4.3906,4.4247,4.4642,4.493,4.5269,4.5557,4.6027,4.6549,4.6839,4.7127,4.731,4.731,4.71,4.6996,2.3075,2.3282,2.3414,2.3862,2.4471,2.4599,2.5018,2.5571,0.0,0.0,0.0,2.592,2.5731,2.5302,2.4494,2.3772,2.3113,2.2454,2.2013,2.1799,2.1799,2.1799,2.1799,2.1799,2.1799,2.1799,2.1799,2.1799,2.1799,2.1799,2.1799,2.1818,2.1861,2.1963,2.2045,2.2045,2.2045,2.2026,2.1901,2.1799,2.1799,2.1799,2.1611,2.122,2.122,2.1033,2.0643,2.064,2.064,2.0661,2.1132,2.1451,2.1631,2.2322,2.2853,2.3148,2.3709,2.4629,2.6011,2.6116,2.6996,2.9062,3.0007,3.0618,3.0915,3.1286,3.17,3.2199,3.2877,3.3338,3.3511,3.4337,3.5172,3.572,3.6522,3.6838,3.6568,3.6286,3.6313,3.6746,3.7086,3.7429,3.7584,3.8605,3.8595,3.6848,3.8299,3.9367,3.7491,3.7351,3.8111,3.9755,4.0912,4.1677,4.1695,4.2043,4.2415,4.2648,4.3222,4.3749,4.4041,4.4487,4.4825,4.4904,4.5348,4.574,4.5949,4.6628,4.7307,4.7438,4.7858,4.8172,4.8146,4.7911,4.778,2.4109,2.4327,2.5028,2.5371,2.5524,2.6207,2.6588,2.6633,2.6171,2.5815,2.5449,2.5256,2.5287,2.544,2.4628,2.402,2.3591,2.3476,2.2862,0.0,2.1799,2.1799,2.1799,2.1799,2.1799,2.1799,2.1799,2.1799,2.1799,2.1799,2.1799,2.1859,2.2211,2.2604,2.2956,2.2998,2.2998,2.2977,2.2211,2.1799,2.1799,2.1799,2.1757,2.1695,2.1695,2.1694,2.1611,2.1611,2.1592,2.1631,2.2199,2.2398,2.2077,2.3244,2.4144,2.4636,2.5878,2.7083,2.8088,2.8551,2.912,2.9914,2.9803,2.9799,3.0145,3.1044,3.1828,3.2406,3.3298,3.4297,3.5048,3.5282,3.5881,3.6685,3.656,3.668,3.745,3.6854,3.6958,3.8556,3.7638,3.7543,3.8919,3.9869,4.0049,3.9417,3.9971,4.1262,4.0903,3.9978,3.9715,4.074,4.1463,4.1959,4.2366,4.2926,4.343,4.3948,4.4242,4.4536,4.4563,4.506,4.5452,4.5478,4.5976,4.6473,4.6889,4.715,4.7516,4.7885,4.8146,4.8224,4.825,4.8512,4.8669,2.4427,2.4566,2.5133,2.5503,2.5735,2.6058,2.6191,2.6153,2.5693,2.5651,2.5784,2.5228,2.491,2.4831,2.4456,2.3975,2.3407,2.3448,2.3104,2.2583,2.2542,2.2542,2.2563,2.2563,2.2563,2.2563,2.2563,2.2542,2.2583,2.2563,2.2563,2.2563,2.277,2.2977,2.3204,2.3184,2.3184,2.3204,2.277,2.2562,2.2563,2.2563,2.2563,2.2563,2.2563,2.2563,2.2542,2.2563,2.2542,2.2563,2.3177,2.3505,2.3434,2.4629,2.5481,2.5824,2.6706,2.7562,2.8232,2.8746,2.9259,2.9752,2.962,2.9787,3.0435,3.0931,3.156,3.237,3.3134,3.3832,3.4553,3.5905,3.6988,3.7486,3.7781,3.7981,3.7897,3.7816,3.7794,3.8195,3.8818,3.9376,3.9913,4.1193,4.1461,4.0415,4.0498,4.1261,4.278,4.1836,4.117,4.2235,4.2861,4.3153,4.3302,4.3789,4.4136,4.4314,4.4791,4.5138,4.5217,4.5689,4.6029,4.6133,4.6552,4.6967,4.7307,4.7597,4.7885,4.8094,4.8515,4.8646,4.8777,4.9169,4.9404,2.4814,2.4874,2.5368,2.5743,2.5998,2.576,2.5661,2.5585,2.512,2.5257,2.574,2.5224,2.4707,2.4305,2.4325,2.398,2.3411,2.337,2.3308,2.3225,2.3184,2.3184,2.3184,2.3184,2.3184,2.3184,2.3184,2.3184,2.3184,2.3184,2.3266,2.3329,2.337,2.3411,2.3494,2.3494,2.3494,2.3494,2.3494,2.3391,2.3205,2.3184,2.3184,2.3184,2.3287,2.3349,2.337,2.3432,2.3494,2.3536,2.42,2.4661,2.4828,2.5915,2.6628,2.6911,2.726,2.7675,2.8155,2.8637,2.9121,2.9445,2.9709,3.0125,3.0824,3.1381,3.1901,3.2653,3.3533,3.4052,3.4576,3.6667,3.8087,3.7716,3.8793,3.9076,3.8306,3.872,3.8927,3.8288,4.003,4.1293,4.1393,4.2554,4.2994,4.1642,4.095,4.1704,4.3323,4.3075,4.2995,4.3436,4.4039,4.4124,4.4064,4.4497,4.4767,4.4603,4.5262,4.5714,4.5898,4.629,4.663,4.6734,4.7153,4.7571,4.7699,4.7937,4.8277,4.8564,4.8907,4.9169,4.9509,4.9819,5.008,2.5753,2.59,2.6576,2.7027,2.688,2.61,2.5727,2.5624,2.4893,2.466,2.4893,2.5083,2.4788,2.4277,2.4406,2.422,2.3846,2.3826,2.3619,2.3266,2.3184,2.3184,2.3246,2.3205,2.3184,2.3225,2.3266,2.3267,2.3267,2.3266,2.3432,2.3784,2.3846,2.3991,2.4301,2.4363,2.4363,2.4383,2.4383,2.3991,2.3246,2.3184,2.3184,2.3184,2.3619,2.3846,2.3846,2.4177,2.4363,2.4447,2.5229,2.5742,2.585,2.6671,2.7413,2.7805,2.7893,2.8155,2.8682,2.9163,2.9447,2.9556,3.0275,3.0802,3.1074,3.2687,3.3742,3.407,3.5263,3.5754,3.5507,3.7718,3.8481,3.6804,3.8477,3.9305,3.8825,3.9634,4.0441,4.0833,4.1466,4.2332,4.2843,4.3741,4.4266,4.3669,4.3388,4.3409,4.3846,4.42,4.42,4.4229,4.4338,4.4364,4.4389,4.4971,4.5397,4.5528,4.6001,4.6342,4.6525,4.6839,4.7229,4.731,4.7649,4.8146,4.8512,4.8646,4.8594,4.9244,4.9427,4.9457,5.0289,5.0655,5.0707,2.5654,2.538,2.6113,2.6402,2.6257,2.5421,2.5041,2.4956,2.4059,2.3712,2.3842,2.4187,2.4315,2.4206,2.4401,2.4404,2.426,2.4239,2.4156,2.397,2.397,2.397,2.397,2.397,2.397,2.397,2.397,2.397,2.397,2.397,2.4074,2.4239,2.4239,2.4343,2.4487,2.4507,2.4507,2.4507,2.4507,2.4322,2.4012,2.3991,2.397,2.3991,2.4156,2.426,2.4301,2.4694,2.4921,2.4964,2.5798,2.6316,2.6316,2.7212,2.7783,2.8002,2.8309,2.8704,2.9163,2.9403,2.9729,3.0253,3.0668,3.1381,3.2687,3.3625,3.4544,3.5746,3.652,3.6621,3.619,3.8123,3.8715,3.7147,3.9116,4.0512,3.8914,4.1001,4.2148,4.1156,4.248,4.338,4.3106,4.364,4.4285,4.4422,4.4422,4.4285,4.4393,4.4872,4.5135,4.5158,4.5339,4.5418,4.5209,4.5658,4.6055,4.6212,4.6604,4.697,4.7074,4.7466,4.7832,4.7832,4.8068,4.8433,4.893,4.8986,4.9012,4.9688,5.0211,5.0342,5.1126,5.1256,5.1256,2.5084,2.4786,2.5168,2.5358,2.5358,2.4488,2.4122,2.4058,2.3387,2.3101,2.3166,2.3602,2.3905,2.41,2.4358,2.4507,2.4507,2.4507,2.4507,2.4507,2.4507,2.4507,2.4507,2.4507,2.4507,2.4507,2.4487,2.4487,2.4507,2.4507,2.4507,2.4507,2.4507,2.4507,2.4507,2.4507,2.4507,2.4507,2.4507,2.4507,2.4487,2.4507,2.4507,2.4507,2.4507,2.4549,2.4693,2.5003,2.5273,2.542,2.6283,2.6806,2.6828,2.7709,2.8221,2.8265,2.8704,2.9141,2.9491,2.9729,3.0312,3.1197,3.1221,3.2065,3.3952,3.4377,3.5354,3.7324,3.7795,3.7593,3.7005,3.8715,3.9105,3.7631,4.0281,4.1337,3.9956,4.22,4.3137,4.1673,4.3187,4.4369,4.3492,4.3766,4.4364,4.4847,4.4635,4.4684,4.5058,4.5452,4.5609,4.5818,4.6342,4.6421,4.6029,4.6342,4.6656,4.6839,4.7179,4.7571,4.7542,4.7963,4.8201,4.8041,4.825,4.8672,4.9244,4.9374,4.9535,5.0058,5.0577,5.1047,5.1439,5.157,5.1596,2.4016,2.4187,2.3972,2.4166,2.4487,2.3624,2.3188,2.3315,2.3184,2.312,2.3225,2.3662,2.3817,2.3902,2.4375,2.4507,2.4507,2.4507,2.4507,2.4507,2.4507,2.4507,2.4507,2.4507,2.4507,2.4507,2.4507,2.4507,2.4507,2.4507,2.4507,2.4507,2.4549,2.4528,2.4569,2.459,2.4528,2.4611,2.4611,2.4549,2.4549,2.4549,2.4569,2.4569,2.4528,2.4735,2.5128,2.5211,2.5418,2.5856,2.6769,2.7276,2.7364,2.8233,2.8727,2.8792,2.9185,2.9469,2.9622,3.0275,3.1221,3.212,3.1876,3.2701,3.5096,3.5162,3.6068,3.8566,3.9169,3.8979,3.8323,3.9802,4.0516,3.949,4.1004,4.1724,4.1153,4.2697,4.3425,4.3072,4.3881,4.4584,4.4558,4.4613,4.4926,4.5242,4.5033,4.5033,4.5844,4.5898,4.6003,4.6395,4.6865,4.7072,4.663,4.6917,4.7202,4.7333,4.7649,4.8068,4.812,4.8172,4.8198,4.8355,4.8777,4.9221,4.9662,5.0002,5.0241,5.0629,5.1073,5.1492,5.157,5.1596,5.1596,2.3799,2.3711,2.3319,2.3341,2.36,2.3551,2.3532,2.3594,2.3825,2.3923,2.4033,2.4461,2.4706,2.4708,2.4867,2.4776,2.4528,2.4507,2.4507,2.4507,2.4507,2.4507,2.4507,2.4507,2.4507,2.4507,2.4507,2.4507,2.4507,2.4507,2.4652,2.4922,2.4941,2.5087,2.5337,2.5399,2.5399,2.5399,2.5399,2.5399,2.5357,2.5399,2.5399,2.5378,2.5108,2.517,2.5627,2.596,2.6256,2.6583,2.7325,2.7812,2.802,2.8519,2.8814,2.8858,2.9228,2.962,2.9969,3.0537,3.1493,3.2727,3.2418,3.3273,3.5472,3.625,3.7189,3.8991,4.0185,4.0389,4.0364,4.0871,4.0696,3.9705,4.1203,4.2501,4.2323,4.3344,4.4324,4.4155,4.4505,4.4798,4.5113,4.5269,4.5374,4.5557,4.5741,4.5872,4.5976,4.6288,4.6732,4.7022,4.7492,4.7806,4.7649,4.7702,4.7885,4.7911,4.8068,4.8146,4.8198,4.8564,4.8669,4.8852,4.9274,4.9797,5.0263,5.0707,5.0917,5.11,5.1544,5.157,5.1596,5.1675,5.1675,2.3278,2.3142,2.3124,2.3205,2.3354,2.3809,2.3984,2.4023,2.4297,2.4414,2.4506,2.4962,2.5211,2.524,2.5361,2.5253,2.4922,2.4652,2.4507,2.4507,2.4507,2.4507,2.4507,2.4507,2.459,2.4735,2.4901,2.4942,2.4942,2.4942,2.5128,2.542,2.5418,2.5585,2.5877,2.5918,2.5918,2.5918,2.5918,2.5897,2.5918,2.5918,2.598,2.6063,2.5813,2.5792,2.6125,2.6436,2.6801,2.718,2.7732,2.8139,2.8466,2.8699,2.888,2.9078,2.9801,3.0287,3.0504,3.1164,3.2179,3.3282,3.3211,3.4105,3.6661,3.7147,3.815,3.9702,4.0389,4.0871,4.1458,4.1611,4.1106,4.037,4.1925,4.3125,4.287,4.3924,4.4588,4.4641,4.4641,4.4904,4.5217,4.5269,4.5374,4.5557,4.5976,4.6081,4.6288,4.6732,4.7411,4.7597,4.7885,4.8094,4.8044,4.8015,4.8094,4.812,4.8198,4.825,4.8486,4.8878,4.9218,4.943,4.9823,5.0368,5.0864,5.1335,5.1518,5.1596,5.1596,5.1596,5.1701,5.1805,5.1884,2.2441,2.2628,2.3412,2.3769,2.3848,2.4238,2.4391,2.4434,2.4469,2.4547,2.4656,2.5042,2.5352,2.5363,2.5733,2.5877,2.5711,2.5025,2.4673,2.4653,2.4611,2.4611,2.4631,2.4652,2.486,2.5211,2.5647,2.5856,2.5794,2.5773,2.5792,2.5897,2.5918,2.596,2.596,2.6043,2.6024,2.6112,2.6154,2.6069,2.5941,2.6112,2.6298,2.6632,2.6676,2.6653,2.6625,2.6623,2.6947,2.7537,2.7835,2.8256,2.8676,2.8813,2.9033,2.9684,3.0887,3.136,3.1243,3.2356,3.3282,3.4124,3.4132,3.5463,3.7712,3.7878,3.8431,4.0236,4.0415,4.0415,4.1825,4.216,4.2161,4.2265,4.318,4.3728,4.391,4.4328,4.4721,4.4721,4.4721,4.4721,4.4747,4.4904,4.5139,4.5583,4.5844,4.621,4.6889,4.7281,4.7594,4.7963,4.8146,4.8172,4.8227,4.8227,4.8227,4.825,4.8358,4.8463,4.8826,4.9244,4.9662,4.9954,5.0394,5.0917,5.1152,5.1544,5.1544,5.1596,5.1596,5.1622,5.1701,5.1858,5.2223,2.2678,2.3127,2.3596,2.3965,2.4258,2.4711,2.4863,2.4926,2.5176,2.5284,2.5384,2.5857,2.6074,2.6111,2.6285,2.6374,2.6312,2.5773,2.5461,2.5461,2.5483,2.542,2.544,2.5461,2.5545,2.5668,2.5835,2.5918,2.5939,2.5939,2.6043,2.6312,2.6397,2.656,2.6858,2.6874,2.711,2.769,2.718,2.7458,2.8562,2.7551,2.7264,2.7952,2.8043,2.7764,2.7149,2.7078,2.7353,2.7857,2.7951,2.8256,2.8742,2.9097,2.967,3.0435,3.0888,3.1872,3.295,3.3547,3.4557,3.5764,3.6194,3.7004,3.8491,3.8839,3.9216,4.0236,4.0465,4.123,4.2031,4.2526,4.2892,4.331,4.3677,4.4069,4.4356,4.4564,4.4695,4.4721,4.4721,4.4878,4.5191,4.5269,4.5478,4.6055,4.6445,4.6941,4.7229,4.7673,4.7937,4.8146,4.8172,4.8329,4.8489,4.8698,4.8803,4.8803,4.8829,4.8986,4.9352,4.9662,5.008,5.0498,5.0969,5.1282,5.1518,5.1596,5.1596,5.1596,5.1596,5.1622,5.1675,5.1988,5.2485,2.3115,2.3545,2.4085,2.4437,2.4707,2.5137,2.5312,2.5352,2.5581,2.5698,2.5771,2.6159,2.6424,2.6508,2.6645,2.6777,2.683,2.654,2.6415,2.6333,2.6024,2.5918,2.5939,2.6084,2.6167,2.6188,2.6333,2.6415,2.6415,2.6415,2.6584,2.6856,2.718,2.7516,2.7812,2.7857,2.8281,2.8979,2.8328,2.8608,2.9624,2.9003,2.8678,2.9165,2.9234,2.8979,2.8398,2.8375,2.8234,2.8115,2.8186,2.8553,2.9032,2.9716,3.0336,3.0976,3.2054,3.3071,3.3741,3.4671,3.559,3.6727,3.7464,3.8157,3.9044,3.9727,4.0287,4.0671,4.1207,4.1977,4.2735,4.3101,4.3598,4.4121,4.4173,4.433,4.4643,4.4721,4.4721,4.4721,4.4721,4.4904,4.5139,4.5531,4.5687,4.6186,4.6811,4.7307,4.7464,4.8041,4.8303,4.859,4.8852,4.893,4.8934,4.9143,4.9378,4.9404,4.9404,4.964,4.9923,5.0237,5.0629,5.0943,5.1361,5.1413,5.1596,5.1596,5.1596,5.1596,5.1675,5.1779,5.1936,5.2511,5.3008,2.3738,2.3907,2.4718,2.5063,2.518,2.5523,2.5659,2.5679,2.5698,2.5698,2.5747,2.6014,2.6279,2.652,2.6768,2.701,2.7241,2.7226,2.7141,2.6978,2.6478,2.6125,2.6188,2.6478,2.6646,2.6705,2.704,2.7226,2.7143,2.7285,2.736,2.7508,2.8287,2.8772,2.8794,2.8794,2.928,2.9988,2.928,2.9349,3.0396,3.0147,3.017,3.0238,3.026,3.017,2.9943,3.0034,2.9554,2.8468,2.8813,2.9311,2.9807,3.0624,3.1287,3.1602,3.4029,3.451,3.441,3.5795,3.7071,3.7144,3.8341,3.9196,3.9804,4.0695,4.1409,4.1825,4.2135,4.2657,4.352,4.3807,4.4068,4.4564,4.4616,4.4643,4.4695,4.4721,4.4721,4.4721,4.4721,4.4721,4.4825,4.5269,4.5583,4.5949,4.668,4.7202,4.7647,4.825,4.8904,4.9165,4.927,4.9427,4.9404,4.9744,4.998,5.0002,5.0084,5.0289,5.0446,5.0734,5.0995,5.1335,5.1518,5.157,5.1596,5.1596,5.1727,5.1858,5.1936,5.2014,5.238,5.2955,5.3373,2.4283,2.4761,2.4996,2.5278,2.5523,2.5679,2.5698,2.5698,2.5698,2.5698,2.5747,2.5989,2.6255,2.652,2.6781,2.7068,2.7238,2.7309,2.7309,2.7265,2.7102,2.6957,2.6913,2.704,2.7123,2.7143,2.7226,2.7309,2.7357,2.7951,2.8258,2.8351,2.928,2.9806,2.9806,2.9806,3.0306,3.0957,3.0283,3.0643,3.1801,3.089,3.0576,3.118,3.1224,3.089,3.0397,3.0925,3.0993,3.0261,3.033,3.0813,3.1645,3.2604,3.3386,3.4147,3.4702,3.5858,3.6957,3.7509,3.8211,3.9288,3.9977,4.0741,4.0845,4.1539,4.2003,4.2264,4.2552,4.3075,4.3729,4.3912,4.42,4.459,4.4721,4.4721,4.4721,4.4721,4.4721,4.4721,4.4747,4.4773,4.493,4.5322,4.5818,4.629,4.6917,4.7542,4.8012,4.8643,4.9374,4.9352,4.9457,4.9688,4.9949,5.0346,5.0581,5.0629,5.076,5.0943,5.1021,5.1073,5.1309,5.157,5.157,5.1596,5.1596,5.1596,5.1805,5.2093,5.2014,5.204,5.2772,5.3373,5.3635,2.4832,2.5188,2.5304,2.5484,2.5698,2.5698,2.5698,2.5698,2.5698,2.5698,2.5742,2.5868,2.6135,2.652,2.6685,2.6928,2.7262,2.7309,2.7309,2.7309,2.7289,2.7289,2.7289,2.7309,2.7309,2.7309,2.7309,2.7309,2.7476,2.8234,2.8654,2.8934,3.0102,3.0756,3.0778,3.08,3.127,3.1867,3.1359,3.1581,3.2831,3.2042,3.1779,3.2176,3.222,3.1984,3.1848,3.2158,3.1842,3.111,3.1436,3.2344,3.3091,3.4086,3.4955,3.561,3.6055,3.7149,3.8092,3.8677,3.9432,4.0316,4.1167,4.1611,4.1769,4.2212,4.2552,4.2944,4.3206,4.3624,4.4095,4.4225,4.4382,4.4643,4.4721,4.4721,4.4721,4.4721,4.4825,4.4982,4.5087,4.5217,4.5428,4.5949,4.6421,4.6917,4.7623,4.8146,4.859,4.9244,4.977,4.9823,5.008,5.0472,5.0629,5.0917,5.0995,5.11,5.1256,5.1492,5.1387,5.1361,5.1492,5.1622,5.1622,5.1701,5.1858,5.1962,5.2093,5.2223,5.2067,5.2459,5.3243,5.3635,5.3922,2.5357,2.5357,2.562,2.5698,2.5698,2.5698,2.5698,2.5698,2.5698,2.5698,2.5718,2.5698,2.6038,2.6496,2.6544,2.6808,2.7309,2.7309,2.7309,2.7309,2.7309,2.7309,2.7309,2.7309,2.7309,2.7309,2.7309,2.7452,2.7786,2.8491,2.8979,2.9601,3.0979,3.1669,3.1757,3.1781,3.2242,3.268,3.2198,3.2176,3.2961,3.2853,3.281,3.2853,3.3046,3.3211,3.3405,3.3538,3.2885,3.0925,3.2556,3.3731,3.4379,3.5365,3.594,3.6354,3.7593,3.8477,3.8555,3.9631,4.044,4.0827,4.1663,4.2238,4.2369,4.2788,4.3258,4.365,4.3938,4.4173,4.4486,4.4669,4.4669,4.4721,4.4721,4.4721,4.4721,4.4747,4.5008,4.5505,4.5609,4.6003,4.6499,4.7022,4.744,4.7754,4.8407,4.8852,4.9296,4.9845,5.0263,5.0529,5.089,5.1439,5.1492,5.1518,5.1492,5.1492,5.1675,5.1779,5.157,5.1544,5.1622,5.1727,5.191,5.2197,5.2511,5.2589,5.2563,5.2746,5.2877,5.3373,5.3922,5.3949,5.4131,2.562,2.5601,2.5669,2.5698,2.5698,2.5698,2.5698,2.5698,2.5698,2.5698,2.5698,2.5698,2.6014,2.6496,2.652,2.6784,2.7262,2.7309,2.7309,2.7309,2.7309,2.7309,2.7333,2.7381,2.7357,2.7381,2.7333,2.7715,2.8445,2.9372,3.026,3.1025,3.1845,3.2766,3.2723,3.2658,3.2831,3.3025,3.2831,3.2831,3.2982,3.3115,3.3115,3.3165,3.352,3.3595,3.3798,3.4858,3.499,3.4368,3.4654,3.5525,3.6282,3.7292,3.7809,3.8124,3.8753,3.9531,3.9878,4.0239,4.0827,4.1663,4.2055,4.2395,4.284,4.3363,4.3729,4.399,4.4251,4.4539,4.4669,4.4721,4.4747,4.4773,4.4773,4.4799,4.4825,4.5139,4.5426,4.5661,4.6081,4.6525,4.7072,4.7702,4.8198,4.8669,4.9139,4.964,5.0028,5.042,5.0707,5.0969,5.123,5.1596,5.1596,5.1648,5.1701,5.1805,5.2014,5.225,5.2014,5.1884,5.2014,5.2171,5.2302,5.2642,5.306,5.3112,5.3112,5.34,5.3687,5.4001,5.4262,5.4288,5.4393,2.5698,2.5698,2.5698,2.5698,2.5698,2.5698,2.5698,2.5698,2.5698,2.5698,2.5723,2.5795,2.611,2.6496,2.664,2.6928,2.7214,2.7309,2.7309,2.7309,2.7333,2.7526,2.7951,2.7974,2.7974,2.8045,2.8515,2.8979,2.9555,3.0328,3.1069,3.1647,3.2615,3.2982,3.3115,3.3115,3.3068,3.3115,3.3115,3.3115,3.3115,3.3115,3.3291,3.3542,3.3997,3.4232,3.4525,3.5534,3.6045,3.6111,3.6597,3.724,3.7684,3.837,3.8893,3.9494,3.9756,4.0254,4.0672,4.1115,4.1507,4.216,4.2657,4.3075,4.3467,4.3938,4.4225,4.433,4.4539,4.4721,4.4721,4.4721,4.4799,4.5087,4.5139,4.5322,4.574,4.5766,4.574,4.6081,4.6815,4.7492,4.8094,4.8616,4.893,4.9427,4.9871,5.0346,5.0472,5.0838,5.11,5.1309,5.1439,5.1596,5.1596,5.1675,5.1805,5.2014,5.2276,5.2589,5.2694,5.2563,5.2511,5.2642,5.2772,5.3217,5.3556,5.3583,5.3766,5.4158,5.4419,5.4524,5.4602,5.468,5.4759,2.5698,2.5698,2.5698,2.5698,2.5698,2.5698,2.5698,2.5698,2.5698,2.5698,2.5742,2.5941,2.6159,2.6496,2.6688,2.702,2.7238,2.7309,2.7309,2.7309,2.7309,2.7786,2.8398,2.8771,2.9096,2.9188,2.9647,3.0102,3.0554,3.1181,3.1625,3.1955,3.2633,3.3068,3.3115,3.3115,3.3115,3.3115,3.3241,3.3316,3.3341,3.3391,3.3743,3.4223,3.4577,3.5102,3.5529,3.6218,3.6696,3.7304,3.8192,3.8715,3.8945,3.9024,3.9311,4.0332,4.0437,4.0829,4.135,4.1846,4.2186,4.2395,4.3258,4.386,4.4068,4.4356,4.4564,4.4643,4.4721,4.4721,4.4721,4.4878,4.5139,4.5478,4.5687,4.6314,4.6863,4.6523,4.6708,4.6996,4.7858,4.8643,4.9191,4.9662,4.9923,5.0185,5.0634,5.0921,5.0995,5.1126,5.1335,5.1387,5.1439,5.1831,5.191,5.2014,5.2093,5.2485,5.2746,5.2981,5.3347,5.353,5.3452,5.3164,5.3321,5.3739,5.4053,5.4158,5.4445,5.4889,5.4942,5.4811,5.4889,5.5072,5.5099,2.5698,2.5698,2.5698,2.5698,2.5698,2.5698,2.5698,2.5698,2.5698,2.5698,2.5742,2.5791,2.6086,2.6424,2.6544,2.6856,2.7238,2.7309,2.7309,2.7333,2.7404,2.7951,2.8817,2.9647,3.0283,3.0733,3.0778,3.0778,3.127,3.1558,3.2111,3.2698,3.2982,3.3115,3.3165,3.3115,3.3215,3.3366,3.3571,3.3771,3.3847,3.4173,3.4552,3.5054,3.528,3.5724,3.6337,3.6794,3.733,3.8103,3.8517,3.9209,3.9808,4.0019,4.0202,4.0463,4.0932,4.1402,4.1898,4.216,4.2735,4.3363,4.3834,4.4147,4.446,4.4616,4.4695,4.4721,4.4721,4.4721,4.4721,4.5165,4.5478,4.5818,4.6523,4.7176,4.7516,4.7989,4.8381,4.8669,4.927,4.9688,5.0054,5.0394,5.0629,5.0786,5.1073,5.1126,5.1078,5.1178,5.1361,5.1361,5.1309,5.1831,5.2276,5.2406,5.2589,5.3112,5.34,5.353,5.3922,5.4471,5.4471,5.4027,5.3949,5.4262,5.4524,5.4654,5.4785,5.502,5.4994,5.4968,5.502,5.5099,5.5099,2.5698,2.5698,2.5698,2.5698,2.5698,2.5698,2.5698,2.5698,2.5698,2.5771,2.5917,2.6062,2.6324,2.664,2.688,2.7095,2.7238,2.7309,2.7309,2.7357,2.7809,2.8561,2.9509,3.0487,3.1448,3.1999,3.1933,3.1847,3.2351,3.2394,3.2658,3.2939,3.3115,3.3215,3.3467,3.3542,3.3671,3.3897,3.4173,3.4349,3.4374,3.4853,3.528,3.5481,3.5807,3.6177,3.6519,3.7302,3.7719,3.8269,3.9071,3.9786,4.028,4.0672,4.0855,4.0984,4.1402,4.1872,4.2317,4.2657,4.3363,4.3781,4.4147,4.4408,4.4616,4.4695,4.4721,4.4721,4.4721,4.4852,4.5165,4.5741,4.629,4.697,4.7728,4.8433,4.9008,4.961,4.9923,5.0132,5.0263,5.042,5.0577,5.0917,5.1256,5.1465,5.157,5.1387,5.113,5.1282,5.1439,5.1596,5.1648,5.2119,5.2642,5.2903,5.3164,5.3687,5.4001,5.4131,5.4341,5.4811,5.4916,5.4707,5.4759,5.4733,5.4811,5.4916,5.502,5.5099,5.5046,5.5046,5.5072,5.5099,5.5099,2.5698,2.5698,2.5698,2.5698,2.5698,2.5698,2.5698,2.5718,2.5771,2.5917,2.6135,2.6376,2.6616,2.69,2.7143,2.7309,2.7309,2.7309,2.7428,2.7786,2.8305,2.9234,3.0464,3.1343,3.224,3.304,3.3346,3.3316,3.3032,3.3136,3.3248,3.3391,3.3366,3.3617,3.3972,3.4073,3.4377,3.4577,3.4853,3.4879,3.513,3.5431,3.5682,3.5732,3.6232,3.6581,3.6824,3.7637,3.8234,3.8786,3.957,4.0437,4.0671,4.1167,4.1455,4.1559,4.1951,4.2212,4.2761,4.3232,4.3834,4.4121,4.4487,4.4643,4.4695,4.4721,4.4721,4.4721,4.4878,4.506,4.5531,4.6369,4.7181,4.7992,4.8855,4.9718,5.0237,5.0707,5.0917,5.1047,5.1073,5.1047,5.11,5.0917,5.1152,5.1335,5.1439,5.1256,5.1073,5.1387,5.1622,5.1884,5.2145,5.2537,5.2981,5.3426,5.3766,5.4288,5.4471,5.4576,5.4759,5.5046,5.502,5.4968,5.4994,5.4968,5.5072,5.5099,5.5099,5.5099,5.5099,5.5099,5.5099,5.5099,5.5099,2.5698,2.5698,2.5698,2.5698,2.5698,2.5698,2.5698,2.5766,2.5941,2.6062,2.6207,2.64,2.6664,2.6928,2.719,2.7309,2.7351,2.7538,2.7936,2.8524,2.904,3.0057,3.1346,3.2016,3.2926,3.3737,3.4201,3.3897,3.3542,3.3646,3.3796,3.3872,3.4151,3.4552,3.4577,3.4603,3.4653,3.4803,3.5182,3.5631,3.6029,3.618,3.623,3.6431,3.6757,3.7181,3.7474,3.827,3.8948,3.9632,4.0083,4.0672,4.1142,4.1742,4.2029,4.2107,4.2264,4.2631,4.3415,4.3834,4.4147,4.4434,4.4669,4.4695,4.4721,4.4721,4.4721,4.4721,4.5165,4.5635,4.6105,4.7153,4.7885,4.8777,4.9718,5.0346,5.0921,5.1152,5.1413,5.1387,5.123,5.1335,5.1439,5.1178,5.0995,5.1178,5.1256,5.1126,5.1152,5.1544,5.1988,5.2354,5.272,5.3112,5.3452,5.387,5.4236,5.4811,5.4863,5.4916,5.4994,5.5099,5.5099,5.5072,5.5099,5.5099,5.5099,5.5099,5.5099,5.5099,5.5099,5.5099,5.5099,5.5099,5.5099,2.5698,2.5698,2.5698,2.5698,2.5698,2.5698,2.5771,2.5941,2.6042,2.6259,2.652,2.6685,2.6877,2.7116,2.7262,2.7431,2.7717,2.8214,2.8864,2.9825,3.0624,3.169,3.2564,3.3299,3.4033,3.4245,3.4527,3.4477,3.4173,3.4198,3.4349,3.4377,3.4603,3.4853,3.5107,3.5155,3.5355,3.5629,3.5906,3.613,3.6331,3.643,3.6532,3.6833,3.711,3.7507,3.8105,3.8857,3.9486,4.0094,4.0549,4.1193,4.1664,4.2107,4.2421,4.3206,4.318,4.3415,4.3834,4.4173,4.4434,4.459,4.4721,4.4721,4.4721,4.4747,4.4904,4.5191,4.5767,4.6316,4.7072,4.8355,4.9113,4.9845,5.0498,5.0838,5.123,5.1387,5.1544,5.1465,5.1387,5.1439,5.1544,5.1518,5.123,5.11,5.1361,5.1439,5.157,5.191,5.2406,5.2955,5.3321,5.3713,5.4027,5.4367,5.4576,5.4968,5.4968,5.502,5.5046,5.5099,5.5099,5.5099,5.5099,5.5099,5.5099,5.5099,5.5099,5.5099,5.5099,5.5099,5.5099,5.5099,5.5099,2.5698,2.5698,2.5698,2.5698,2.5698,2.5698,2.5844,2.611,2.6183,2.6472,2.6808,2.6972,2.7157,2.7403,2.7489,2.7721,2.8163,2.9187,2.9963,3.1047,3.2277,3.3209,3.3762,3.4433,3.4835,3.4929,3.5203,3.5177,3.5177,3.5152,3.5127,3.4929,3.5203,3.5403,3.5631,3.5732,3.5906,3.6205,3.6281,3.638,3.643,3.6581,3.6857,3.716,3.7511,3.7911,3.8538,3.9419,4.0,4.0279,4.1095,4.1716,4.2081,4.2578,4.3023,4.3677,4.386,4.4042,4.4225,4.4434,4.4669,4.4721,4.4694,4.4668,4.4611,4.4718,4.5028,4.5462,4.6521,4.733,4.8241,4.9285,5.0028,5.0577,5.1152,5.1413,5.1622,5.1648,5.1648,5.1544,5.1413,5.1256,5.1413,5.1701,5.157,5.1178,5.1309,5.1701,5.2093,5.2459,5.2929,5.3504,5.3713,5.4131,5.4497,5.4811,5.502,5.5099,5.5099,5.5099,5.5099,5.5099,5.5099,5.5099,5.5099,5.5099,5.5099,5.5099,5.5099,5.5099,5.5099,5.5099,5.5099,5.5099,5.5099,2.5698,2.5698,2.5698,2.5698,2.5718,2.5698,2.5868,2.6135,2.6376,2.6616,2.6948,2.7184,2.7507,2.7755,2.7903,2.818,2.869,2.9685,3.0795,3.1826,3.277,3.3937,3.4615,3.514,3.5458,3.5556,3.578,3.6055,3.618,3.5979,3.5805,3.5581,3.5805,3.613,3.6256,3.6205,3.623,3.6405,3.6405,3.6405,3.6556,3.6807,3.716,3.7436,3.8165,3.8844,3.8919,3.9829,4.0438,4.0565,4.1461,4.2082,4.2421,4.3101,4.365,4.399,4.433,4.4487,4.4564,4.459,4.4669,4.4721,4.4694,4.4666,4.4659,4.5239,4.5515,4.591,4.7189,4.8026,4.8852,4.9685,5.0389,5.0681,5.1021,5.1387,5.157,5.1753,5.1727,5.1622,5.157,5.1544,5.157,5.1936,5.1805,5.1439,5.191,5.2302,5.2877,5.3269,5.3609,5.3975,5.4105,5.4445,5.4889,5.5099,5.5099,5.5099,5.5099,5.5099,5.5099,5.5099,5.5099,5.5099,5.5099,5.5099,5.5099,5.5099,5.5099,5.5099,5.5099,5.5099,5.5099,5.5099,5.5099,2.5698,2.5698,2.5698,2.5698,2.5698,2.5868,2.6014,2.6163,2.6544,2.688,2.7184,2.7503,2.7759,2.7941,2.8325,2.8985,3.0041,3.1123,3.2281,3.3576,3.4673,3.5355,3.583,3.5855,3.6056,3.6081,3.6306,3.6405,3.638,3.6405,3.6306,3.6205,3.6281,3.6331,3.6405,3.6405,3.6405,3.6406,3.643,3.6405,3.6531,3.6934,3.7337,3.7764,3.8391,3.9247,3.9804,4.0236,4.0618,4.1128,4.1823,4.2318,4.2735,4.3546,4.4016,4.4304,4.459,4.4669,4.4721,4.4721,4.4721,4.4721,4.4721,4.4823,4.4997,4.5764,4.6519,4.7241,4.7997,4.8759,4.9437,4.9833,5.0185,5.0368,5.076,5.1309,5.1622,5.1858,5.2145,5.2171,5.2145,5.2119,5.2171,5.225,5.1988,5.1753,5.2328,5.2929,5.353,5.3922,5.4184,5.4419,5.4524,5.4602,5.502,5.5099,5.5099,5.5099,5.5099,5.5099,5.5099,5.5099,5.5099,5.5099,5.5099,5.5099,5.5099,5.5099,5.5099,5.5099,5.5099,5.5099,5.5099,5.5099,5.5099,2.5698,2.5698,2.5698,2.5698,2.5723,2.5989,2.6139,2.6304,2.6709,2.7126,2.7513,2.7924,2.821,2.8376,2.8674,2.9366,3.0622,3.1905,3.315,3.4317,3.5377,3.6263,3.6405,3.638,3.6306,3.6405,3.6405,3.6405,3.6405,3.6405,3.638,3.638,3.6405,3.6405,3.6405,3.6405,3.643,3.6406,3.6582,3.6607,3.6733,3.7386,3.7937,3.8391,3.8944,3.9525,4.0236,4.067,4.1003,4.1568,4.224,4.2866,4.331,4.3781,4.4278,4.4538,4.4721,4.4721,4.4721,4.4721,4.4721,4.4721,4.4982,4.5241,4.5709,4.6336,4.7064,4.7873,4.8674,4.9266,4.9758,5.0041,5.0106,5.0315,5.1282,5.1831,5.1936,5.2145,5.2511,5.2772,5.2746,5.2772,5.2903,5.2981,5.3034,5.2825,5.3138,5.3687,5.421,5.4524,5.4628,5.4811,5.4942,5.502,5.5099,5.5099,5.5099,5.5099,5.5099,5.5099,5.5099,5.5099,5.5099,5.5099,5.5099,5.5099,5.5099,5.5099,5.5099,5.5099,5.5099,5.5099,5.5099,5.5099,5.5099,2.5698,2.5698,2.5718,2.5718,2.5747,2.6014,2.6255,2.6492,2.6821,2.7311,2.7921,2.8376,2.8789,2.9104,2.9208,2.9857,3.0854,3.2336,3.3453,3.4239,3.5643,3.631,3.6405,3.6405,3.6405,3.6405,3.6405,3.6405,3.6405,3.6405,3.6405,3.6455,3.648,3.6531,3.6455,3.643,3.643,3.6531,3.7009,3.7135,3.7362,3.8115,3.8692,3.8969,3.9423,3.9956,4.0415,4.1055,4.1415,4.1852,4.2971,4.3546,4.3781,4.4278,4.459,4.4695,4.4721,4.4721,4.4721,4.4721,4.4772,4.4878,4.5217,4.5629,4.6087,4.6765,4.7499,4.8221,4.8737,4.9143,4.9607,5.0024,4.9993,5.0315,5.123,5.2093,5.2171,5.272,5.3138,5.3426,5.3426,5.3452,5.3609,5.3792,5.4027,5.4079,5.4131,5.4445,5.4811,5.4942,5.4942,5.4968,5.5099,5.5099,5.5099,5.5099,5.5099,5.5099,5.5099,5.5099,5.5099,5.5099,5.5099,5.5099,5.5099,5.5099,5.5099,5.5099,5.5099,5.5099,5.5099,5.5099,5.5099,5.5099,5.5099,2.5698,2.5718,2.5893,2.5965,2.6014,2.6255,2.6424,2.6605,2.7134,2.7746,2.8371,2.8876,2.9125,2.9352,2.9828,3.0533,3.1974,3.2499,3.3549,3.5259,3.6072,3.6287,3.6405,3.6405,3.6405,3.6405,3.6405,3.6405,3.6405,3.648,3.643,3.6455,3.6783,3.6909,3.6934,3.6959,3.7036,3.7412,3.7663,3.7739,3.7814,3.8492,3.8995,3.9146,3.9651,4.0109,4.0619,4.1338,4.1802,4.2216,4.3389,4.3885,4.4043,4.446,4.4695,4.4721,4.4721,4.4721,4.4771,4.4873,4.5131,4.5345,4.5555,4.6017,4.6547,4.7372,4.7983,4.8354,4.8745,4.9072,4.9341,4.9445,4.9479,4.974,5.0577,5.1753,5.2354,5.3295,5.3949,5.4079,5.4131,5.4314,5.4471,5.4367,5.4524,5.4654,5.4628,5.468,5.4994,5.502,5.5046,5.5046,5.5099,5.5099,5.5099,5.5099,5.5099,5.5099,5.5099,5.5099,5.5099,5.5099,5.5099,5.5099,5.5099,5.5099,5.5099,5.5099,5.5099,5.5099,5.5099,5.5099,5.5099,5.5099,5.5099,2.5844,2.5868,2.6135,2.6408,2.6625,2.679,2.6992,2.7293,2.7918,2.8462,2.8872,2.9332,2.9559,2.9746,3.0352,3.0625,3.2246,3.3449,3.3598,3.5475,3.6168,3.631,3.6405,3.6405,3.6405,3.643,3.643,3.6405,3.643,3.6631,3.6833,3.7085,3.7311,3.7612,3.7663,3.7713,3.7588,3.7914,3.809,3.8316,3.8467,3.8869,3.9322,3.9525,3.9905,4.0287,4.1029,4.1647,4.219,4.2814,4.352,4.4147,4.4304,4.446,4.4721,4.4721,4.4721,4.4745,4.4922,4.516,4.5576,4.6236,4.6184,4.6569,4.721,4.7824,4.829,4.8677,4.8789,4.8822,4.8852,4.8934,4.9636,4.9949,5.1126,5.2354,5.2851,5.3818,5.4445,5.4602,5.468,5.4942,5.5099,5.5046,5.4942,5.502,5.5072,5.5099,5.5099,5.5099,5.5099,5.5099,5.5099,5.5099,5.5099,5.5099,5.5099,5.5099,5.5099,5.5099,5.5099,5.5099,5.5099,5.5099,5.5099,5.5099,5.5099,5.5099,5.5099,5.5099,5.5099,5.5099,5.5099,5.5099,5.5099,2.6091,2.6135,2.64,2.6907,2.7517,2.7623,2.8013,2.8624,2.9058,2.927,2.9352,2.9766,2.9911,3.0141,3.097,3.115,3.1172,3.3449,3.4067,3.4434,3.5763,3.6168,3.6405,3.6405,3.6505,3.648,3.6531,3.6658,3.6556,3.6984,3.7487,3.7864,3.799,3.8316,3.8467,3.8442,3.8266,3.8467,3.8693,3.8919,3.9095,3.9372,3.9778,4.0032,4.0262,4.0824,4.1518,4.2268,4.2917,4.3569,4.433,4.4564,4.4695,4.4695,4.4721,4.4721,4.4721,4.4789,4.5179,4.5472,4.6126,4.6808,4.7176,4.762,4.7879,4.8061,4.8319,4.8502,4.8531,4.843,4.841,4.9401,5.042,5.1387,5.2589,5.3217,5.3504,5.4105,5.4707,5.4968,5.4994,5.5099,5.5099,5.5099,5.5099,5.5099,5.5099,5.5099,5.5099,5.5099,5.5099,5.5099,5.5099,5.5099,5.5099,5.5099,5.5099,5.5099,5.5099,5.5099,5.5099,5.5099,5.5099,5.5099,5.5099,5.5099,5.5099,5.5099,5.5099,5.5099,5.5099,5.5099,5.5099,5.5099,5.5125,2.6091,2.6139,2.6613,2.7097,2.7689,2.8478,2.8929,2.9125,2.927,2.9456,2.9808,2.9932,2.9994,3.0047,3.0339,3.1197,3.2196,3.33,3.4508,3.5283,3.5929,3.6263,3.643,3.648,3.6656,3.6859,3.6984,3.7135,3.7487,3.7764,3.809,3.8542,3.8617,3.8994,3.9195,3.927,3.917,3.9145,3.9321,3.9423,3.9549,3.9751,4.0134,4.0313,4.0721,4.1286,4.1905,4.2892,4.3518,4.3884,4.4434,4.4695,4.4721,4.4721,4.4721,4.4641,4.4501,4.4436,4.5309,4.5725,4.6297,4.7226,4.7675,4.7791,4.7971,4.8052,4.8189,4.8267,4.8323,4.8303,4.8829,4.9766,5.0603,5.1544,5.2772,5.3687,5.387,5.3975,5.4576,5.4916,5.4968,5.5099,5.5099,5.5099,5.5099,5.5099,5.5099,5.5099,5.5099,5.5099,5.5099,5.5099,5.5099,5.5099,5.5099,5.5099,5.5099,5.5099,5.5099,5.5099,5.5099,5.5099,5.5099,5.5099,5.5099,5.5099,5.5099,5.5099,5.5099,5.5099,5.5099,5.5099,5.5099,5.5099,5.5282,2.6328,2.6492,2.706,2.7663,2.8371,2.9172,2.958,2.958,2.958,2.9766,2.9973,2.9994,2.9994,3.0203,3.094,3.179,3.2451,3.4091,3.5114,3.5235,3.6264,3.6358,3.643,3.6656,3.6909,3.7161,3.7437,3.7638,3.804,3.8341,3.8668,3.917,3.9195,3.9396,3.9572,3.9597,3.9622,3.9673,3.9776,3.9878,3.9904,4.0006,4.0287,4.0594,4.1132,4.1673,4.2268,4.3388,4.3805,4.412,4.4616,4.4695,4.4721,4.4721,4.4504,4.4422,4.4311,4.4749,4.5512,4.5873,4.6609,4.7406,4.7963,4.8035,4.8055,4.814,4.8111,4.8107,4.8166,4.8407,4.9218,5.0002,5.0629,5.1282,5.2616,5.3949,5.3975,5.387,5.421,5.4628,5.4863,5.502,5.5099,5.5099,5.5099,5.5099,5.5099,5.5099,5.5099,5.5099,5.5099,5.5099,5.5099,5.5099,5.5099,5.5099,5.5099,5.5099,5.5099,5.5099,5.5099,5.5099,5.5099,5.5099,5.5099,5.5099,5.5099,5.5099,5.5099,5.5099,5.5099,5.5099,5.5099,5.5099,5.536,2.6661,2.6941,2.7658,2.8438,2.9311,2.9766,2.9973,2.9994,2.9953,2.9994,2.9994,2.9994,3.0099,3.0573,3.1662,3.2322,3.3203,3.4629,3.5307,3.5017,3.6176,3.6582,3.6733,3.6984,3.7411,3.7562,3.7813,3.8216,3.8341,3.8693,3.9195,3.9697,3.9647,3.9672,3.9672,3.9697,3.9697,3.9749,3.9955,4.0109,4.0057,4.0236,4.0568,4.0824,4.1389,4.2086,4.2866,4.3491,4.3931,4.4431,4.4695,4.4721,4.4721,4.4639,4.4367,4.4258,4.4231,4.4878,4.5611,4.6054,4.6843,4.7586,4.8198,4.8172,4.8143,4.8143,4.8114,4.8114,4.8198,4.8538,4.927,5.0237,5.0969,5.1701,5.2798,5.3583,5.3687,5.3635,5.3792,5.421,5.455,5.4733,5.5099,5.5099,5.5099,5.5099,5.5099,5.5099,5.5099,5.5099,5.5099,5.5099,5.5099,5.5099,5.5099,5.5099,5.5099,5.5099,5.5099,5.5099,5.5099,5.5099,5.5099,5.5099,5.5099,5.5099,5.5099,5.5099,5.5099,5.5099,5.5099,5.5099,5.5099,5.5099,5.5543,2.664,2.6982,2.8033,2.8768,2.9352,2.9808,2.9994,2.9994,2.9994,2.9994,2.9994,3.0047,3.0448,3.1253,3.1841,3.2577,3.4166,3.4848,3.5475,3.5984,3.671,3.6959,3.7086,3.7563,3.8014,3.8416,3.8693,3.8869,3.9094,3.9371,3.9496,3.9672,3.9697,3.9697,3.9697,3.9697,3.9723,3.9723,4.0159,4.0389,4.0415,4.0695,4.1028,4.1699,4.245,4.2995,4.3675,4.4119,4.4406,4.4695,4.4695,4.4721,4.4721,4.4531,4.4476,4.4476,4.4419,4.5039,4.5743,4.6266,4.6924,4.7577,4.8052,4.8169,4.8172,4.8172,4.8198,4.8198,4.8329,4.8721,4.9374,5.0368,5.1309,5.2119,5.2851,5.3112,5.3347,5.3373,5.34,5.3766,5.4158,5.455,5.4942,5.5099,5.5099,5.5099,5.5099,5.5099,5.5099,5.5099,5.5099,5.5099,5.5099,5.5099,5.5099,5.5099,5.5099,5.5099,5.5099,5.5099,5.5099,5.5099,5.5099,5.5099,5.5099,5.5099,5.5099,5.5099,5.5099,5.5099,5.5099,5.5099,5.5099,5.5099,5.5726,2.6853,2.7195,2.8161,2.9001,2.958,2.9891,2.9994,2.9994,2.9994,2.9994,2.9994,3.0073,3.0599,3.1662,3.2047,3.3076,3.4726,3.5355,3.6057,3.6738,3.7085,3.7336,3.7688,3.8115,3.8441,3.8869,3.917,3.9421,3.9672,3.9697,3.9672,3.9697,3.9697,3.9697,3.9697,3.9697,3.9697,3.9723,4.0337,4.0696,4.0901,4.1338,4.144,4.219,4.2892,4.3596,4.3935,4.4301,4.4535,4.4668,4.4721,4.4585,4.4585,4.4505,4.4504,4.4554,4.4706,4.5147,4.5957,4.6586,4.703,4.7681,4.8339,4.859,4.8381,4.8407,4.859,4.8564,4.8224,4.8512,4.9479,5.0498,5.1126,5.1858,5.2354,5.272,5.2746,5.2694,5.3008,5.353,5.3975,5.4497,5.4837,5.5099,5.5099,5.5099,5.5099,5.5099,5.5099,5.5099,5.5099,5.5099,5.5099,5.5099,5.5099,5.5099,5.5099,5.5099,5.5099,5.5099,5.5099,5.5099,5.5099,5.5099,5.5099,5.5099,5.5099,5.5099,5.5099,5.5099,5.5099,5.5099,5.5099,5.5125,5.5569,2.7129,2.7576,2.8297,2.9145,2.9932,2.9994,2.9994,2.9994,2.9994,3.0125,3.0209,3.0099,3.0655,3.1637,3.2926,3.3941,3.4944,3.5938,3.6715,3.7211,3.7462,3.7838,3.8266,3.8718,3.8969,3.9195,3.9421,3.9546,3.9697,3.9697,3.9697,3.9697,3.9697,3.9697,3.9697,3.9748,3.9748,4.0104,4.0616,4.1129,4.1569,4.2086,4.2138,4.2475,4.3047,4.3912,4.4093,4.4221,4.4479,4.4531,4.4612,4.4558,4.4532,4.4585,4.4606,4.4655,4.4968,4.5593,4.6297,4.6762,4.7314,4.7974,4.8665,4.8855,4.8594,4.8616,4.8799,4.8826,4.8486,4.8904,4.9897,5.042,5.1021,5.1544,5.1962,5.2276,5.2197,5.2145,5.2642,5.3191,5.3766,5.4314,5.4707,5.4942,5.5099,5.5099,5.5099,5.5099,5.5099,5.5099,5.5099,5.5099,5.5099,5.5099,5.5099,5.5099,5.5099,5.5099,5.5099,5.5099,5.5099,5.5099,5.5099,5.5099,5.5099,5.5099,5.5099,5.5099,5.5099,5.5099,5.5099,5.5099,5.5099,5.5151,5.5334,2.7475,2.838,2.8541,2.9145,2.9932,2.9994,2.9994,2.9994,3.002,3.0443,3.0836,3.0417,3.0599,3.1713,3.3698,3.487,3.5499,3.6527,3.7289,3.7814,3.8165,3.8492,3.8818,3.917,3.9446,3.9572,3.9622,3.9672,3.9697,3.9697,3.9697,3.9697,3.9697,3.9697,3.9697,3.9798,4.0078,4.0486,4.1102,4.167,4.2184,4.2707,4.3308,4.37,4.4146,4.446,4.4563,4.4588,4.4505,4.4449,4.4422,4.4504,4.4611,4.4718,4.4818,4.5048,4.5387,4.5901,4.6524,4.7054,4.7635,4.786,4.8394,4.8541,4.8463,4.8594,4.8826,4.9218,4.9244,5.0028,5.076,5.0655,5.1047,5.1413,5.1831,5.1831,5.1805,5.1884,5.2145,5.272,5.3321,5.3922,5.4471,5.4759,5.5099,5.5099,5.5099,5.5099,5.5099,5.5099,5.5099,5.5099,5.5099,5.5099,5.5099,5.5099,5.5099,5.5099,5.5099,5.5099,5.5099,5.5099,5.5099,5.5099,5.5099,5.5099,5.5099,5.5099,5.5099,5.5099,5.5099,5.5099,5.5099,5.5125,5.5255]},{"header":{"parameterUnit":"m.s-1","parameterCategory":1,"la1":31.0,"la2":29.5877,"lo1":-88.7671,"lo2":-86.6584,"dy":0.0162,"dx":0.0185,"nx":115,"ny":88,"refTime":"2024-10-09T12:00:00:Z","depth":0,"parameterNumber":3,"parameterNumberName":"V-component_of_WINDS"},"data":[0.0,0.0,0.0,0.0,0.0,0.0,0.0,0.0,0.0,0.0,0.0,0.0,0.0,0.0,0.0,0.0,0.0,0.0,0.0,0.0,0.0,0.0,0.0,0.0,0.0,0.0,0.0,0.0,0.0,0.0,0.0,0.0,0.0,0.0,0.0,0.0,0.0,0.0,0.0,0.0,0.0,0.0,0.0,0.0,0.0,0.0,0.0,0.0,0.0,0.0,0.0,0.0,0.0,0.0,0.0,0.0,0.0,0.0,0.0,0.0,0.0,0.0,0.0,0.0,0.0,0.0,0.0,0.0,0.0,0.0,0.0,0.0,0.0,0.0,0.0,0.0,0.0,0.0,0.0,0.0,0.0,0.0,0.0,0.0,0.0,0.0,0.0,0.0,0.0,0.0,0.0,0.0,0.0,0.0,0.0,0.0,0.0,0.0,0.0,0.0,0.0,0.0,0.0,0.0,0.0,0.0,0.0,0.0,0.0,0.0,0.0,0.0,0.0,0.0,0.0,0.0,0.0,0.0,0.0,0.0,0.0,0.0,0.0,0.0,0.0,0.0,0.0,0.0,0.0,0.0,0.0,0.0,0.0,0.0,0.0,0.0,0.0,0.0,0.0,0.0,0.0,0.0,0.0,0.0,0.0,0.0,0.0,0.0,0.0,0.0,0.0,0.0,0.0,0.0,0.0,0.0,0.0,0.0,0.0,0.0,0.0,0.0,0.0,0.0,0.0,0.0,0.0,0.0,0.0,0.0,0.0,0.0,0.0,0.0,0.0,0.0,0.0,0.0,0.0,0.0,0.0,0.0,0.0,0.0,0.0,0.0,0.0,0.0,0.0,0.0,0.0,0.0,0.0,0.0,0.0,0.0,0.0,0.0,0.0,0.0,0.0,0.0,0.0,0.0,0.0,0.0,0.0,0.0,0.0,0.0,0.0,0.0,0.0,0.0,0.0,0.0,0.0,0.0,0.0,0.0,0.0,0.0,0.0,0.0,0.0,0.0,0.0,0.0,0.0,0.0,0.0,0.0,0.0,0.0,0.0,0.0,0.0,0.0,0.0,0.0,0.0,0.0,0.0,0.0,0.0,0.0,0.0,0.0,0.0,0.0,0.0,0.0,0.0,0.0,0.0,0.0,0.0,0.0,0.0,0.0,0.0,0.0,0.0,0.0,0.0,0.0,0.0,0.0,0.0,0.0,0.0,0.0,0.0,0.0,0.0,0.0,0.0,0.0,0.0,0.0,0.0,0.0,0.0,0.0,0.0,0.0,0.0,0.0,0.0,0.0,0.0,0.0,0.0,0.0,0.0,0.0,0.0,0.0,0.0,0.0,0.0,0.0,0.0,0.0,0.0,0.0,0.0,0.0,0.0,0.0,0.0,0.0,0.0,0.0,0.0,0.0,0.0,0.0,0.0,0.0,0.0,0.0,0.0,0.0,0.0,0.0,0.0,0.0,0.0,0.0,0.0,0.0,0.0,0.0,0.0,0.0,0.0,0.0,0.0,0.0,0.0,0.0,0.0,0.0,0.0,0.0,0.0,0.0,0.0,0.0,0.0,0.0,0.0,0.0,0.0,0.0,0.0,0.0,0.0,0.0,0.0,0.0,0.0,0.0,0.0,0.0,0.0,0.0,0.0,0.0,0.0,0.0,0.0,0.0,0.0,0.0,0.0,0.0,0.0,0.0,0.0,0.0,0.0,0.0,0.0,0.0,0.0,0.0,0.0,0.0,0.0,0.0,0.0,0.0,0.0,0.0,0.0,0.0,0.0,0.0,0.0,0.0,0.0,0.0,0.0,0.0,0.0,0.0,0.0,0.0,0.0,0.0,0.0,0.0,0.0,0.0,0.0,0.0,0.0,0.0,0.0,0.0,0.0,0.0,0.0,0.0,0.0,0.0,0.0,0.0,0.0,0.0,0.0,0.0,0.0,0.0,0.0,0.0,0.0,0.0,0.0,0.0,0.0,0.0,0.0,0.0,0.0,0.0,0.0,0.0,0.0,0.0,0.0,0.0,0.0,0.0,0.0,0.0,0.0,0.0,0.0,0.0,0.0,0.0,0.0,0.0,0.0,0.0,0.0,0.0,0.0,0.0,0.0,0.0,0.0,0.0,0.0,0.0,0.0,0.0,0.0,0.0,0.0,0.0,0.0,0.0,0.0,0.0,0.0,0.0,0.0,0.0,0.0,0.0,0.0,0.0,0.0,0.0,0.0,0.0,0.0,0.0,0.0,0.0,0.0,0.0,0.0,0.0,0.0,0.0,0.0,0.0,0.0,0.0,0.0,0.0,0.0,0.0,0.0,0.0,0.0,0.0,0.0,0.0,0.0,0.0,0.0,0.0,0.0,0.0,0.0,0.0,0.0,0.0,0.0,0.0,0.0,0.0,0.0,0.0,0.0,0.0,0.0,0.0,0.0,0.0,0.0,0.0,0.0,0.0,0.0,0.0,0.0,0.0,0.0,0.0,0.0,0.0,0.0,0.0,0.0,0.0,0.0,0.0,0.0,0.0,0.0,0.0,0.0,0.0,0.0,0.0,0.0,0.0,0.0,0.0,0.0,0.0,0.0,0.0,0.0,0.0,0.0,0.0,0.0,0.0,0.0,0.0,0.0,0.0,0.0,0.0,0.0,0.0,0.0,0.0,0.0,0.0,0.0,0.0,0.0,0.0,0.0,0.0,0.0,0.0,0.0,0.0,0.0,0.0,0.0,0.0,0.0,0.0,0.0,0.0,0.0,0.0,0.0,0.0,0.0,0.0,0.0,0.0,0.0,0.0,0.0,0.0,0.0,0.0,0.0,0.0,0.0,0.0,0.0,0.0,0.0,0.0,0.0,0.0,0.0,0.0,0.0,0.0,0.0,0.0,0.0,0.0,0.0,0.0,0.0,0.0,0.0,0.0,0.0,0.0,0.0,0.0,0.0,0.0,0.0,0.0,0.0,0.0,0.0,0.0,0.0,0.0,0.0,0.0,0.0,0.0,0.0,0.0,0.0,0.0,0.0,0.0,0.0,0.0,0.0,0.0,0.0,0.0,0.0,0.0,0.0,0.0,0.0,0.0,0.0,0.0,0.0,0.0,0.0,0.0,0.0,0.0,0.0,0.0,0.0,0.0,0.0,0.0,0.0,0.0,0.0,0.0,0.0,0.0,0.0,0.0,0.0,0.0,0.0,0.0,0.0,0.0,0.0,0.0,0.0,0.0,0.0,0.0,0.0,0.0,0.0,0.0,0.0,0.0,0.0,0.0,0.0,0.0,0.0,0.0,0.0,0.0,0.0,0.0,0.0,0.0,0.0,0.0,0.0,0.0,0.0,0.0,0.0,0.0,0.0,0.0,0.0,0.0,0.0,0.0,0.0,0.0,0.0,0.0,0.0,0.0,0.0,0.0,0.0,0.0,0.0,0.0,0.0,0.0,0.0,0.0,0.0,0.0,0.0,0.0,0.0,0.0,0.0,0.0,0.0,0.0,0.0,0.0,0.0,0.0,0.0,0.0,0.0,0.0,0.0,0.0,0.0,0.0,0.0,0.0,0.0,0.0,0.0,0.0,0.0,0.0,0.0,0.0,0.0,0.0,0.0,0.0,0.0,0.0,0.0,0.0,0.0,0.0,0.0,0.0,0.0,0.0,0.0,0.0,0.0,0.0,0.0,0.0,0.0,0.0,0.0,0.0,0.0,0.0,0.0,0.0,0.0,0.0,0.0,0.0,0.0,0.0,0.0,0.0,0.0,0.0,0.0,0.0,0.0,0.0,0.0,0.0,0.0,0.0,0.0,0.0,0.0,0.0,0.0,0.0,0.0,0.0,0.0,0.0,0.0,0.0,0.0,0.0,0.0,0.0,0.0,0.0,0.0,0.0,0.0,0.0,0.0,0.0,0.0,0.0,0.0,0.0,0.0,0.0,0.0,0.0,0.0,0.0,0.0,0.0,0.0,0.0,0.0,0.0,0.0,0.0,0.0,0.0,0.0,0.0,0.0,0.0,0.0,0.0,0.0,0.0,0.0,0.0,0.0,0.0,0.0,0.0,0.0,0.0,0.0,0.0,0.0,0.0,0.0,0.0,0.0,0.0,0.0,0.0,0.0,0.0,0.0,0.0,0.0,0.0,0.0,0.0,0.0,0.0,0.0,0.0,0.0,0.0,0.0,0.0,0.0,0.0,0.0,0.0,0.0,0.0,0.0,0.0,0.0,0.0,0.0,0.0,0.0,0.0,0.0,0.0,0.0,0.0,0.0,0.0,0.0,0.0,0.0,0.0,0.0,0.0,0.0,0.0,0.0,0.0,1.1889,0.0,0.0,0.0,0.0,0.0,0.0,0.0,0.0,0.0,0.0,0.0,0.0,0.0,0.0,0.0,0.0,0.0,0.0,0.0,0.0,0.0,0.0,0.0,0.0,0.0,0.0,0.0,0.0,0.0,0.0,0.0,0.0,0.0,0.0,0.0,0.0,0.0,0.0,0.0,0.0,0.0,0.0,0.0,0.0,0.0,0.0,0.0,0.0,0.0,0.0,0.0,0.0,0.0,0.0,0.0,0.0,0.0,0.0,0.0,0.0,0.0,0.0,0.0,0.0,0.0,0.0,0.0,0.0,0.0,0.0,0.0,0.0,0.0,0.0,0.0,0.0,0.0,0.0,0.0,0.0,0.0,0.0,0.0,0.0,0.0,0.0,0.0,0.0,0.0,0.0,0.0,0.0,0.0,0.0,0.0,0.0,0.0,0.0,0.0,0.0,0.0,0.0,0.0,0.0,0.0,0.0,0.0,0.0,0.0,0.0,1.3886,1.3859,1.2913,1.244,1.2486,0.0,0.0,0.0,0.0,0.0,0.0,0.0,0.0,0.0,0.0,0.0,0.0,0.0,0.0,0.0,0.0,0.0,0.0,0.0,0.0,0.0,0.0,0.0,0.0,0.0,0.0,0.0,0.0,0.0,0.0,0.0,0.0,0.0,0.0,0.0,0.0,0.0,0.0,0.0,0.0,0.0,0.0,0.0,0.0,0.0,0.0,0.0,0.0,0.0,0.0,0.0,0.0,0.0,0.0,0.0,0.0,0.0,0.0,0.0,0.0,0.0,0.0,0.0,0.0,0.0,0.0,0.0,0.0,0.0,0.0,0.0,0.0,0.0,0.0,0.0,0.0,0.0,0.0,0.0,0.0,0.0,0.0,0.0,0.0,0.0,0.0,0.0,0.0,0.0,0.0,0.0,0.0,0.0,0.0,0.0,0.0,0.0,0.0,0.0,0.0,0.0,0.0,0.0,0.0,0.0,0.0,0.0,0.0,0.0,0.0,0.0,0.0,1.358,1.3301,1.3096,0.0,0.0,0.0,0.0,0.0,0.0,0.0,0.0,0.0,0.0,0.0,0.0,0.0,0.0,0.0,0.0,0.0,0.0,0.0,0.0,0.0,0.0,0.0,0.0,0.0,0.0,0.0,0.0,0.0,0.0,0.0,0.0,0.0,0.0,0.0,0.0,0.0,0.0,0.0,0.0,0.0,0.0,0.0,0.0,0.0,0.0,0.0,0.0,0.0,0.0,0.0,0.0,0.0,0.0,0.0,0.0,0.0,0.0,0.0,0.0,0.0,0.0,0.0,0.0,0.0,0.0,0.0,0.0,0.0,0.0,0.0,0.0,0.0,0.0,0.0,0.0,0.0,0.0,0.0,0.0,0.0,0.0,0.0,0.0,0.0,0.0,0.0,0.0,0.0,0.0,0.0,0.0,0.0,0.0,0.0,0.0,0.0,0.0,0.0,0.0,0.0,0.0,0.0,0.0,0.0,0.0,0.0,0.0,0.0,0.0,1.3886,1.3896,1.4542,0.0,1.3368,0.0,0.0,0.0,0.0,0.0,0.0,0.0,0.0,0.0,0.0,0.0,0.0,0.0,0.0,0.0,0.0,0.0,0.0,0.0,0.0,0.0,0.0,0.0,0.0,0.0,0.0,0.0,0.0,0.0,0.0,0.0,0.0,0.0,0.0,0.0,0.0,0.0,0.0,0.0,0.0,0.0,0.0,0.0,0.0,0.0,0.0,0.0,0.0,0.0,0.0,0.0,0.0,0.0,0.0,0.0,0.0,0.0,0.0,0.0,0.0,0.0,0.0,0.0,0.0,0.0,0.0,0.0,0.0,0.0,0.0,0.0,0.0,0.0,0.0,0.0,0.0,0.0,0.0,0.0,0.0,0.0,0.0,0.0,0.0,0.0,0.0,0.0,0.0,0.0,0.0,0.0,0.0,0.0,0.0,0.0,0.0,0.0,0.0,0.0,0.0,0.0,0.0,0.0,0.0,0.0,0.0,0.0,0.0,0.0,0.0,0.0,1.455,1.4566,1.4377,0.0,0.0,0.0,0.0,0.0,0.0,0.0,0.0,0.0,0.0,0.0,0.0,0.0,0.0,0.0,0.0,0.0,0.0,0.0,0.0,0.0,0.0,0.0,0.0,0.0,0.0,0.0,0.0,0.0,0.0,0.0,0.0,0.0,0.0,0.0,0.0,0.0,0.0,0.0,0.0,0.0,0.0,0.0,0.0,0.0,0.0,0.0,0.0,0.0,0.0,0.0,0.0,0.0,0.0,0.0,0.0,0.0,0.0,0.0,0.0,0.0,0.0,0.0,0.0,0.0,0.0,0.0,0.0,0.0,0.0,0.0,0.0,0.0,0.0,0.0,0.0,0.0,0.0,0.0,0.0,0.0,0.0,0.0,0.0,0.0,0.0,0.0,0.0,0.0,0.0,0.0,0.0,0.0,0.0,0.0,0.0,0.0,0.0,0.0,0.0,0.0,0.0,0.0,0.0,0.0,0.0,0.0,0.0,0.0,0.0,1.4004,0.0,1.5305,1.4803,1.425,1.3715,0.0,0.0,0.0,0.0,0.0,0.0,0.0,0.0,0.0,0.0,0.0,0.0,0.0,0.0,0.0,0.0,0.0,0.0,0.0,0.0,0.0,0.0,0.0,0.0,0.0,0.0,0.0,0.0,0.0,0.0,0.0,0.0,0.0,0.0,0.0,0.0,0.0,0.0,0.0,0.0,0.0,0.0,0.0,0.0,0.0,0.0,0.0,0.0,0.0,0.0,0.0,0.0,0.0,0.0,0.0,0.0,0.0,0.0,0.0,0.0,0.0,0.0,0.0,0.0,0.0,0.0,0.0,0.0,0.0,0.0,0.0,0.0,0.0,0.0,0.0,0.0,0.0,0.0,0.0,0.0,0.0,0.0,0.0,0.0,0.0,0.0,0.0,0.0,0.0,0.0,0.0,0.0,0.0,0.0,0.0,0.0,0.0,0.0,0.0,0.0,0.0,0.0,0.0,0.0,0.0,0.0,0.0,0.0,0.0,1.4257,1.537,1.6153,1.5625,1.4298,0.0,0.0,0.0,0.0,0.0,0.0,0.0,0.0,0.0,0.0,0.0,0.0,0.0,0.0,0.0,0.0,0.0,0.0,0.0,0.0,0.0,0.0,0.0,0.0,0.0,0.0,0.0,0.0,0.0,0.0,0.0,0.0,0.0,0.0,0.0,0.0,0.0,0.0,0.0,0.0,0.0,0.0,0.0,0.0,0.0,0.0,0.0,0.0,0.0,0.0,0.0,0.0,0.0,0.0,0.0,0.0,0.0,0.0,0.0,0.0,0.0,0.0,0.0,0.0,0.0,0.0,0.0,0.0,0.0,0.0,0.0,0.0,0.0,0.0,0.0,0.0,0.0,0.0,0.0,0.0,0.0,0.0,0.0,0.0,0.0,0.0,0.0,0.0,0.0,0.0,0.0,0.0,0.0,0.0,0.0,0.0,0.0,0.0,0.0,0.0,0.0,0.0,0.0,0.0,0.0,0.0,0.0,0.0,0.0,1.4224,1.5752,1.6454,1.6296,1.5631,1.4512,0.0,0.0,0.0,0.0,0.0,0.0,0.0,0.0,0.0,0.0,0.0,0.0,0.0,0.0,0.0,0.0,0.0,0.0,0.0,0.0,0.0,0.0,0.0,0.0,0.0,0.0,0.0,0.0,0.0,0.0,0.0,0.0,0.0,0.0,0.0,0.0,0.0,0.0,0.0,0.0,0.0,0.0,0.0,0.0,0.0,0.0,0.0,0.0,0.0,0.0,0.0,0.0,0.0,0.0,0.0,0.0,0.0,0.0,0.0,0.0,0.0,0.0,0.0,0.0,0.0,0.0,0.0,0.0,0.0,0.0,0.0,0.0,0.0,0.0,0.0,0.0,0.0,0.0,0.0,0.0,0.0,0.0,0.0,0.0,0.0,0.0,0.0,0.0,0.0,0.0,0.0,0.0,0.0,0.0,0.0,0.0,0.0,0.0,0.0,0.0,0.0,0.0,0.0,0.0,0.0,0.0,0.0,0.0,0.0,1.5043,0.0,1.6814,0.0,1.5662,1.4512,0.0,0.0,0.0,0.0,0.0,0.0,0.0,0.0,0.0,0.0,0.0,0.0,0.0,0.0,0.0,0.0,0.0,0.0,0.0,0.0,0.0,0.0,0.0,0.0,0.0,0.0,0.0,0.0,0.0,0.0,0.0,0.0,0.0,0.0,0.0,0.0,0.0,0.0,0.0,0.0,0.0,0.0,0.0,0.0,0.0,0.0,0.0,0.0,0.0,0.0,0.0,0.0,0.0,0.0,0.0,0.0,0.0,0.0,0.0,0.0,0.0,0.0,0.0,0.0,0.0,0.0,0.0,0.0,0.0,0.0,0.0,0.0,0.0,0.0,0.0,0.0,0.0,0.0,0.0,0.0,0.0,0.0,0.0,0.0,0.0,0.0,0.0,0.0,0.0,0.0,0.0,0.0,0.0,0.0,0.0,0.0,0.0,0.0,0.0,0.0,0.0,0.0,0.0,0.0,0.0,0.0,0.0,0.0,0.0,1.5177,1.6006,1.6463,1.6415,1.575,1.4307,0.0,0.0,0.0,0.0,0.0,0.0,0.0,0.0,0.0,0.0,0.0,0.0,0.0,0.0,0.0,0.0,0.0,0.0,0.0,0.0,0.0,0.0,0.0,0.0,0.0,0.0,0.0,0.0,0.0,0.0,0.0,0.0,0.0,0.0,0.0,0.0,0.0,0.0,0.0,0.0,0.0,0.0,0.0,0.0,0.0,0.0,0.0,0.0,0.0,0.0,0.0,0.0,0.0,0.0,0.0,0.0,0.0,0.0,0.0,0.0,0.0,0.0,0.0,0.0,0.0,0.0,0.0,0.0,0.0,0.0,0.0,0.0,0.0,0.0,0.0,0.0,0.0,0.0,0.0,0.0,0.0,0.0,0.0,0.0,0.0,0.0,0.0,0.0,0.0,0.0,0.0,0.0,0.0,0.0,0.0,0.0,0.0,0.0,0.0,0.0,0.0,0.0,0.0,0.0,0.0,0.0,0.0,0.0,0.0,1.5973,1.7179,1.7605,1.7171,1.6459,1.4999,0.0,0.0,0.0,0.0,0.0,0.0,0.0,0.0,0.0,0.0,0.0,0.0,0.0,0.0,0.0,0.0,0.0,0.0,0.0,0.0,0.0,0.0,0.0,0.0,0.0,0.0,0.0,0.0,0.0,0.0,0.0,0.0,0.0,0.0,0.0,0.0,0.0,0.0,0.0,0.0,0.0,0.0,0.0,0.0,0.0,0.0,0.0,0.0,0.0,0.0,0.0,0.0,0.0,0.0,0.0,0.0,0.0,0.0,0.0,0.0,0.0,0.0,0.0,0.0,0.0,0.0,0.0,0.0,0.0,0.0,0.0,0.0,0.0,0.0,0.0,0.0,0.0,0.0,0.0,0.0,0.0,0.0,0.0,0.0,0.0,0.0,0.0,0.0,0.0,0.0,0.0,0.0,0.0,0.0,0.0,0.0,0.0,0.0,0.0,0.0,0.0,0.0,0.0,0.0,0.0,0.0,0.0,0.0,0.0,1.7963,1.8843,1.9114,1.8696,1.7729,1.6166,1.4013,0.0,0.0,0.0,0.0,0.0,0.0,0.0,0.0,0.0,0.0,0.0,0.0,0.0,0.0,0.0,0.0,0.0,0.0,0.0,0.0,0.0,0.0,0.0,0.0,0.0,0.0,0.0,0.0,0.0,0.0,0.0,0.0,0.0,0.0,0.0,0.0,0.0,0.0,0.0,0.0,0.0,0.0,0.0,0.0,0.0,0.0,0.0,0.0,0.0,0.0,0.0,0.0,0.0,0.0,0.0,0.0,0.0,0.0,0.0,0.0,0.0,0.0,0.0,0.0,0.0,0.0,0.0,0.0,0.0,0.0,0.0,0.0,0.0,0.0,0.0,0.0,0.0,0.0,0.0,0.0,0.0,0.0,0.0,0.0,0.0,0.0,0.0,0.0,0.0,0.0,0.0,0.0,0.0,0.0,0.0,0.0,0.0,0.0,0.0,0.0,0.0,0.0,0.0,0.0,0.0,0.0,0.0,0.0,2.0858,2.0943,2.095,2.0725,1.9373,1.7617,0.0,0.0,0.0,0.0,0.0,0.0,0.0,0.0,0.0,0.0,0.0,0.0,0.0,0.0,0.0,0.0,0.0,0.0,0.0,0.0,0.0,0.0,0.0,0.0,0.0,0.0,0.0,0.0,0.0,0.0,0.0,0.0,0.0,0.0,0.0,0.0,0.0,0.0,0.0,0.0,0.0,0.0,0.0,0.0,0.0,0.0,0.0,0.0,0.0,0.0,0.0,0.0,0.0,0.0,0.0,0.0,0.0,0.0,0.0,0.0,0.0,0.0,0.0,0.0,0.0,0.0,0.0,0.0,0.0,0.0,0.0,0.0,0.0,0.0,0.0,0.0,0.0,0.0,0.0,0.0,0.0,0.0,0.0,0.0,0.0,0.0,0.0,0.0,0.0,0.0,0.0,0.0,0.0,0.0,0.0,0.0,0.0,0.0,0.0,0.0,0.0,0.0,0.0,0.0,0.0,0.0,0.0,0.0,0.0,2.3056,2.4216,2.3719,2.158,2.0612,1.9127,0.0,0.0,0.0,0.0,0.0,0.0,0.0,0.0,0.0,0.0,0.0,0.0,0.0,0.0,0.0,0.0,0.0,0.0,0.0,0.0,0.0,0.0,0.0,0.0,0.0,0.0,0.0,0.0,0.0,0.0,0.0,0.0,0.0,0.0,0.0,0.0,0.0,0.0,0.0,0.0,0.0,0.0,0.0,0.0,0.0,0.0,0.0,0.0,0.0,0.0,0.0,0.0,0.0,0.0,0.0,0.0,0.0,0.0,0.0,0.0,0.0,0.0,0.0,0.0,0.0,0.0,0.0,0.0,0.0,0.0,0.0,0.0,0.0,0.0,0.0,0.0,0.0,0.0,0.0,0.0,0.0,0.0,0.0,0.0,0.0,0.0,0.0,0.0,0.0,0.0,0.0,0.0,0.0,0.0,0.0,0.0,0.0,0.0,0.0,0.0,0.0,0.0,0.0,0.0,0.0,0.0,0.0,0.0,2.2585,2.487,2.6369,2.6146,2.4158,2.2807,2.0903,0.0,0.0,0.0,0.0,0.0,0.0,0.0,0.0,0.0,0.0,0.0,0.0,0.0,0.0,0.0,0.0,0.0,0.0,0.0,0.0,0.0,0.0,0.0,0.0,0.0,0.0,0.0,0.0,0.0,0.0,0.0,0.0,0.0,0.0,0.0,0.0,0.0,0.0,0.0,0.0,0.0,0.0,0.0,0.0,0.0,0.0,0.0,0.0,0.0,0.0,0.0,0.0,0.0,0.0,0.0,0.0,0.0,0.0,0.0,0.0,0.0,0.0,0.0,0.0,0.0,0.0,0.0,0.0,0.0,0.0,0.0,0.0,0.0,0.0,0.0,0.0,0.0,0.0,0.0,0.0,0.0,0.0,0.0,0.0,0.0,0.0,0.0,0.0,0.0,0.0,0.0,0.0,0.0,0.0,0.0,0.0,0.0,0.0,0.0,0.0,0.0,0.0,0.0,0.0,0.0,0.0,0.0,0.0,2.477,2.6294,2.7737,2.821,2.7481,2.5384,2.285,0.0,0.0,0.0,0.0,0.0,0.0,0.0,0.0,0.0,0.0,0.0,0.0,0.0,0.0,0.0,0.0,0.0,0.0,0.0,0.0,0.0,0.0,0.0,0.0,0.0,0.0,0.0,0.0,0.0,0.0,0.0,0.0,0.0,0.0,0.0,0.0,0.0,0.0,0.0,0.0,0.0,0.0,0.0,0.0,0.0,0.0,0.0,0.0,0.0,0.0,0.0,0.0,0.0,0.0,0.0,0.0,0.0,0.0,0.0,0.0,0.0,0.0,0.0,0.0,0.0,0.0,0.0,0.0,0.0,0.0,0.0,0.0,0.0,0.0,0.0,0.0,0.0,0.0,0.0,0.0,0.0,0.0,0.0,0.0,0.0,0.0,0.0,0.0,0.0,0.0,0.0,0.0,0.0,0.0,0.0,0.0,0.0,0.0,0.0,0.0,0.0,0.0,0.0,0.0,0.0,0.0,0.0,0.0,2.4986,2.7017,2.8456,2.9109,2.8953,2.6866,2.439,0.0,0.0,0.0,0.0,0.0,0.0,0.0,0.0,0.0,0.0,0.0,0.0,0.0,0.0,0.0,0.0,0.0,0.0,0.0,0.0,0.0,0.0,0.0,0.0,0.0,0.0,0.0,0.0,0.0,0.0,0.0,0.0,0.0,0.0,0.0,0.0,0.0,0.0,0.0,0.0,0.0,0.0,0.0,0.0,0.0,0.0,0.0,0.0,1.9603,0.0,0.0,0.0,0.0,0.0,0.0,0.0,0.0,0.0,0.0,0.0,0.0,0.0,0.0,0.0,0.0,0.0,0.0,0.0,0.0,0.0,0.0,0.0,0.0,0.0,0.0,0.0,0.0,0.0,0.0,0.0,0.0,0.0,0.0,0.0,0.0,0.0,0.0,0.0,0.0,0.0,0.0,0.0,0.0,0.0,0.0,0.0,0.0,0.0,0.0,0.0,0.0,0.0,0.0,0.0,0.0,0.0,0.0,0.0,2.6104,2.8234,2.934,2.9924,2.9951,2.8225,2.5743,0.0,0.0,0.0,0.0,0.0,0.0,0.0,0.0,0.0,0.0,0.0,0.0,0.0,0.0,0.0,0.0,0.0,0.0,0.0,0.0,0.0,0.0,0.0,0.0,0.0,0.0,0.0,0.0,0.0,0.0,0.0,0.0,0.0,0.0,0.0,0.0,0.0,0.0,0.0,0.0,0.0,0.0,0.0,0.0,0.0,0.0,0.0,0.0,0.0,0.0,0.0,0.0,0.0,0.0,0.0,0.0,0.0,0.0,0.0,0.0,0.0,0.0,0.0,0.0,0.0,0.0,0.0,0.0,0.0,0.0,0.0,0.0,0.0,0.0,0.0,0.0,0.0,0.0,0.0,0.0,0.0,0.0,0.0,0.0,0.0,0.0,0.0,0.0,0.0,0.0,0.0,0.0,0.0,0.0,0.0,0.0,0.0,0.0,0.0,0.0,0.0,0.0,0.0,0.0,0.0,0.0,0.0,2.5068,2.7254,2.934,3.0125,3.0562,3.0675,2.9176,2.6712,0.0,0.0,0.0,0.0,0.0,0.0,0.0,0.0,0.0,0.0,0.0,0.0,0.0,0.0,0.0,0.0,0.0,0.0,0.0,0.0,0.0,0.0,0.0,0.0,0.0,0.0,0.0,0.0,0.0,0.0,0.0,0.0,0.0,0.0,0.0,0.0,0.0,0.0,0.0,1.7936,2.0188,0.0,0.0,0.0,0.0,0.0,0.0,0.0,0.0,2.1246,0.0,0.0,0.0,0.0,0.0,0.0,0.0,0.0,0.0,0.0,0.0,0.0,0.0,0.0,0.0,0.0,0.0,0.0,0.0,0.0,0.0,0.0,0.0,0.0,0.0,0.0,0.0,0.0,0.0,0.0,0.0,0.0,0.0,0.0,0.0,0.0,0.0,0.0,0.0,0.0,0.0,0.0,0.0,0.0,0.0,0.0,0.0,0.0,0.0,0.0,0.0,0.0,0.0,0.0,0.0,0.0,2.2865,2.5077,2.7254,2.934,3.0125,3.0562,3.0642,2.8734,2.6526,2.4155,0.0,0.0,0.0,0.0,0.0,0.0,0.0,0.0,0.0,0.0,0.0,0.0,0.0,0.0,0.0,0.0,0.0,0.0,0.0,0.0,0.0,0.0,0.0,0.0,0.0,0.0,0.0,0.0,0.0,0.0,0.0,0.0,0.0,0.0,0.0,0.0,0.0,0.0,0.0,2.2294,2.3267,0.0,0.0,0.0,0.0,0.0,0.0,0.0,0.0,2.2259,0.0,0.0,0.0,0.0,0.0,0.0,0.0,0.0,0.0,0.0,0.0,0.0,0.0,0.0,0.0,0.0,0.0,0.0,0.0,0.0,0.0,0.0,0.0,0.0,0.0,0.0,0.0,0.0,0.0,0.0,0.0,0.0,0.0,0.0,0.0,0.0,0.0,0.0,0.0,0.0,0.0,0.0,0.0,0.0,0.0,0.0,0.0,0.0,0.0,0.0,0.0,0.0,0.0,0.0,0.0,2.3354,2.5649,2.7793,2.9893,3.0334,3.0352,3.0109,2.8419,2.6335,0.0,0.0,0.0,0.0,0.0,0.0,0.0,0.0,0.0,0.0,0.0,0.0,0.0,0.0,0.0,0.0,0.0,0.0,0.0,0.0,0.0,0.0,0.0,0.0,0.0,0.0,0.0,0.0,0.0,0.0,0.0,0.0,0.0,0.0,0.0,0.0,0.0,0.0,0.0,0.0,2.3911,2.4867,2.4607,0.0,0.0,0.0,0.0,0.0,0.0,2.3825,2.3279,0.0,0.0,0.0,0.0,0.0,0.0,0.0,0.0,0.0,0.0,0.0,0.0,0.0,0.0,0.0,0.0,0.0,0.0,0.0,0.0,0.0,0.0,0.0,0.0,0.0,0.0,0.0,0.0,0.0,0.0,0.0,0.0,0.0,0.0,0.0,0.0,0.0,0.0,0.0,0.0,0.0,0.0,0.0,0.0,0.0,0.0,0.0,0.0,0.0,0.0,0.0,0.0,0.0,0.0,0.0,2.3918,2.6188,2.8333,3.039,3.0489,3.023,2.9606,2.8094,2.5966,0.0,0.0,0.0,0.0,0.0,0.0,0.0,0.0,0.0,0.0,0.0,0.0,0.0,0.0,0.0,0.0,0.0,0.0,0.0,0.0,0.0,0.0,0.0,0.0,0.0,0.0,0.0,0.0,0.0,0.0,0.0,0.0,0.0,0.0,0.0,0.0,0.0,0.0,0.0,0.0,0.0,2.6286,2.6042,2.6258,0.0,0.0,0.0,0.0,2.6192,2.551,0.0,0.0,0.0,0.0,0.0,0.0,0.0,0.0,0.0,0.0,0.0,0.0,0.0,0.0,0.0,0.0,0.0,0.0,0.0,0.0,0.0,0.0,0.0,0.0,0.0,0.0,0.0,0.0,0.0,0.0,0.0,0.0,0.0,0.0,0.0,0.0,0.0,0.0,0.0,0.0,0.0,0.0,0.0,0.0,0.0,0.0,0.0,0.0,0.0,0.0,0.0,0.0,0.0,0.0,0.0,0.0,2.3909,2.6188,2.8343,3.0357,3.0489,3.0217,2.9684,2.7645,2.5246,0.0,0.0,0.0,0.0,0.0,0.0,0.0,0.0,0.0,0.0,0.0,0.0,0.0,0.0,0.0,0.0,0.0,0.0,0.0,0.0,0.0,0.0,0.0,0.0,0.0,0.0,0.0,0.0,0.0,0.0,0.0,0.0,0.0,0.0,0.0,0.0,0.0,0.0,0.0,0.0,0.0,2.7275,2.7891,2.7455,2.7275,0.0,0.0,0.0,2.8389,2.8701,0.0,0.0,0.0,0.0,0.0,0.0,0.0,0.0,0.0,0.0,0.0,0.0,0.0,0.0,0.0,0.0,0.0,0.0,0.0,0.0,0.0,0.0,0.0,0.0,0.0,0.0,0.0,0.0,0.0,0.0,0.0,0.0,0.0,0.0,0.0,0.0,0.0,0.0,0.0,0.0,0.0,0.0,0.0,0.0,0.0,0.0,0.0,0.0,0.0,0.0,0.0,0.0,0.0,0.0,0.0,2.073,2.3943,2.6586,2.8764,3.0423,3.0489,3.0031,2.9048,2.7317,2.5079,0.0,0.0,0.0,0.0,0.0,0.0,0.0,0.0,0.0,0.0,0.0,0.0,0.0,0.0,0.0,0.0,0.0,0.0,0.0,0.0,0.0,0.0,0.0,0.0,0.0,0.0,0.0,0.0,0.0,0.0,0.0,0.0,0.0,0.0,0.0,0.0,0.0,0.0,0.0,0.0,0.0,0.0,2.9396,2.9655,0.0,0.0,0.0,3.052,3.1142,0.0,0.0,0.0,0.0,0.0,0.0,0.0,0.0,0.0,0.0,0.0,0.0,0.0,0.0,0.0,0.0,0.0,0.0,0.0,0.0,0.0,0.0,0.0,0.0,0.0,0.0,0.0,0.0,0.0,0.0,0.0,0.0,0.0,0.0,0.0,0.0,0.0,0.0,0.0,0.0,0.0,0.0,0.0,0.0,0.0,0.0,0.0,0.0,0.0,0.0,0.0,0.0,0.0,0.0,0.0,0.0,0.0,2.3984,2.6908,2.9095,3.0423,3.0489,2.9878,2.8524,2.7096,0.0,0.0,0.0,0.0,0.0,0.0,0.0,0.0,0.0,0.0,0.0,0.0,0.0,0.0,0.0,0.0,0.0,0.0,0.0,0.0,0.0,0.0,0.0,0.0,0.0,0.0,0.0,0.0,0.0,0.0,0.0,0.0,0.0,0.0,0.0,0.0,0.0,0.0,0.0,0.0,0.0,0.0,3.0295,3.09,3.1733,3.2497,0.0,0.0,3.2785,3.3475,3.2691,3.1367,0.0,0.0,0.0,0.0,0.0,0.0,0.0,0.0,0.0,0.0,0.0,0.0,0.0,0.0,0.0,0.0,0.0,0.0,0.0,0.0,0.0,0.0,0.0,0.0,0.0,0.0,0.0,0.0,0.0,0.0,0.0,0.0,0.0,0.0,0.0,0.0,0.0,0.0,0.0,0.0,0.0,0.0,0.0,0.0,0.0,0.0,0.0,0.0,0.0,0.0,0.0,0.0,0.0,0.0,0.0,2.3984,2.6908,2.9095,3.0423,3.0489,2.9845,2.8515,2.7084,2.4696,0.0,0.0,0.0,0.0,0.0,0.0,0.0,0.0,0.0,0.0,0.0,0.0,0.0,0.0,0.0,0.0,0.0,0.0,0.0,0.0,0.0,0.0,0.0,0.0,0.0,0.0,0.0,0.0,0.0,0.0,0.0,0.0,0.0,0.0,0.0,0.0,0.0,0.0,0.0,0.0,0.0,3.123,3.2413,3.3183,3.397,0.0,0.0,3.4699,3.4939,3.5064,3.3937,3.0259,0.0,0.0,0.0,0.0,0.0,0.0,0.0,0.0,0.0,0.0,0.0,0.0,0.0,0.0,0.0,0.0,0.0,0.0,0.0,0.0,0.0,0.0,0.0,0.0,0.0,0.0,0.0,0.0,0.0,0.0,0.0,0.0,0.0,0.0,0.0,0.0,0.0,0.0,0.0,0.0,0.0,0.0,0.0,0.0,0.0,0.0,0.0,0.0,0.0,0.0,0.0,0.0,0.0,2.1286,2.4638,2.7149,2.9095,3.0423,3.0489,3.0117,2.9254,2.7763,2.5747,0.0,0.0,0.0,0.0,0.0,0.0,0.0,0.0,0.0,0.0,0.0,0.0,0.0,0.0,0.0,0.0,0.0,0.0,0.0,0.0,0.0,0.0,0.0,0.0,0.0,0.0,0.0,0.0,1.6178,1.723,1.8105,0.0,0.0,0.0,0.0,0.0,0.0,0.0,0.0,0.0,0.0,3.393,3.5227,3.6009,0.0,0.0,3.7144,3.6856,3.7046,3.6152,3.4696,3.2495,3.0758,0.0,0.0,0.0,0.0,0.0,0.0,0.0,0.0,0.0,0.0,0.0,0.0,0.0,0.0,0.0,0.0,0.0,0.0,0.0,0.0,0.0,0.0,0.0,0.0,0.0,0.0,0.0,0.0,0.0,0.0,0.0,0.0,0.0,0.0,0.0,0.0,0.0,0.0,0.0,0.0,0.0,0.0,0.0,0.0,0.0,0.0,0.0,0.0,0.0,0.0,0.0,0.0,2.1849,2.5068,2.7462,2.9274,3.0499,3.0489,3.0217,2.9664,2.8386,2.6765,0.0,0.0,0.0,0.0,0.0,0.0,0.0,0.0,0.0,0.0,0.0,0.0,0.0,0.0,0.0,0.0,0.0,0.0,0.0,0.0,0.0,0.0,0.0,0.0,0.0,0.0,0.0,0.0,1.7894,1.8689,1.9032,0.0,0.0,0.0,0.0,0.0,0.0,0.0,0.0,0.0,0.0,3.6403,3.7574,3.8334,3.8897,3.9201,3.8729,3.8274,3.8179,3.6751,3.5216,3.3989,0.0,0.0,0.0,0.0,0.0,0.0,0.0,0.0,0.0,0.0,0.0,0.0,0.0,0.0,0.0,0.0,0.0,0.0,0.0,0.0,0.0,0.0,0.0,0.0,0.0,0.0,0.0,0.0,0.0,0.0,0.9903,0.0,0.0,0.0,0.0,0.0,0.0,0.0,0.0,0.0,0.0,0.0,0.0,0.0,0.0,0.0,0.0,0.0,0.0,0.0,0.0,0.0,0.0,0.0,2.511,2.7949,2.9771,3.0489,3.0489,3.022,2.9619,2.8799,2.7413,2.5305,0.0,0.0,0.0,0.0,0.0,0.0,0.0,0.0,0.0,0.0,0.0,0.0,0.0,0.0,0.0,0.0,0.0,0.0,0.0,0.0,0.0,0.0,0.0,0.0,0.0,0.0,1.806,1.9368,1.9882,0.0,0.0,0.0,0.0,0.0,0.0,0.0,0.0,0.0,0.0,3.6261,3.8476,3.9087,3.9782,4.0068,3.9523,3.919,3.8759,3.8089,3.6966,3.5675,0.0,0.0,0.0,0.0,0.0,0.0,0.0,0.0,0.0,0.0,0.0,0.0,0.0,0.0,0.0,0.0,0.0,0.0,0.0,0.0,0.0,0.0,0.0,0.0,0.0,0.0,0.0,1.5443,1.4741,0.0,0.0,0.0,0.0,0.0,0.0,0.0,0.0,0.0,0.0,0.0,2.0351,2.0593,0.0,0.0,0.0,0.0,0.0,0.0,0.0,0.0,0.0,0.0,0.0,0.0,2.3362,2.6519,2.891,3.0489,3.1217,3.1217,3.0991,3.0463,2.956,2.7869,2.5364,0.0,0.0,0.0,0.0,0.0,0.0,0.0,0.0,0.0,0.0,0.0,0.0,0.0,0.0,0.0,0.0,0.0,0.0,0.0,0.0,0.0,0.0,0.0,0.0,0.0,1.8059,0.0,0.0,0.0,0.0,0.0,0.0,0.0,0.0,0.0,0.0,0.0,3.5199,3.7118,3.9038,4.0478,4.1154,4.136,4.141,0.0,0.0,0.0,0.0,0.0,0.0,0.0,0.0,0.0,0.0,0.0,0.0,0.0,0.0,3.3431,3.0676,3.0075,2.99,2.9639,0.0,0.0,0.0,0.0,0.0,0.0,0.0,0.0,0.0,0.0,0.0,0.0,0.0,0.0,0.0,0.0,1.6855,0.0,0.0,0.0,0.0,0.0,0.0,0.0,0.0,2.1495,2.2512,2.3257,2.3539,2.3733,0.0,2.3614,2.217,0.0,0.0,0.0,0.0,0.0,0.0,0.0,0.0,2.4522,2.7613,2.9781,3.1217,3.1923,3.199,3.1711,3.1211,3.0089,2.8529,2.6533,2.4496,2.2719,0.0,0.0,0.0,0.0,0.0,0.0,0.0,0.0,0.0,0.0,0.0,0.0,0.0,0.0,0.0,0.0,0.0,0.0,0.0,0.0,0.0,0.0,0.0,1.9791,0.0,0.0,0.0,0.0,0.0,0.0,0.0,0.0,0.0,3.2818,3.5774,3.8526,4.0183,4.1555,4.2576,4.2963,0.0,0.0,0.0,0.0,0.0,0.0,0.0,3.9246,3.915,3.8792,3.8853,3.9838,4.0357,4.065,4.0583,0.0,0.0,3.5383,3.4588,3.4428,3.4208,3.5195,3.6141,3.6326,3.7041,3.7825,0.0,0.0,0.0,0.0,0.0,0.0,0.0,0.0,2.0465,2.0014,0.0,1.9854,0.0,0.0,0.0,0.0,0.0,0.0,0.0,0.0,2.5368,2.6079,2.5202,2.5908,2.6187,2.6009,2.6213,2.6088,2.5533,2.1595,0.0,0.0,0.0,0.0,0.0,0.0,2.627,2.8442,3.0599,3.2023,3.2707,3.274,3.2431,3.1753,3.0419,2.9349,2.8596,2.712,2.5438,2.3409,2.1733,0.0,0.0,0.0,0.0,0.0,0.0,0.0,0.0,0.0,0.0,0.0,0.0,0.0,0.0,0.0,0.0,0.0,0.0,0.0,0.0,2.0177,0.0,0.0,0.0,0.0,0.0,0.0,0.0,0.0,0.0,0.0,3.6108,3.9173,4.1759,4.2506,0.0,0.0,0.0,0.0,4.4417,4.4342,4.4024,4.3428,4.2397,4.1983,4.1692,4.1375,0.0,0.0,4.301,4.3089,4.3175,4.3341,4.2869,4.1629,3.9215,3.8529,3.8492,3.9073,3.9276,3.9596,4.0089,4.0321,4.0583,2.2714,0.0,0.0,0.0,0.0,2.245,2.3098,2.4008,2.3917,2.3641,2.3264,2.297,0.0,0.0,0.0,0.0,0.0,0.0,2.4328,2.4837,2.6524,2.729,2.7245,2.7934,2.8322,2.838,2.844,2.8411,2.8158,2.6078,2.4108,2.2352,0.0,0.0,0.0,0.0,2.7737,2.987,3.2067,3.3259,3.3469,3.3491,3.2884,3.1702,3.1366,3.0575,2.9343,2.8343,2.7323,2.6222,2.3708,0.0,0.0,0.0,0.0,0.0,0.0,0.0,0.0,0.0,0.0,0.0,0.0,0.0,0.0,0.0,0.0,0.0,0.0,0.0,2.0531,2.106,2.1876,0.0,0.0,0.0,0.0,0.0,0.0,0.0,0.0,0.0,4.2273,4.3233,4.4026,0.0,0.0,4.5304,4.5782,4.5718,4.5832,4.6471,0.0,0.0,0.0,4.4508,4.4093,4.3687,4.4499,4.5191,4.514,4.5484,4.5691,4.5412,4.5208,4.4784,4.3941,4.2569,4.1744,4.1918,4.2615,4.3282,4.3507,4.3884,4.4385,2.7071,2.6364,2.4843,2.4342,2.4598,2.4901,2.5342,2.5852,2.5786,2.5601,2.5401,2.5238,2.4549,2.346,2.331,0.0,0.0,0.0,2.656,2.7213,2.8215,2.8747,2.8853,2.9461,2.9911,3.0204,3.0225,3.0371,3.0647,2.9552,2.8337,2.6891,0.0,0.0,2.5748,2.7339,2.9185,3.1327,3.2961,3.3933,3.422,3.3967,3.3226,3.2089,3.1823,3.1178,3.0055,2.95,2.8945,2.8277,2.6232,2.4025,0.0,0.0,0.0,0.0,0.0,0.0,0.0,0.0,0.0,0.0,0.0,1.6299,0.0,0.0,0.0,0.0,1.8939,2.0432,2.2518,2.3507,0.0,0.0,0.0,0.0,0.0,0.0,0.0,3.8194,4.1196,4.3949,4.6258,4.6732,4.6941,4.7073,4.6635,4.6567,4.7258,0.0,4.7047,4.8189,4.8202,4.7769,4.6848,4.6548,4.621,4.5745,4.6235,4.6582,4.631,4.6541,4.6624,4.6231,4.6272,4.6402,4.6295,4.5488,4.4792,4.4589,4.5111,4.5692,4.6005,4.6359,4.6789,3.1091,3.123,2.8577,2.6955,2.6218,2.692,2.7036,2.673,2.673,2.6562,2.6385,2.6957,2.6409,2.5053,2.5663,0.0,2.7794,2.8522,2.9105,2.9686,3.0269,3.0391,3.0091,3.057,3.1084,3.1594,3.1605,3.1979,3.2608,3.199,3.1692,3.1581,2.837,2.7353,2.8598,2.935,3.0709,3.2774,3.3503,3.4232,3.4849,3.4232,3.3503,3.2718,3.2023,3.137,3.0721,3.0551,3.0242,2.9699,2.8865,2.6818,2.3388,0.0,0.0,0.0,0.0,0.0,0.0,0.0,0.0,0.0,0.0,0.0,0.0,0.0,0.0,0.0,2.1727,0.0,2.4476,2.7005,0.0,0.0,0.0,3.3754,3.5957,3.7963,4.0115,4.2542,0.0,0.0,0.0,0.0,5.0088,4.9458,4.8563,4.8169,4.8785,4.8252,4.8246,4.9367,4.9565,4.9119,4.801,4.7872,4.7711,4.7194,4.7309,4.7106,4.6779,4.6668,4.652,4.6211,4.6534,4.6888,4.6888,4.7259,4.7608,4.6975,4.6859,4.7033,4.7544,4.7689,4.7695,3.155,3.1919,3.0957,3.0291,2.9919,3.0089,2.9916,2.9458,2.9445,2.9357,2.9218,2.9286,2.8958,2.8427,2.8577,2.883,2.9186,3.0259,3.0532,3.0278,3.1316,3.1683,3.1504,3.1646,3.1958,3.2398,3.2409,3.2519,3.2685,3.2542,3.2431,3.2376,3.1581,3.104,3.0864,3.157,3.2442,3.3536,3.4253,3.4717,3.4883,3.4729,3.4,3.2718,3.2542,3.1846,3.063,3.051,3.0444,3.0276,2.9072,2.7505,2.5499,2.2941,0.0,0.0,0.0,0.0,0.0,0.0,0.0,0.0,0.0,2.0922,2.1889,0.0,2.471,0.0,2.4752,2.6159,2.8664,2.9687,0.0,0.0,3.5634,3.7611,3.9416,4.1637,4.3723,4.5505,4.7033,4.8517,4.9993,5.0656,5.1198,5.1512,5.0307,4.9446,4.9473,4.9895,4.9993,4.97,5.0164,5.0146,4.8647,4.7883,4.7455,4.7344,4.7309,4.7285,4.7273,4.7301,4.7261,4.7317,4.7457,4.755,4.755,4.7695,4.7956,4.8135,4.7874,4.7579,4.7753,4.7834,4.7956,3.2878,3.3019,3.2801,3.2492,3.2095,3.1338,3.0797,3.0386,3.0386,3.0295,3.0099,2.99,2.9893,3.0011,3.027,3.0543,3.0931,3.1791,3.1995,3.1704,3.2609,3.2839,3.2473,3.2709,3.2953,3.3171,3.3171,3.337,3.3668,3.3701,3.3668,3.3668,3.3668,3.3458,3.3082,3.3171,3.3569,3.4265,3.4684,3.4928,3.4928,3.4928,3.4187,3.274,3.2685,3.2,3.0555,3.0489,3.0489,3.0456,2.9748,2.8688,2.723,2.5231,2.3424,0.0,0.0,0.0,0.0,0.0,0.0,0.0,0.0,0.0,0.0,0.0,2.7581,0.0,2.8858,0.0,3.263,3.4136,3.5977,3.8411,3.9602,4.1199,4.372,4.5092,4.643,4.8038,4.8897,4.9859,5.1037,5.1175,5.152,5.2254,5.1272,5.0554,5.0808,5.0997,5.0816,5.0339,5.0723,5.0531,4.8831,4.7849,4.7266,4.7157,4.7396,4.7518,4.7433,4.7584,4.7792,4.7788,4.8014,4.8188,4.8217,4.8711,4.9228,4.9436,4.9553,4.9378,4.9141,4.9083,4.9262,3.4337,3.4126,3.4038,3.3733,3.3188,3.1649,3.0866,3.0663,3.0663,3.0488,3.0253,3.0061,3.0257,3.064,3.1263,3.1842,3.2424,3.2931,3.3235,3.3358,3.393,3.3876,3.3271,3.3724,3.3967,3.3933,3.3933,3.4286,3.4894,3.4928,3.4928,3.4928,3.4928,3.4928,3.4894,3.4253,3.4253,3.4894,3.4928,3.4928,3.4928,3.4928,3.422,3.2939,3.274,3.2034,3.0721,3.0566,3.0489,3.0489,3.0489,2.9903,2.8598,2.7763,2.6719,0.0,2.4392,0.0,0.0,0.0,0.0,0.0,0.0,0.0,0.0,2.9705,3.041,3.1707,3.3563,3.517,3.6362,3.8995,4.1273,4.2782,4.3266,4.4631,4.7499,4.8002,4.8581,4.993,5.044,5.0946,5.1471,5.1303,5.1415,5.198,5.1387,5.1099,5.1893,5.1369,5.0786,5.0704,5.0608,4.9829,4.8748,4.7903,4.7358,4.7272,4.7629,4.7835,4.758,4.7921,4.8208,4.8143,4.8508,4.8832,4.8919,4.9901,5.0651,5.0739,5.1091,5.1211,5.0855,5.071,5.0975,3.4312,3.4213,3.3668,3.3401,3.3237,3.2448,3.2054,3.2013,3.2044,3.1879,3.1644,3.204,3.1882,3.1373,3.1952,3.2304,3.2424,3.2962,3.3475,3.3942,3.4509,3.4673,3.4553,3.4636,3.4684,3.4684,3.4684,3.4783,3.4928,3.4928,3.4928,3.4928,3.4928,3.4928,3.4894,0.0,0.0,0.0,3.4928,3.4928,3.4928,3.4928,3.4485,3.3591,3.3006,0.0,3.1416,3.082,3.0489,3.0489,3.0489,0.0,0.0,0.0,0.0,0.0,0.0,0.0,0.0,0.0,0.0,0.0,3.2752,3.272,3.1648,3.3935,3.6054,3.7262,3.8225,3.8967,3.951,4.1599,4.2756,4.2456,4.5501,4.7738,4.7805,4.9309,5.041,4.9972,5.0881,5.1303,5.0767,5.0914,5.1153,5.1355,5.0595,5.0442,5.1298,5.0698,4.9599,4.8345,4.8342,4.8241,4.8347,4.8065,4.7926,4.8364,4.8413,4.8479,4.8641,4.8775,4.9055,4.9218,4.9432,4.9693,5.0162,5.0564,5.0942,5.1352,5.153,5.1559,5.1443,5.1414,5.1443,3.4263,0.0,3.3835,3.3526,0.0,3.2971,3.2656,3.2427,3.2427,3.2261,3.2025,3.2205,3.2177,3.198,3.253,3.2935,3.3272,3.3783,3.4205,3.4509,3.4763,3.4928,3.4928,3.4928,3.4928,3.4928,3.4928,3.4928,3.4928,3.4928,3.4928,3.4928,3.4928,3.4928,3.4928,3.4928,3.4928,3.4928,3.4928,3.4928,3.4928,3.4928,3.4563,3.3834,0.0,0.0,0.0,0.0,0.0,0.0,0.0,0.0,0.0,0.0,0.0,3.1665,3.1159,3.1358,3.251,3.3701,3.4691,3.5411,3.6568,3.6523,3.4838,3.7201,3.9199,4.0163,4.1795,4.289,4.311,4.462,4.5575,4.5503,4.7102,4.8304,4.8786,4.9784,5.0389,5.0006,5.0163,5.0221,4.9844,4.9993,5.0588,5.1391,5.0767,5.0614,5.1778,5.1099,4.9912,4.9017,4.8399,4.8253,4.8641,4.8432,4.8265,4.8604,4.8744,4.8811,4.8896,4.9193,4.9465,4.9688,4.9954,5.0332,5.0651,5.1174,5.1755,5.202,5.2339,5.2543,5.2543,5.231,5.2194,3.4616,3.4476,3.4387,3.4078,3.3643,3.3549,3.3238,3.2766,0.0,0.0,0.0,3.244,3.264,3.2974,3.3482,3.395,3.4307,3.4742,3.4931,3.4928,3.4928,3.4928,3.4928,3.4928,3.4928,3.4928,3.4928,3.4928,3.4928,3.4928,3.4928,3.4916,3.5027,3.5148,3.528,3.528,3.528,3.5292,3.5048,3.4928,3.4928,3.4928,3.4584,3.4,3.4,3.3701,3.3116,3.3072,3.3072,3.3105,3.3778,3.4039,3.3832,3.4456,3.4856,3.4848,3.4659,3.4971,3.6049,3.7125,3.789,3.8261,3.9505,3.9677,3.8348,3.9999,4.1358,4.2058,4.4481,4.5886,4.5809,4.7044,4.8078,4.8549,4.8193,4.8444,4.9476,4.9829,4.9809,4.949,4.9383,4.9221,4.9202,4.9301,4.9902,5.1302,5.0767,5.0786,5.2139,5.1469,5.0518,5.0035,4.9246,4.896,4.9252,4.8955,4.8685,4.8845,4.9069,4.9124,4.902,4.9407,4.9838,4.9925,5.0419,5.0855,5.1087,5.1842,5.2597,5.2743,5.3152,5.35,5.3471,5.321,5.3065,3.6039,3.5939,3.5455,3.5162,3.5051,3.4543,3.43,3.4166,3.3535,3.3416,3.3696,3.4762,3.5126,3.5015,3.5543,3.5486,3.4975,3.5052,3.5037,0.0,3.4928,3.4928,3.4928,3.4928,3.4928,3.4928,3.4928,3.4928,3.4928,3.4928,3.4928,3.4982,3.5545,3.6174,3.6738,3.6804,3.6804,3.6771,3.5545,3.4928,3.4928,3.4928,3.4861,3.4762,3.4762,3.4717,3.4584,3.4584,3.4596,3.4618,3.5184,3.5243,3.4613,3.558,3.6391,3.7002,3.6958,3.7491,3.8837,3.9659,4.0357,4.0938,4.2268,4.2557,4.1302,4.2435,4.3507,4.4197,4.5674,4.6297,4.583,4.7464,4.8381,4.7971,4.8849,4.9345,4.8861,4.941,4.9381,4.8093,4.9553,5.0163,4.9203,4.9344,4.99,5.0451,5.0363,4.9667,5.0567,5.0656,5.0266,4.9642,4.9141,4.9182,4.9604,4.938,4.925,4.9783,4.9678,4.9625,4.9601,5.01,5.0535,5.0564,5.1062,5.1614,5.2133,5.2423,5.283,5.3181,5.3471,5.3559,5.3588,5.3878,5.4052,3.6343,3.6249,3.581,3.5548,3.538,3.5095,3.4995,3.5023,3.5363,3.5103,3.4568,3.5409,3.5824,3.5878,3.6088,3.6222,3.6173,3.6193,3.6136,3.6096,3.6075,3.6075,3.6108,3.6108,3.6108,3.6108,3.6108,3.6075,3.6096,3.6108,3.6108,3.6108,3.6439,3.6771,3.7089,3.7102,3.7102,3.7089,3.6439,3.6063,3.6108,3.6108,3.6108,3.6108,3.6108,3.6108,3.6075,3.6108,3.6075,3.6108,3.6645,3.6807,3.6388,3.7521,3.8316,3.8557,3.8903,3.9546,4.0555,4.1292,4.1981,4.2638,4.3299,4.38,4.3923,4.4483,4.5282,4.6337,4.7375,4.7983,4.7997,4.8412,4.8477,4.8142,4.8358,4.845,4.8615,4.9171,4.9533,4.9274,4.963,4.9837,4.9509,4.9419,4.9907,5.0808,5.1141,5.1181,5.0534,5.0864,5.0954,5.0278,4.9798,4.9752,5.0088,4.9767,4.9668,5.0033,5.0184,5.024,5.0274,5.0743,5.112,5.1236,5.1701,5.222,5.2597,5.2862,5.3181,5.3413,5.3822,5.3967,5.4113,5.4548,5.4809,3.6788,3.6748,3.6313,3.6049,3.5865,3.5989,3.6059,3.6161,3.7242,3.7007,3.6003,3.6318,3.6672,3.694,3.6926,3.7059,3.7329,3.7354,3.7255,3.7122,3.7102,3.7102,3.7102,3.7102,3.7102,3.7102,3.7102,3.7102,3.7102,3.7102,3.7189,3.7334,3.7354,3.7421,3.7599,3.7599,3.7599,3.7599,3.7599,3.7433,3.7135,3.7102,3.7102,3.7102,3.7268,3.7321,3.7354,3.75,3.7599,3.7619,3.8124,3.8339,3.8231,3.9247,3.9899,3.9991,4.0463,4.1078,4.1791,4.2456,4.3072,4.3654,4.3994,4.4609,4.5645,4.5928,4.6471,4.7566,4.8002,4.8688,4.9322,4.8769,4.8367,4.8656,4.7852,4.7773,4.8591,4.9061,4.9545,5.0237,4.9765,4.9539,4.9659,4.9495,4.9787,5.1024,5.2178,5.2078,5.0893,5.1052,5.1069,5.0745,5.0327,5.0148,5.0357,5.0184,5.0048,5.0194,5.0601,5.0826,5.0975,5.141,5.1788,5.1904,5.2368,5.2833,5.3033,5.3239,5.3617,5.3936,5.4258,5.4548,5.4925,5.5329,5.562,3.8181,3.8129,3.7517,3.7242,3.7252,3.7755,3.7963,3.8079,3.8747,3.8896,3.8515,3.8532,3.8722,3.9136,3.901,3.8619,3.8116,3.8083,3.7752,3.7189,3.7102,3.7102,3.7201,3.7135,3.7102,3.7168,3.7189,3.7235,3.7235,3.7189,3.7454,3.8017,3.8116,3.8394,3.8984,3.9037,3.9083,3.9116,3.9116,3.844,3.7201,3.7102,3.7102,3.7102,3.7752,3.8116,3.8116,3.8738,3.9083,3.9123,3.946,3.9687,3.971,4.0152,4.0737,4.132,4.145,4.1791,4.2472,4.3185,4.3605,4.3767,4.4885,4.5613,4.5853,4.6305,4.6655,4.6948,4.6795,4.7501,4.8704,4.806,4.8054,4.9399,4.8157,4.7787,4.9028,4.878,4.8571,4.9261,4.9802,4.9839,4.9503,4.9549,4.9814,5.0235,5.0633,5.0769,5.0495,5.029,5.029,5.0212,5.0116,5.0145,5.0228,5.0442,5.0585,5.073,5.1145,5.1468,5.1672,5.202,5.251,5.2543,5.292,5.3471,5.3878,5.3967,5.3909,5.4691,5.4894,5.4867,5.5852,5.6258,5.6316,3.853,3.8711,3.8173,3.7926,3.8026,3.859,3.8838,3.8892,3.9454,3.9709,3.9631,3.9421,3.9388,3.9501,3.9335,3.9149,3.8871,3.8838,3.8705,3.8407,3.8407,3.8407,3.8407,3.8407,3.8407,3.8407,3.8407,3.8407,3.8407,3.8407,3.8573,3.8838,3.8838,3.9004,3.9282,3.9315,3.9315,3.9315,3.9315,3.897,3.8473,3.8394,3.8407,3.844,3.8705,3.8871,3.8937,3.9567,3.9978,3.9951,4.0348,4.0572,4.0572,4.0918,4.1288,4.1612,4.197,4.2505,4.3185,4.3541,4.4075,4.4852,4.5467,4.5928,4.6305,4.6547,4.6843,4.7115,4.7112,4.7725,4.9076,4.8089,4.7916,4.9239,4.8143,4.7643,4.9306,4.8917,4.8969,5.026,5.0123,5.0124,5.0359,5.0312,5.011,4.999,4.999,5.011,5.0067,5.0164,5.0348,5.0484,5.0742,5.0776,5.0596,5.0876,5.1149,5.1323,5.1759,5.2165,5.2281,5.2717,5.3123,5.3123,5.3384,5.3791,5.4342,5.4345,5.4374,5.5184,5.5765,5.591,5.6781,5.6926,5.6926,3.8857,3.9047,3.8802,3.8632,3.8585,3.9189,3.9461,3.95,3.9901,4.0113,4.0075,3.982,3.9638,3.952,3.9362,3.9315,3.9315,3.9315,3.9315,3.9315,3.9315,3.9315,3.9315,3.9315,3.9315,3.9315,3.9282,3.9282,3.9315,3.9315,3.9315,3.9315,3.9315,3.9315,3.9315,3.9315,3.9315,3.9315,3.9315,3.9315,3.9282,3.9315,3.9315,3.9315,3.9315,3.9381,3.9613,4.0111,4.0495,4.068,4.1058,4.1278,4.1311,4.1666,4.1888,4.1905,4.2505,4.3152,4.367,4.4075,4.4624,4.5391,4.58,4.6168,4.6357,4.6724,4.697,4.7028,4.7302,4.8009,4.9052,4.7916,4.7597,4.8821,4.7634,4.7552,4.9122,4.8975,4.9351,5.0948,5.0342,4.9985,5.0698,5.0513,5.0145,5.0081,5.0009,5.0174,5.0207,5.0535,5.071,5.0942,5.1468,5.1556,5.112,5.1468,5.1817,5.202,5.2397,5.2833,5.2859,5.3268,5.3474,5.3355,5.3588,5.3996,5.4691,5.4836,5.4954,5.5534,5.6171,5.6694,5.7129,5.7274,5.7303,3.948,3.9421,3.9553,3.9435,3.9235,3.9807,4.0062,4.0079,4.0155,4.0146,4.0176,3.9921,3.9737,3.9731,3.9535,3.9315,3.9315,3.9315,3.9315,3.9315,3.9315,3.9315,3.9315,3.9315,3.9315,3.9315,3.9315,3.9315,3.9315,3.9315,3.9315,3.9315,3.9381,3.9348,3.9415,3.9448,3.9348,3.9481,3.9481,3.9381,3.9381,3.9381,3.9415,3.9415,3.9348,3.968,4.0263,4.0395,4.0727,4.1328,4.1767,4.1951,4.1987,4.2303,4.2489,4.2586,4.3217,4.3638,4.3864,4.4885,4.5374,4.5031,4.6109,4.6486,4.5842,4.6821,4.7164,4.632,4.6835,4.7549,4.8179,4.7068,4.6558,4.7482,4.7169,4.7629,4.9045,4.9009,4.9463,5.0543,5.0258,4.9897,4.9868,4.9766,5.0115,5.0357,5.0124,5.0124,5.0971,5.0975,5.1091,5.1527,5.2049,5.2336,5.1788,5.2107,5.2481,5.2626,5.292,5.3384,5.3442,5.35,5.353,5.3704,5.4113,5.4606,5.5155,5.5533,5.5737,5.6229,5.6723,5.7187,5.7274,5.7303,5.7303,3.9657,3.9755,3.9986,3.9973,3.9866,4.0484,4.0811,4.0865,4.1318,4.1487,4.1469,4.1218,4.1117,4.107,4.0333,3.9746,3.9348,3.9315,3.9315,3.9315,3.9315,3.9315,3.9315,3.9315,3.9315,3.9315,3.9315,3.9315,3.9315,3.9315,3.9547,3.9931,4.0011,4.0196,4.0547,4.0647,4.0647,4.0647,4.0647,4.0647,4.058,4.0647,4.0647,4.0613,4.023,4.0329,4.1011,4.1494,4.1815,4.1979,4.2431,4.2674,4.2585,4.2582,4.2619,4.2683,4.3282,4.3913,4.4431,4.5273,4.5662,4.5461,4.6731,4.7134,4.6489,4.6976,4.7333,4.6881,4.6432,4.6565,4.6638,4.6247,4.6661,4.8166,4.7977,4.8038,4.9281,4.9534,4.9606,5.0017,4.9863,4.9863,5.0158,5.0332,5.0448,5.0651,5.0801,5.0946,5.1062,5.1465,5.1958,5.2223,5.2746,5.3094,5.292,5.2978,5.3181,5.321,5.3384,5.3471,5.353,5.3936,5.4052,5.4255,5.4664,5.5244,5.5823,5.6316,5.6549,5.6752,5.7245,5.7274,5.7303,5.739,5.739,3.9965,4.0134,4.0459,4.0548,4.0553,4.1238,4.1542,4.161,4.2083,4.2286,4.2233,4.201,4.1907,4.1799,4.1084,4.0462,3.9931,3.9547,3.9315,3.9315,3.9315,3.9315,3.9315,3.9315,3.9448,3.968,3.9898,3.9965,3.9965,3.9965,4.0263,4.068,4.0727,4.0945,4.1361,4.1428,4.1428,4.1428,4.1428,4.1394,4.1428,4.1428,4.1527,4.1659,4.1309,4.1276,4.1759,4.2255,4.258,4.2664,4.2959,4.3021,4.2805,4.2649,4.2716,4.2959,4.3412,4.412,4.5012,4.5556,4.585,4.6072,4.6939,4.7212,4.6556,4.7068,4.7217,4.6845,4.6616,4.6298,4.6195,4.6214,4.6872,4.8325,4.8283,4.8477,4.948,4.9647,4.9684,4.9742,4.9742,4.9925,5.0274,5.0332,5.0448,5.0651,5.1062,5.1178,5.1465,5.1958,5.2714,5.2862,5.3181,5.3413,5.33,5.3326,5.3413,5.3442,5.353,5.3588,5.3849,5.4284,5.4662,5.4838,5.5273,5.5939,5.649,5.7013,5.7216,5.7303,5.7303,5.7303,5.7419,5.7536,5.7623,4.0485,4.056,4.1015,4.117,4.1305,4.1982,4.23,4.232,4.2435,4.257,4.2598,4.2145,4.2141,4.1952,4.1635,4.1361,4.1096,4.0097,3.9534,3.9501,3.9481,3.9481,3.9514,3.9547,3.9832,4.0395,4.1044,4.1328,4.1229,4.1196,4.1276,4.1394,4.1428,4.1494,4.1494,4.1626,4.1546,4.1536,4.1602,4.1517,4.1413,4.1536,4.1881,4.2363,4.2381,4.2396,4.2506,4.2553,4.2811,4.3224,4.3171,4.2944,4.2665,4.2667,4.2942,4.3444,4.3654,4.4373,4.5406,4.5677,4.6072,4.6328,4.671,4.6742,4.6466,4.6985,4.7089,4.6491,4.6646,4.6955,4.6758,4.6772,4.6928,4.6992,4.8009,4.8671,4.8928,4.934,4.9722,4.9722,4.9722,4.9722,4.9751,4.9925,5.0187,5.0681,5.0971,5.1378,5.2133,5.2568,5.2917,5.3268,5.3471,5.35,5.3503,5.3503,5.3503,5.3588,5.3648,5.3764,5.4226,5.4691,5.5155,5.5418,5.5968,5.6549,5.681,5.7245,5.7245,5.7303,5.7303,5.7332,5.7419,5.7594,5.8,4.0756,4.1086,4.118,4.1508,4.2016,4.2746,4.3064,4.3118,4.3606,4.3904,4.3801,4.3569,4.3394,4.3189,4.2579,4.2156,4.2057,4.1196,4.0746,4.0746,4.0732,4.068,4.0713,4.0746,4.0831,4.1077,4.1295,4.1428,4.1461,4.1461,4.1626,4.2057,4.2142,4.2454,4.2774,4.2903,4.2708,4.2334,4.2664,4.2485,4.1704,4.2425,4.2795,4.2583,4.257,4.2752,4.3238,4.3282,4.3248,4.3204,4.3143,4.2944,4.2762,4.3088,4.317,4.3065,4.437,4.4632,4.4378,4.5492,4.5859,4.5571,4.6326,4.6782,4.6383,4.6855,4.71,4.6697,4.655,4.6398,4.6783,4.723,4.7637,4.8048,4.8455,4.889,4.9262,4.9548,4.9693,4.9722,4.9722,4.9896,5.0245,5.0332,5.0564,5.1149,5.1639,5.2191,5.251,5.3004,5.3239,5.3471,5.35,5.3675,5.3793,5.4025,5.4142,5.4142,5.4171,5.4345,5.4751,5.5155,5.562,5.6084,5.6607,5.6955,5.7216,5.7303,5.7303,5.7303,5.7303,5.7332,5.739,5.7739,5.829,4.1541,4.1882,4.198,4.2273,4.2794,4.3538,4.3842,4.391,4.4364,4.4567,4.4525,4.4298,4.414,4.3953,4.3321,4.3009,4.2885,4.2421,4.2222,4.209,4.1546,4.1428,4.1461,4.1692,4.1825,4.1858,4.209,4.2222,4.2222,4.2222,4.244,4.2822,4.2664,4.2727,4.3187,4.3204,4.2881,4.2412,4.285,4.2663,4.1917,4.2348,4.2617,4.2237,4.2189,4.2412,4.2803,4.2819,4.2911,4.3036,4.299,4.2935,4.299,4.3186,4.3374,4.3831,4.4068,4.4288,4.4321,4.5184,4.5707,4.5354,4.6264,4.691,4.6582,4.6824,4.6756,4.6889,4.6576,4.6569,4.741,4.7869,4.842,4.9001,4.9059,4.9233,4.9635,4.9722,4.9722,4.9722,4.9722,4.9925,5.0187,5.0622,5.0797,5.1294,5.2046,5.2597,5.2772,5.3355,5.3646,5.3965,5.4255,5.4342,5.4287,5.4519,5.478,5.4809,5.4809,5.507,5.5445,5.5794,5.6229,5.6578,5.7042,5.71,5.7303,5.7303,5.7303,5.7303,5.739,5.7507,5.7681,5.8319,5.8871,4.2714,4.2799,4.3193,4.3355,4.3558,4.4262,4.4499,4.4533,4.4567,4.4567,4.4539,4.4384,4.4227,4.4083,4.3841,4.3647,4.3595,4.3466,4.3381,4.3069,4.2322,4.1759,4.1858,4.2322,4.2539,4.2686,4.3168,4.3466,4.3333,4.3244,4.352,4.3335,4.2737,4.2506,4.2538,4.2538,4.2158,4.1656,4.2158,4.211,4.136,4.1542,4.1525,4.1476,4.1459,4.1525,4.1689,4.1768,4.2109,4.2757,4.2667,4.2848,4.3218,4.2883,4.3561,4.4871,4.3408,4.3775,4.4793,4.49,4.4971,4.592,4.61,4.6352,4.6759,4.6506,4.6395,4.681,4.6847,4.7323,4.8281,4.86,4.8943,4.9548,4.9606,4.9635,4.9693,4.9722,4.9722,4.9722,4.9722,4.9722,4.9838,5.0332,5.0681,5.1087,5.19,5.2481,5.2975,5.3588,5.4313,5.4604,5.472,5.4894,5.4809,5.5186,5.5447,5.5533,5.5563,5.5852,5.6026,5.6345,5.6636,5.7013,5.7216,5.7274,5.7303,5.7303,5.7448,5.7594,5.7681,5.7768,5.8174,5.8813,5.9277,4.2811,4.3213,4.3349,4.3727,4.4262,4.4533,4.4567,4.4567,4.4567,4.4567,4.4539,4.4398,4.4241,4.4083,4.3971,4.3795,4.3643,4.3598,4.3598,4.358,4.3267,4.3035,4.3017,4.3168,4.33,4.3333,4.3466,4.3598,4.3568,4.3143,4.2896,4.2834,4.2158,4.1787,4.1787,4.1787,4.1426,4.0942,4.1443,4.1177,4.0339,4.0992,4.1227,4.0772,4.0738,4.0992,4.1456,4.1698,4.1647,4.1604,4.2229,4.2313,4.2282,4.2732,4.3215,4.3364,4.3773,4.3693,4.3897,4.4504,4.5037,4.5296,4.5836,4.6049,4.6218,4.6489,4.6598,4.6888,4.7207,4.784,4.8513,4.8716,4.9035,4.9577,4.9722,4.9722,4.9722,4.9722,4.9722,4.9722,4.9751,4.978,4.9954,5.039,5.0942,5.141,5.2107,5.2859,5.3382,5.4023,5.4836,5.4751,5.4867,5.5184,5.5474,5.5853,5.6115,5.6229,5.6374,5.6578,5.6665,5.6723,5.6984,5.7274,5.7274,5.7303,5.7303,5.7303,5.7536,5.7855,5.7768,5.7797,5.861,5.9277,5.9568,4.3668,4.3959,4.3938,4.4195,4.4567,4.4567,4.4567,4.4567,4.4567,4.4567,4.4587,4.4468,4.4312,4.4083,4.4029,4.3835,4.3628,4.3598,4.3598,4.3598,4.3565,4.3565,4.3565,4.3598,4.3598,4.3598,4.3598,4.3598,4.3494,4.2911,4.2632,4.2396,4.1575,4.1093,4.1076,4.106,4.0752,4.0287,4.0684,4.0512,3.9607,4.0148,4.0357,4.0091,4.0056,4.0344,4.0948,4.13,4.1544,4.1852,4.2242,4.239,4.2307,4.2565,4.3069,4.3391,4.3835,4.3786,4.411,4.4689,4.4963,4.512,4.5721,4.6214,4.644,4.683,4.7259,4.7642,4.7985,4.8449,4.8972,4.9117,4.9291,4.9635,4.9722,4.9722,4.9722,4.9722,4.9838,5.0013,5.0129,5.0274,5.0452,5.1087,5.1556,5.2107,5.2891,5.3471,5.3965,5.4691,5.5215,5.5273,5.562,5.6055,5.6229,5.6549,5.6636,5.6752,5.6926,5.7187,5.7071,5.7042,5.7187,5.7332,5.7332,5.7419,5.7594,5.771,5.7855,5.8,5.7826,5.8261,5.9132,5.9568,5.9887,4.4762,4.4762,4.4657,4.4567,4.4567,4.4567,4.4567,4.4567,4.4567,4.4567,4.4601,4.4567,4.4369,4.4097,4.4068,4.3908,4.3598,4.3598,4.3598,4.3598,4.3598,4.3598,4.3598,4.3598,4.3598,4.3598,4.3598,4.3509,4.325,4.2741,4.2412,4.1933,4.0925,4.0443,4.0374,4.0405,4.0038,3.9732,4.0073,4.0091,3.9499,3.9589,3.9625,3.9589,3.9733,4.0154,4.0704,4.1049,4.1574,4.2908,4.2572,4.2548,4.2931,4.2428,4.3118,4.4297,4.387,4.3826,4.4794,4.4893,4.5061,4.5343,4.6221,4.6859,4.7004,4.7521,4.8043,4.8426,4.8745,4.9059,4.9461,4.9664,4.9664,4.9722,4.9722,4.9722,4.9722,4.9751,5.0042,5.0593,5.071,5.1091,5.1643,5.2223,5.2688,5.3036,5.3762,5.4255,5.4749,5.5358,5.5823,5.6057,5.652,5.7129,5.7187,5.7216,5.7187,5.7187,5.739,5.7507,5.7274,5.7245,5.7332,5.7448,5.7652,5.7971,5.8319,5.8406,5.8377,5.8581,5.8726,5.9277,5.9887,5.9916,6.0119,4.4657,4.4623,4.4629,4.4567,4.4567,4.4567,4.4567,4.4567,4.4567,4.4567,4.4567,4.4567,4.4384,4.4097,4.4083,4.3923,4.3628,4.3598,4.3598,4.3598,4.3598,4.3598,4.3583,4.3553,4.3568,4.3553,4.3583,4.3295,4.2772,4.2094,4.1459,4.0939,4.0305,3.9661,3.9696,3.975,3.9607,3.9445,3.9607,3.9607,3.9481,3.9421,3.9421,3.9481,3.9948,4.08,4.1644,4.1681,4.1978,4.2488,4.2508,4.2243,4.206,4.2476,4.3113,4.3616,4.3947,4.4145,4.4778,4.5084,4.5343,4.6221,4.6656,4.7033,4.7579,4.8159,4.8513,4.8803,4.9146,4.9465,4.9664,4.9722,4.9751,4.978,4.978,4.9809,4.9838,5.0187,5.0506,5.0768,5.1178,5.1672,5.2336,5.2978,5.353,5.4052,5.4575,5.507,5.5562,5.5997,5.6316,5.6607,5.6897,5.7303,5.7303,5.7361,5.7419,5.7536,5.7768,5.8029,5.7768,5.7623,5.7768,5.7942,5.8087,5.8464,5.8929,5.8987,5.8987,5.9306,5.9626,5.9974,6.0264,6.0293,6.0409,4.4567,4.4567,4.4567,4.4567,4.4567,4.4567,4.4567,4.4567,4.4567,4.4567,4.4553,4.4511,4.4327,4.4097,4.401,4.3835,4.3658,4.3598,4.3598,4.3598,4.3583,4.3416,4.3143,4.3128,4.3128,4.3082,4.2726,4.2412,4.1965,4.141,4.0857,4.0461,3.9785,3.9481,3.9421,3.9421,3.9409,3.9421,3.9421,3.9421,3.9421,3.9421,3.9631,3.993,4.0516,4.1389,4.221,4.1929,4.211,4.2515,4.2614,4.2417,4.2129,4.2615,4.3195,4.3863,4.4153,4.4756,4.522,4.5663,4.6098,4.6772,4.7323,4.7787,4.8275,4.8798,4.9117,4.9233,4.9465,4.9722,4.9722,4.9722,4.9809,5.0129,5.0187,5.039,5.0855,5.0884,5.0855,5.1178,5.1936,5.2746,5.3413,5.3994,5.4342,5.4894,5.5387,5.5853,5.6055,5.6461,5.6752,5.6984,5.7129,5.7303,5.7303,5.739,5.7536,5.7768,5.8058,5.8406,5.8523,5.8377,5.8319,5.8464,5.861,5.9103,5.948,5.951,5.9713,6.0148,6.0438,6.0555,6.0642,6.0729,6.0816,4.4567,4.4567,4.4567,4.4567,4.4567,4.4567,4.4567,4.4567,4.4567,4.4567,4.4587,4.4426,4.4298,4.4097,4.3981,4.3824,4.3643,4.3598,4.3598,4.3598,4.3598,4.325,4.2803,4.2554,4.2285,4.2221,4.19,4.1575,4.1244,4.082,4.0478,4.0218,3.972,3.9409,3.9421,3.9421,3.9421,3.9421,3.9571,3.966,3.969,3.975,4.0169,4.0786,4.1254,4.1833,4.2342,4.2219,4.2167,4.2725,4.2932,4.3092,4.3253,4.334,4.366,4.4843,4.4959,4.5395,4.5924,4.6424,4.6801,4.7033,4.799,4.8658,4.8943,4.9262,4.9548,4.9635,4.9722,4.9722,4.9722,4.9896,5.0187,5.0564,5.0797,5.1494,5.2104,5.1726,5.1875,5.2194,5.3152,5.4023,5.4633,5.5155,5.5445,5.5736,5.6173,5.6492,5.6636,5.6781,5.7013,5.7071,5.7129,5.7565,5.7652,5.7768,5.7855,5.829,5.8581,5.8842,5.9248,5.9451,5.9364,5.9045,5.9219,5.9684,6.0032,6.0148,6.0467,6.0961,6.1019,6.0874,6.0961,6.1164,6.1193,4.4567,4.4567,4.4567,4.4567,4.4567,4.4567,4.4567,4.4567,4.4567,4.4567,4.4587,4.4559,4.4341,4.414,4.4068,4.3879,4.3643,4.3598,4.3598,4.3583,4.3539,4.3143,4.2522,4.19,4.1443,4.111,4.1076,4.1076,4.0752,4.0529,4.0143,3.9666,3.9481,3.9421,3.9481,3.9421,3.9541,3.972,4.0008,4.0247,4.0337,4.0726,4.1224,4.1822,4.2092,4.2433,4.2733,4.2702,4.2754,4.3115,4.306,4.3594,4.4211,4.4494,4.4698,4.4988,4.5459,4.5982,4.6482,4.6772,4.741,4.8106,4.8629,4.903,4.9378,4.9606,4.9693,4.9722,4.9722,4.9722,4.9722,5.0216,5.0564,5.0942,5.1726,5.2452,5.283,5.3297,5.3733,5.4052,5.472,5.5184,5.5591,5.5968,5.6229,5.6403,5.6723,5.6781,5.6666,5.6839,5.7042,5.7042,5.6984,5.7565,5.8058,5.8203,5.8406,5.8987,5.9306,5.9451,5.9887,6.0496,6.0496,6.0003,5.9916,6.0264,6.0555,6.07,6.0845,6.1106,6.1077,6.1048,6.1106,6.1193,6.1193,4.4567,4.4567,4.4567,4.4567,4.4567,4.4567,4.4567,4.4567,4.4567,4.4525,4.444,4.4355,4.4246,4.401,4.3864,4.3732,4.3643,4.3598,4.3598,4.3568,4.3235,4.2695,4.2045,4.1342,4.0615,4.0183,4.0235,4.0353,3.995,3.9915,3.975,3.9517,3.9421,3.9541,3.984,3.993,4.0127,4.0397,4.0726,4.0935,4.0965,4.1583,4.2092,4.2331,4.272,4.2971,4.3091,4.3244,4.3296,4.3541,4.3823,4.4284,4.4785,4.522,4.5424,4.5518,4.5982,4.6453,4.6946,4.7323,4.8106,4.8571,4.8977,4.932,4.9606,4.9693,4.9722,4.9722,4.9722,4.9867,5.0216,5.0801,5.141,5.2165,5.3007,5.3791,5.4429,5.5097,5.5445,5.5678,5.5823,5.5997,5.6171,5.6549,5.6926,5.7158,5.7274,5.7071,5.6724,5.6955,5.7129,5.7303,5.7361,5.7884,5.8464,5.8755,5.9045,5.9626,5.9974,6.0119,6.0351,6.0874,6.099,6.0758,6.0816,6.0787,6.0874,6.099,6.1106,6.1193,6.1135,6.1135,6.1164,6.1193,6.1193,4.4567,4.4567,4.4567,4.4567,4.4567,4.4567,4.4567,4.4601,4.4525,4.444,4.4312,4.4169,4.4025,4.3898,4.3702,4.3598,4.3598,4.3598,4.3524,4.325,4.2865,4.2189,4.1358,4.0893,4.044,3.9992,4.0094,3.966,3.9541,3.9709,3.9667,3.975,3.972,4.0019,4.0487,4.0606,4.1014,4.1254,4.1583,4.1613,4.1912,4.2271,4.2571,4.2631,4.318,4.3499,4.3498,4.3728,4.3935,4.4179,4.4529,4.4959,4.5169,4.5721,4.604,4.6156,4.654,4.683,4.7439,4.7961,4.8629,4.9001,4.9407,4.9635,4.9693,4.9722,4.9722,4.9722,4.9896,5.01,5.0622,5.1497,5.2343,5.3242,5.42,5.5157,5.5794,5.6316,5.6549,5.6694,5.6723,5.6694,5.6752,5.6549,5.681,5.7013,5.7129,5.6926,5.6723,5.7071,5.7332,5.7623,5.7913,5.8348,5.8842,5.9335,5.9713,6.0293,6.0496,6.0613,6.0816,6.1135,6.1106,6.1048,6.1077,6.1048,6.1164,6.1193,6.1193,6.1193,6.1193,6.1193,6.1193,6.1193,6.1193,4.4567,4.4567,4.4567,4.4567,4.4567,4.4567,4.4567,4.4573,4.4426,4.4355,4.427,4.4155,4.3996,4.3835,4.3673,4.3598,4.3664,4.3593,4.3432,4.3095,4.2701,4.1992,4.099,4.1163,4.0842,4.0429,4.0804,4.0397,3.993,4.0098,4.0277,4.0367,4.0745,4.1224,4.1254,4.1283,4.1343,4.1523,4.2021,4.2511,4.2891,4.307,4.313,4.3369,4.3708,4.4066,4.4022,4.4317,4.4608,4.4944,4.4909,4.522,4.5743,4.6359,4.6627,4.6714,4.6888,4.7294,4.8165,4.8629,4.903,4.9349,4.9664,4.9693,4.9722,4.9722,4.9722,4.9722,5.0216,5.0739,5.1261,5.2368,5.3181,5.4113,5.5157,5.5853,5.6492,5.681,5.71,5.7071,5.6897,5.7013,5.7129,5.6839,5.6636,5.6839,5.6926,5.6781,5.681,5.7245,5.7739,5.8145,5.8552,5.8987,5.9364,5.9829,6.0235,6.0874,6.0932,6.099,6.1077,6.1193,6.1193,6.1164,6.1193,6.1193,6.1193,6.1193,6.1193,6.1193,6.1193,6.1193,6.1193,6.1193,6.1193,4.4567,4.4567,4.4567,4.4567,4.4567,4.4567,4.4525,4.4426,4.4321,4.4193,4.4083,4.4029,4.3912,4.3765,4.3628,4.3845,4.4034,4.3811,4.3713,4.3395,4.2883,4.215,4.1727,4.1444,4.1148,4.1175,4.1194,4.1134,4.0726,4.0756,4.0935,4.1014,4.1283,4.1583,4.1931,4.1942,4.2182,4.2462,4.2791,4.301,4.325,4.3319,4.3489,4.3848,4.4177,4.4404,4.4665,4.4946,4.5124,4.5318,4.5331,4.575,4.6272,4.6714,4.701,4.788,4.7903,4.8165,4.8629,4.9059,4.9403,4.9577,4.9722,4.9722,4.9722,4.9751,4.9925,5.0245,5.083,5.1439,5.2336,5.3704,5.4546,5.5358,5.6084,5.6461,5.6897,5.7071,5.7245,5.7158,5.7071,5.7129,5.7245,5.7216,5.6897,5.6752,5.7042,5.7129,5.7274,5.7652,5.8203,5.8813,5.9219,5.9655,6.0003,6.038,6.0613,6.1048,6.1048,6.1106,6.1135,6.1193,6.1193,6.1193,6.1193,6.1193,6.1193,6.1193,6.1193,6.1193,6.1193,6.1193,6.1193,6.1193,6.1193,4.4567,4.4567,4.4567,4.4567,4.4567,4.4567,4.4483,4.4327,4.4284,4.4112,4.3908,4.3853,4.3831,4.3908,4.3992,4.4309,4.4907,4.4202,4.4058,4.3829,4.3175,4.2363,4.1973,4.1678,4.17,4.1673,4.1953,4.1923,4.1923,4.1893,4.1863,4.1673,4.1953,4.2192,4.2511,4.2631,4.2791,4.31,4.319,4.326,4.3319,4.3499,4.3828,4.4237,4.4605,4.4932,4.5322,4.5648,4.5712,4.5727,4.5943,4.633,4.6685,4.7236,4.7729,4.8455,4.8658,4.8914,4.9117,4.9349,4.9664,4.9722,4.9746,4.9717,4.9873,4.9882,5.0339,5.1103,5.1781,5.2681,5.3754,5.4917,5.5562,5.6171,5.681,5.71,5.7332,5.7361,5.7361,5.7245,5.71,5.6926,5.71,5.7419,5.7274,5.6839,5.6984,5.7419,5.7855,5.8261,5.8784,5.9422,5.9655,6.0119,6.0526,6.0874,6.1106,6.1193,6.1193,6.1193,6.1193,6.1193,6.1193,6.1193,6.1193,6.1193,6.1193,6.1193,6.1193,6.1193,6.1193,6.1193,6.1193,6.1193,6.1193,4.4567,4.4567,4.4567,4.4567,4.4601,4.4567,4.4468,4.4312,4.4169,4.4025,4.3868,4.3769,4.4074,4.4471,4.4655,4.4989,4.5637,4.4903,4.4339,4.3654,4.2851,4.2284,4.2085,4.2158,4.2351,4.2421,4.2641,4.2921,4.307,4.2831,4.2671,4.2451,4.2671,4.301,4.316,4.31,4.313,4.329,4.329,4.329,4.3469,4.3768,4.4237,4.4566,4.5433,4.619,4.6228,4.6326,4.6315,4.6256,4.6454,4.6737,4.7062,4.7816,4.8426,4.8856,4.9233,4.9407,4.9548,4.9577,4.9664,4.9722,4.9746,4.9824,5.0092,5.0464,5.1108,5.2063,5.2755,5.3632,5.4674,5.5607,5.6024,5.6287,5.6665,5.7071,5.7274,5.7477,5.7448,5.7332,5.7274,5.7245,5.7274,5.7681,5.7536,5.7129,5.7652,5.8087,5.8726,5.9161,5.9539,5.9945,6.009,6.0467,6.0961,6.1193,6.1193,6.1193,6.1193,6.1193,6.1193,6.1193,6.1193,6.1193,6.1193,6.1193,6.1193,6.1193,6.1193,6.1193,6.1193,6.1193,6.1193,6.1193,6.1193,4.4567,4.4567,4.4567,4.4567,4.4567,4.4468,4.4384,4.425,4.4068,4.3864,4.3769,4.4122,4.4423,4.477,4.522,4.5497,4.5604,4.4968,4.4482,4.4005,4.3346,4.2842,4.2701,4.2731,4.297,4.3,4.322,4.329,4.326,4.329,4.322,4.31,4.319,4.325,4.329,4.329,4.329,4.3339,4.3319,4.329,4.3439,4.3967,4.4496,4.5005,4.5702,4.6309,4.645,4.6542,4.6417,4.6384,4.6654,4.705,4.7462,4.831,4.8885,4.9204,4.9577,4.9664,4.9722,4.9722,4.9722,4.9722,4.9722,4.9945,5.0471,5.0938,5.1835,5.2814,5.3658,5.4391,5.5147,5.5527,5.5736,5.5939,5.6374,5.6984,5.7332,5.7594,5.7913,5.7942,5.7913,5.7884,5.7942,5.8029,5.7739,5.7477,5.8116,5.8784,5.9451,5.9887,6.0177,6.0438,6.0555,6.0642,6.1106,6.1193,6.1193,6.1193,6.1193,6.1193,6.1193,6.1193,6.1193,6.1193,6.1193,6.1193,6.1193,6.1193,6.1193,6.1193,6.1193,6.1193,6.1193,6.1193,6.1193,4.4567,4.4567,4.4567,4.4567,4.4553,4.4398,4.4265,4.4212,4.4015,4.3942,4.3977,4.4688,4.52,4.5465,4.5832,4.6319,4.6156,4.5565,4.5056,4.4471,4.3883,4.3409,4.329,4.326,4.322,4.329,4.329,4.329,4.329,4.329,4.326,4.326,4.329,4.329,4.329,4.329,4.3319,4.3339,4.3549,4.3579,4.3728,4.4506,4.5012,4.5601,4.6258,4.6534,4.6697,4.6786,4.6755,4.6778,4.7015,4.7608,4.8101,4.8624,4.9175,4.9519,4.9722,4.9722,4.9722,4.9722,4.9722,4.9722,5.0013,5.041,5.0988,5.1631,5.25,5.3873,5.4415,5.4776,5.5384,5.576,5.5649,5.5881,5.6955,5.7565,5.7681,5.7913,5.8319,5.861,5.8581,5.861,5.8755,5.8842,5.89,5.8668,5.9016,5.9626,6.0206,6.0555,6.0671,6.0874,6.1019,6.1106,6.1193,6.1193,6.1193,6.1193,6.1193,6.1193,6.1193,6.1193,6.1193,6.1193,6.1193,6.1193,6.1193,6.1193,6.1193,6.1193,6.1193,6.1193,6.1193,6.1193,6.1193,4.4567,4.4567,4.4601,4.4601,4.4539,4.4384,4.4241,4.4145,4.4037,4.4241,4.4736,4.5465,4.6128,4.6576,4.6742,4.6979,4.6893,4.6074,4.5416,4.4875,4.3869,4.3369,4.329,4.329,4.329,4.329,4.329,4.329,4.329,4.329,4.329,4.3349,4.3379,4.3439,4.3349,4.3319,4.3319,4.3439,4.4057,4.4207,4.4526,4.5373,4.5857,4.6083,4.662,4.6886,4.6749,4.7021,4.7069,4.6995,4.7829,4.8362,4.8571,4.9175,4.9577,4.9693,4.9722,4.9722,4.9722,4.9722,4.9834,4.9896,5.0274,5.0954,5.175,5.2453,5.316,5.4504,5.4725,5.4939,5.5519,5.5985,5.5645,5.5881,5.6897,5.7855,5.7942,5.8552,5.9016,5.9335,5.9335,5.9364,5.9539,5.9742,6.0003,6.0061,6.0119,6.0467,6.0874,6.1019,6.1019,6.1048,6.1193,6.1193,6.1193,6.1193,6.1193,6.1193,6.1193,6.1193,6.1193,6.1193,6.1193,6.1193,6.1193,6.1193,6.1193,6.1193,6.1193,6.1193,6.1193,6.1193,6.1193,6.1193,6.1193,4.4567,4.4601,4.4454,4.4412,4.4384,4.4241,4.414,4.4169,4.4442,4.4891,4.5514,4.6212,4.6609,4.6974,4.7275,4.7242,4.6468,4.6198,4.5442,4.4178,4.3517,4.3389,4.329,4.329,4.329,4.329,4.329,4.329,4.329,4.3379,4.3319,4.3349,4.3788,4.3938,4.3967,4.3997,4.4137,4.4586,4.4885,4.4975,4.5065,4.5822,4.6318,4.6241,4.6786,4.6909,4.6675,4.7137,4.7301,4.7299,4.8188,4.874,4.8861,4.9378,4.9693,4.9722,4.9722,4.9722,4.9887,5.0111,5.0509,5.0527,5.0705,5.1445,5.2438,5.2959,5.3879,5.4595,5.4614,5.474,5.4919,5.5035,5.4952,5.5242,5.6171,5.7477,5.8145,5.919,5.9916,6.0061,6.0119,6.0322,6.0496,6.038,6.0555,6.07,6.0671,6.0729,6.1077,6.1106,6.1135,6.1135,6.1193,6.1193,6.1193,6.1193,6.1193,6.1193,6.1193,6.1193,6.1193,6.1193,6.1193,6.1193,6.1193,6.1193,6.1193,6.1193,6.1193,6.1193,6.1193,6.1193,6.1193,6.1193,6.1193,4.4483,4.4468,4.4312,4.4332,4.4476,4.4422,4.4482,4.4757,4.5336,4.5826,4.6261,4.6941,4.7305,4.7373,4.7358,4.7554,4.6375,4.5515,4.5405,4.4004,4.3488,4.3369,4.329,4.329,4.329,4.3319,4.3319,4.329,4.3319,4.3559,4.3848,4.4147,4.4416,4.4775,4.4835,4.4945,4.4796,4.5185,4.5394,4.5663,4.5843,4.6219,4.6552,4.6586,4.6775,4.6962,4.694,4.7177,4.7583,4.7759,4.8281,4.8977,4.9204,4.9378,4.9722,4.9722,4.9722,4.9858,5.0276,5.0431,5.0896,5.1407,5.1349,5.1948,5.2894,5.3289,5.3867,5.4359,5.4364,5.4282,5.4255,5.4287,5.5126,5.5474,5.6781,5.8145,5.8697,5.9771,6.0467,6.0642,6.0729,6.1019,6.1193,6.1135,6.1019,6.1106,6.1164,6.1193,6.1193,6.1193,6.1193,6.1193,6.1193,6.1193,6.1193,6.1193,6.1193,6.1193,6.1193,6.1193,6.1193,6.1193,6.1193,6.1193,6.1193,6.1193,6.1193,6.1193,6.1193,6.1193,6.1193,6.1193,6.1193,6.1193,6.1193,4.4293,4.4312,4.4155,4.4397,4.4848,4.4967,4.5323,4.5863,4.6559,4.6841,4.6974,4.7636,4.7868,4.777,4.7237,4.7118,4.7151,4.5515,4.5055,4.4774,4.3771,4.3488,4.329,4.329,4.3409,4.3379,4.3439,4.3638,4.3469,4.4027,4.4625,4.5125,4.5274,4.5663,4.5792,4.5813,4.5603,4.5843,4.6112,4.6279,4.6386,4.6817,4.6832,4.682,4.6933,4.7066,4.7238,4.767,4.8243,4.8708,4.9233,4.9548,4.9693,4.9693,4.9722,4.9722,4.9722,5.0237,5.0675,5.078,5.1453,5.21,5.2452,5.2946,5.3291,5.3495,5.3841,5.4044,5.4018,5.3846,5.3706,5.4865,5.5997,5.7071,5.8406,5.9103,5.9422,6.009,6.0758,6.1048,6.1077,6.1193,6.1193,6.1193,6.1193,6.1193,6.1193,6.1193,6.1193,6.1193,6.1193,6.1193,6.1193,6.1193,6.1193,6.1193,6.1193,6.1193,6.1193,6.1193,6.1193,6.1193,6.1193,6.1193,6.1193,6.1193,6.1193,6.1193,6.1193,6.1193,6.1193,6.1193,6.1193,6.1193,6.1222,4.4293,4.4265,4.4073,4.4327,4.5018,4.5908,4.6409,4.6609,4.6841,4.7139,4.7703,4.7901,4.8001,4.7968,4.7737,4.7134,4.641,4.5624,4.4718,4.4159,4.3634,4.3409,4.3319,4.3379,4.3589,4.3878,4.4027,4.4207,4.4625,4.5005,4.5343,4.5882,4.6022,4.642,4.6659,4.68,4.6681,4.66,4.6809,4.6774,4.6769,4.706,4.6939,4.6837,4.7155,4.7234,4.7418,4.8109,4.8597,4.8846,4.9349,4.9693,4.9722,4.9722,4.9722,4.9742,5.0024,5.0447,5.0821,5.1287,5.1929,5.2565,5.2949,5.337,5.3629,5.3661,5.3696,5.3783,5.3785,5.3646,5.4171,5.5271,5.62,5.7245,5.861,5.9626,5.9829,5.9945,6.0613,6.099,6.1048,6.1193,6.1193,6.1193,6.1193,6.1193,6.1193,6.1193,6.1193,6.1193,6.1193,6.1193,6.1193,6.1193,6.1193,6.1193,6.1193,6.1193,6.1193,6.1193,6.1193,6.1193,6.1193,6.1193,6.1193,6.1193,6.1193,6.1193,6.1193,6.1193,6.1193,6.1193,6.1193,6.1193,6.1396,4.4198,4.4145,4.4212,4.4758,4.5791,4.6856,4.7338,4.7338,4.7338,4.7636,4.7968,4.8001,4.8001,4.7869,4.7303,4.6689,4.6184,4.5036,4.4243,4.4197,4.3458,4.3329,4.3319,4.3589,4.3938,4.4287,4.4616,4.4855,4.5334,4.5693,4.6031,4.6629,4.6711,4.695,4.716,4.7189,4.7219,4.7176,4.7141,4.7106,4.7084,4.7048,4.6807,4.6801,4.7213,4.7414,4.7566,4.8399,4.8864,4.9054,4.9606,4.9693,4.9722,4.9722,4.9917,4.999,5.014,5.0691,5.1216,5.1679,5.2278,5.2823,5.3268,5.3466,5.3605,5.3582,5.3608,5.3664,5.3611,5.3762,5.4662,5.5533,5.6229,5.6955,5.8435,5.9916,5.9945,5.9829,6.0206,6.0671,6.0932,6.1106,6.1193,6.1193,6.1193,6.1193,6.1193,6.1193,6.1193,6.1193,6.1193,6.1193,6.1193,6.1193,6.1193,6.1193,6.1193,6.1193,6.1193,6.1193,6.1193,6.1193,6.1193,6.1193,6.1193,6.1193,6.1193,6.1193,6.1193,6.1193,6.1193,6.1193,6.1193,6.1193,6.1483,4.4044,4.3964,4.4532,4.5565,4.6908,4.7636,4.7968,4.8001,4.7934,4.8001,4.8001,4.8001,4.7935,4.7588,4.6776,4.6322,4.5647,4.4624,4.409,4.437,4.3836,4.3549,4.3728,4.4027,4.4536,4.4715,4.5014,4.5544,4.5693,4.6112,4.6659,4.7309,4.7249,4.7279,4.7279,4.7309,4.7309,4.7266,4.7092,4.6909,4.7056,4.6903,4.6668,4.6756,4.7247,4.7779,4.808,4.8621,4.9328,4.9563,4.9693,4.9722,4.9722,4.9795,5.0038,5.0135,5.0159,5.0837,5.1441,5.1883,5.2541,5.3082,5.353,5.35,5.3527,5.3527,5.3553,5.3553,5.353,5.3907,5.472,5.5794,5.6607,5.7419,5.8639,5.951,5.9626,5.9568,5.9742,6.0206,6.0584,6.0787,6.1193,6.1193,6.1193,6.1193,6.1193,6.1193,6.1193,6.1193,6.1193,6.1193,6.1193,6.1193,6.1193,6.1193,6.1193,6.1193,6.1193,6.1193,6.1193,6.1193,6.1193,6.1193,6.1193,6.1193,6.1193,6.1193,6.1193,6.1193,6.1193,6.1193,6.1193,6.1193,6.1687,4.401,4.4031,4.5081,4.6095,4.6974,4.7703,4.8001,4.8001,4.8001,4.8001,4.8001,4.7968,4.7622,4.705,4.6655,4.6095,4.493,4.4453,4.4004,4.3994,4.3798,4.3997,4.4197,4.4766,4.5254,4.5732,4.6061,4.6271,4.6591,4.692,4.707,4.7279,4.7309,4.7309,4.7309,4.7309,4.7287,4.7287,4.7072,4.6874,4.6904,4.7333,4.7458,4.7392,4.7718,4.8384,4.8719,4.9107,4.948,4.9693,4.9693,4.9722,4.9722,4.9892,4.9941,4.9941,5.0096,5.0852,5.1533,5.2008,5.2574,5.3247,5.3661,5.3556,5.35,5.35,5.353,5.353,5.3675,5.411,5.4836,5.5939,5.6984,5.7884,5.8697,5.8987,5.9248,5.9277,5.9306,5.9713,6.0148,6.0584,6.1019,6.1193,6.1193,6.1193,6.1193,6.1193,6.1193,6.1193,6.1193,6.1193,6.1193,6.1193,6.1193,6.1193,6.1193,6.1193,6.1193,6.1193,6.1193,6.1193,6.1193,6.1193,6.1193,6.1193,6.1193,6.1193,6.1193,6.1193,6.1193,6.1193,6.1193,6.1193,6.189,4.3927,4.3946,4.5231,4.6411,4.7338,4.7835,4.8001,4.8001,4.8001,4.8001,4.8001,4.7952,4.7571,4.6776,4.6466,4.5787,4.4598,4.4101,4.3985,4.3928,4.4147,4.4446,4.4865,4.5424,4.5762,4.6271,4.6629,4.698,4.7279,4.7309,4.7279,4.7309,4.7309,4.7309,4.7309,4.7309,4.7309,4.7287,4.7125,4.7074,4.7,4.7293,4.7462,4.7478,4.8109,4.8738,4.9063,4.9364,4.9679,4.9717,4.9722,4.9844,4.9844,4.9863,4.9917,5.0029,5.0364,5.0861,5.1604,5.2195,5.2635,5.3364,5.3981,5.3965,5.3733,5.3762,5.3965,5.3936,5.3559,5.3878,5.4952,5.6084,5.6781,5.7594,5.8145,5.8552,5.8581,5.8523,5.8871,5.9451,5.9945,6.0526,6.0903,6.1193,6.1193,6.1193,6.1193,6.1193,6.1193,6.1193,6.1193,6.1193,6.1193,6.1193,6.1193,6.1193,6.1193,6.1193,6.1193,6.1193,6.1193,6.1193,6.1193,6.1193,6.1193,6.1193,6.1193,6.1193,6.1193,6.1193,6.1193,6.1193,6.1193,6.1222,6.1716,4.3894,4.4077,4.5284,4.6643,4.7901,4.8001,4.8001,4.8001,4.8001,4.7919,4.782,4.7935,4.7488,4.6793,4.5895,4.5247,4.4626,4.4133,4.3998,4.4347,4.4596,4.5044,4.5553,4.6091,4.639,4.6659,4.698,4.713,4.7309,4.7309,4.7309,4.7309,4.7309,4.7309,4.7309,4.7317,4.7317,4.7477,4.7503,4.768,4.7505,4.7309,4.7524,4.7904,4.8337,4.8769,4.9131,4.9436,4.9834,4.9892,4.982,4.9868,4.9839,4.9844,5.0087,5.0252,5.0549,5.1195,5.1929,5.2508,5.3011,5.3573,5.4108,5.42,5.3909,5.3994,5.4197,5.4226,5.3849,5.4313,5.5416,5.5997,5.6665,5.7245,5.771,5.8058,5.7971,5.7913,5.8464,5.9074,5.9713,6.0322,6.0758,6.1019,6.1193,6.1193,6.1193,6.1193,6.1193,6.1193,6.1193,6.1193,6.1193,6.1193,6.1193,6.1193,6.1193,6.1193,6.1193,6.1193,6.1193,6.1193,6.1193,6.1193,6.1193,6.1193,6.1193,6.1193,6.1193,6.1193,6.1193,6.1193,6.1193,6.1251,6.1454,4.4507,4.5417,4.5731,4.6643,4.7901,4.8001,4.8001,4.8001,4.7984,4.7671,4.7371,4.7688,4.7571,4.6741,4.5282,4.4833,4.5283,4.4508,4.4587,4.5065,4.5433,4.5822,4.6211,4.6629,4.701,4.716,4.7219,4.7279,4.7309,4.7309,4.7309,4.7309,4.7309,4.7309,4.7309,4.7377,4.7499,4.7666,4.7807,4.7936,4.842,4.8378,4.8523,4.8854,4.9136,4.9378,4.9601,4.9684,4.9863,4.9965,4.999,4.9917,4.9873,4.9882,5.0159,5.0583,5.0908,5.1654,5.2355,5.2719,5.3195,5.3623,5.3984,5.3851,5.3764,5.3909,5.4226,5.4662,5.4691,5.5562,5.6374,5.6258,5.6694,5.71,5.7565,5.7565,5.7536,5.7623,5.7913,5.8552,5.9219,5.9887,6.0496,6.0816,6.1193,6.1193,6.1193,6.1193,6.1193,6.1193,6.1193,6.1193,6.1193,6.1193,6.1193,6.1193,6.1193,6.1193,6.1193,6.1193,6.1193,6.1193,6.1193,6.1193,6.1193,6.1193,6.1193,6.1193,6.1193,6.1193,6.1193,6.1193,6.1193,6.1222,6.1367]}]]